     2.10           OBSERVATION DATA    G (GPS)             RINEX VERSION / TYPE
teqc 2002Mar14 SOPAC 20050725 22:56:46UTC                   PGM / RUN BY / DATE
Linux 2.0.36|Pentium II|gcc -static|Linux|486/DX+           COMMENT
BIT 2 OF LLI FLAGS DATA COLLECTED UNDER A/S CONDITION       COMMENT
PEAVINE                                                     MARKER NAME
PEAV                                                        MARKER NUMBER
Paul Dunham                                                 OBSERVER / AGENCY
0220223934 TRIMBLE 4700 1.30                                REC # / TYPE / VERS
0220203928 TRM33429.00+GP NONE                              ANT # / TYPE
 -2521827.0000 -4292832.0000  3975679.0000                  APPROX POSITION XYZ
        2.0000        0.0000        0.0000                  ANTENNA: DELTA H/E/N
     1     1                                                WAVELENGTH FACT L1/2
     6    L1    L2    C1    P2    P1    D1                  # / TYPES OF OBSERV
    15.0000                                                 INTERVAL
Northern California Height Modernization 2004               COMMENT
                                                            COMMENT
SOPAC - Scripps Orbit and Permanent Array Center            COMMENT
IGPP - Institute of Geophysics and Planetary Physics        COMMENT
SIO - Scripps Institution of Oceanography                   COMMENT
UCSD - University of California, San Diego                  COMMENT
                                                            COMMENT
email: archive@gpsmail.ucsd.edu                             COMMENT
ftp://garner.ucsd.edu                                       COMMENT
http://sopac.ucsd.edu                                       COMMENT
                                                            COMMENT
                                                            COMMENT
Approximate Lat, Lon : 38.796, -120.432                     COMMENT
                                                            COMMENT
SNR is mapped to RINEX snr flag value [1-9]                 COMMENT
L1: 3 -> 1; 8 -> 5; 40 -> 9                                 COMMENT
L2: 1 -> 1; 5 -> 5; 60 -> 9                                 COMMENT
  2004     9    17    14    45   30.0000000     GPS         TIME OF FIRST OBS
                                                            END OF HEADER
 04  9 17 14 45 30.0000000  0  3G 1G11G14
    -70430.65459    -50548.76657  21975791.9144   21975788.7274
      1800.5634
    -59966.85359    -46017.22557  22000010.5864   22000005.4064
      1344.5474
    157172.43659    102019.46957  21416515.3674   21416510.5354
     -2380.5314
 04  9 17 14 45 45.0000000  0  3G 1G11G14
    -97376.16049    -71545.26447  21970664.2974   21970660.9804
      1792.1724
    -80051.40349    -61667.52147  21996188.6334   21996183.6564
      1333.4224
    192935.32249    129886.60947  21423320.5944   21423316.1764
     -2387.7664
 04  9 17 14 46  0.0000000  0  7G 1G11G14G15G19G22G25
   -124192.00349    -92440.72547  21965562.1804   21965558.3484
      1783.3914
    -99966.81749    -77186.05347  21992398.0704   21992393.5904
      1322.0944
    228809.95449    157840.87747  21430147.6564   21430142.6094
     -2395.3124
    145089.36858     86832.16056  23697140.1724   23697138.1484
     -4152.5944
    107225.68058     61662.63056  24018659.1644   24018653.7154
     -2986.0474
     97405.72159     64190.20657  23117297.9534   23117292.9454
     -2591.4694
    -94951.22859    -64272.23457  21683991.0474   21683987.3914
      1959.7814
 04  9 17 14 46 15.0000000  0  7G 1G11G14G15G19G22G25
   -150877.44049   -113234.57947  21960483.9384   21960480.0944
      1774.4224
   -119712.18449    -92572.05847  21988641.1644   21988635.8754
      1310.3914
    264796.87349    185882.61347  21436995.8204   21436991.0594
     -2403.1254
    207426.86248    135406.73046  23709001.5474   23709000.1054
     -4159.1724
    152063.03748     96600.74046  24027190.9924   24027186.3834
     -2992.6254
    136326.32449     94517.93547  23124704.4534   23124699.0944
     -2597.9844
   -124268.30149    -87116.68647  21678412.8834   21678408.4844
      1949.1414
 04  9 17 14 46 30.0000000  0  7G 1G11G14G15G19G22G25
   -177431.54849   -133926.10247  21955430.4144   21955427.3594
      1765.8134
   -139286.48649   -107824.75647  21984916.3444   21984911.0594
      1299.1254
    300896.68649    214012.32347  21443865.1724   21443860.5824
     -2410.4694
    269857.59748    184054.04746  23720883.6884   23720880.6724
     -4165.1564
    196995.35848    131612.97546  24035741.3834   24035736.5124
     -2998.5944
    175340.41549    124918.48047  23132127.9924   23132122.9884
     -2604.0944
   -153428.61349   -109839.01447  21672863.4224   21672859.2424
      1938.7504
 04  9 17 14 46 45.0010000  0  7G 1G11G14G15G19G22G25
   -203857.48649   -154517.73947  21950401.5834   21950398.6574
      1757.4064
   -158692.22549   -122946.13347  21981223.8174   21981218.0134
      1288.1884
    337110.07349    242230.51747  21450756.8564   21450751.7984
     -2417.5624
    332384.09048    232775.87946  23732780.7314   23732779.2204
     -4170.9064
    242024.01848    166700.19846  24044310.4034   24044305.1854
     -3004.7344
    214449.10149    155392.75847  23139571.0054   23139565.3844
     -2610.0624
   -182435.25549   -132441.60247  21667343.9814   21667339.7084
      1928.6884
 04  9 17 14 47  0.0010000  0  7G 1G11G14G15G19G22G25
   -230158.88449   -175012.33547  21945396.7634   21945393.5874
      1749.4384
   -177933.70149   -137939.51447  21977561.8644   21977556.8994
      1277.3914
    373424.95349    270527.81647  21457666.8564   21457662.1424
     -2424.3124
    394990.58948    281560.11746  23744694.4584   23744692.6534
     -4176.4844
    287135.37848    201851.84946  24052894.9354   24052889.9854
     -3010.2664
    253640.01949    185931.08847  23147028.3964   23147023.0094
     -2615.4844
   -211291.28249   -154926.81447  21661852.2314   21661848.4934
      1918.9064
 04  9 17 14 47 15.0010000  0  7G 1G11G14G15G19G22G25
   -256344.53549   -195416.73247  21940413.4744   21940410.3564
      1741.6724
   -197019.04849   -152811.21447  21973930.0524   21973924.8334
      1266.9534
    409836.26749    298900.24847  21464596.2474   21464591.1854
     -2430.7814
    457673.76248    330404.13446  23756623.0754   23756621.3884
     -4181.5474
    332324.93749    237064.43046  24061494.3334   24061489.3134
     -3015.3124
    292908.66149    216530.01347  23154501.3024   23154495.5484
     -2620.6094
   -240005.57849   -177301.59947  21656388.8024   21656384.7284
      1909.4064
 04  9 17 14 47 30.0010000  0  7G 1G11G14G15G19G22G25
   -282416.77649   -215732.75147  21935452.5674   21935448.9544
      1734.4694
   -215950.50149   -167562.99947  21970327.6774   21970322.4624
      1257.1564
    446341.47349    327345.83947  21471542.1694   21471537.7004
     -2436.6724
    520430.94148    379305.73246  23768564.9664   23768564.2514
     -4186.1094
    377590.00449    272335.88646  24070108.9894   24070103.0134
     -3020.0314
    332252.70349    247187.67647  23161988.3804   23161982.9744
     -2625.2664
   -268580.05649   -199567.39947  21650950.8884   21650947.1104
      1900.4384
 04  9 17 14 47 45.0010000  0  7G 1G11G14G15G19G22G25
   -308380.70249   -235964.40247  21930511.7244   21930508.5054
      1727.3914
   -234732.94649   -182198.68647  21966753.6144   21966748.7984
      1247.2664
    482935.27649    355860.47447  21478506.4194   21478501.5484
     -2442.4844
    583256.75649    428260.81046  23780520.3254   23780519.5604
     -4190.5944
    422924.95749    307661.83546  24078735.0284   24078729.6464
     -3024.6094
    371666.97549    277900.05547  23169488.8334   23169482.7594
     -2629.8444
   -297019.68949   -221728.16147  21645539.1924   21645535.6854
      1891.5314
 04  9 17 14 48  0.0010000  0  7G 1G11G14G15G19G22G25
   -334243.03849   -256116.87447  21925590.0524   21925586.8214
      1720.9694
   -253372.95549   -196723.38147  21963206.3334   21963201.5834
      1238.0164
    519610.71149    384438.72347  21485485.4584   21485480.3884
     -2447.5164
    646144.21949    477263.98946  23792487.6224   23792486.3844
     -4194.3124
    468322.75349    343036.72346  24087373.6854   24087368.6464
     -3028.5004
    411144.83649    308661.97947  23177001.2314   23176995.2124
     -2633.7814
   -325331.06749   -243788.97147  21640151.7864   21640147.8294
      1883.3284
 04  9 17 14 48 15.0010000  0  7G 1G11G14G15G19G22G25
   -360004.74949   -276190.94147  21920688.6774   21920684.1384
      1714.0164
   -271871.37349   -211137.75347  21959685.9974   21959680.8994
      1228.5314
    556366.44949    413079.54547  21492479.5834   21492474.7474
     -2453.1564
    709091.96149    526314.14146  23804465.7784   23804464.9194
     -4198.5624
    513781.94149    378459.40246  24096024.5134   24096018.7004
     -3032.5944
    450685.11349    339472.55947  23184525.5834   23184519.4234
     -2638.1724
   -353514.97349   -265750.44947  21634788.9354   21634784.3804
      1874.7344
 04  9 17 14 48 30.0010000  0  7G 1G11G14G15G19G22G25
   -385673.96649   -296192.91947  21915803.4194   21915800.3214
      1708.0944
   -290236.09149   -225447.92747  21956191.3884   21956186.3374
      1219.7344
    593194.17049    441776.46047  21499488.3254   21499483.1814
     -2457.6874
    772091.55149    575404.64446  23816454.8254   23816453.9074
     -4201.9694
    559294.13349    413923.42246  24104684.3964   24104679.6144
     -3036.1254
    490279.82849    370325.54947  23192059.8254   23192054.7944
     -2641.6414
   -381579.11349   -287618.60647  21629447.9584   21629444.0524
      1866.8134
 04  9 17 14 48 45.0010000  0  7G 1G11G14G15G19G22G25
   -411249.05849   -316121.56847  21910936.7474   21910933.2004
      1701.8444
   -308465.21149   -239652.45247  21952722.7714   21952717.8534
      1210.7194
    630095.26249    470530.53847  21506509.7944   21506505.1774
     -2462.4694
    835144.23449    624536.59046  23828453.5754   23828452.4424
     -4205.2664
    604860.38449    449429.53946  24113356.3254   24113350.9114
     -3039.5004
    529930.39149    401222.06247  23199605.1694   23199599.6344
     -2645.3444
   -409521.76149   -309392.10847  21624130.7474   21624126.8964
      1858.7974
 04  9 17 14 49  0.0010000  0  7G 1G11G14G15G19G22G25
   -436731.67449   -335978.15547  21906087.2944   21906083.3994
      1695.7344
   -326560.21049   -253752.46947  21949278.9354   21949274.3414
      1201.7814
    667067.72449    499340.22447  21513545.6774   21513540.5054
     -2467.3124
    898248.05649    673708.30246  23840462.0134   23840460.6854
     -4208.7664
    650478.62849    484976.20546  24122036.5834   24122031.4314
     -3042.9374
    569635.15349    432160.80947  23207160.5834   23207155.4784
     -2648.8124
   -437344.29549   -331071.98247  21618836.1224   21618832.1144
      1850.8134
 04  9 17 14 49 15.0010000  0  7G 1G11G14G15G19G22G25
   -462125.65249   -355765.65247  21901255.0214   21901251.6534
      1690.2664
   -344524.83349   -267750.87347  21945860.6694   21945855.7594
      1193.5004
    704107.44149    528202.34147  21520593.7314   21520588.9784
     -2471.2814
    961398.85649    722916.66946  23852479.3564   23852477.9314
     -4211.3444
    696144.58549    520560.04346  24130726.9744   24130721.4854
     -3045.7194
    609390.24449    463138.77147  23214725.8564   23214720.4424
     -2651.7034
   -465050.29049   -352661.06947  21613563.5674   21613559.8174
      1843.5004
 04  9 17 14 49 30.0010000  0  7G 1G11G14G15G19G22G25
   -487432.01649   -375484.89247  21896439.5444   21896436.1614
      1684.2344
   -362359.99249   -281648.40147  21942466.7164   21942461.9384
      1184.7504
    741213.22149    557115.92547  21527655.0754   21527650.4664
     -2475.8594
   1024595.30849    772160.60546  23864504.4034   23864503.6224
     -4214.5474
    741856.81149    556179.90046  24139425.5834   24139419.6654
     -3049.0164
    649194.62349    494155.14647  23222300.9274   23222294.8684
     -2655.2504
   -492640.65849   -374160.04547  21608313.7244   21608309.7904
      1835.6564
 04  9 17 14 49 45.0010000  0  7G 1G11G14G15G19G22G25
   -512652.54849   -395137.24947  21891640.3414   21891636.9854
      1678.5164
   -380067.24249   -295446.27247  21939097.4584   21939092.4744
      1176.1564
    778382.90649    586079.30347  21534728.3804   21534723.4194
     -2480.1254
   1087835.28849    821438.43646  23876539.0054   23876537.5794
     -4217.5624
    787613.25949    591834.26046  24148132.8724   24148127.2164
     -3051.9374
    689046.38949    525208.45247  23229884.1144   23229878.4074
     -2658.3594
   -520116.85249   -395570.05647  21603084.8254   21603081.0134
      1827.8914
 04  9 17 14 50  0.0010000  0  7G 1G11G14G15G19G22G25
   -537785.21749   -414721.14547  21886857.3024   21886853.5444
      1672.4384
   -397644.50749   -309142.84747  21935752.3024   21935747.4074
      1167.3284
    815618.38249    615093.93147  21541814.2944   21541808.8174
     -2484.6874
   1151120.46249    870751.49846  23888582.3024   23888580.8104
     -4220.7194
    833415.35149    627524.18346  24156849.2244   24156843.3494
     -3055.3444
    728947.64549    556300.27647  23237477.5524   23237471.3254
     -2661.8914
   -547476.42549   -416889.20647  21597879.1144   21597874.6614
      1819.9694
 04  9 17 14 50 15.0010000  0  7G 1G11G14G15G19G22G25
   -562831.49749   -434237.73647  21882091.0674   21882087.4274
      1666.7194
   -415093.09449   -322739.17147  21932431.8414   21932426.8104
      1158.8594
    852917.83949    644158.43147  21548911.5674   21548906.8294
     -2488.8754
   1214448.93149    920098.30446  23900633.2554   23900631.6574
     -4223.3594
    879261.26849    663248.18746  24165572.8804   24165567.1424
     -3058.0164
    768896.83349    587429.49047  23245079.0134   23245073.6814
     -2665.0314
   -574720.86349   -438118.64847  21592694.3174   21592690.3994
      1812.3754
 04  9 17 14 50 30.0010000  0  7G 1G11G14G15G19G22G25
   -587793.07049   -453688.31247  21877341.5754   21877337.8294
      1661.3754
   -432414.23949   -336236.17447  21929135.7944   21929130.5564
      1150.5634
    890279.35349    673271.28347  21556021.2714   21556016.3174
     -2492.7344
   1277818.80049    969477.33546  23912691.5914   23912690.2944
     -4226.0314
    925148.98849    699004.86846  24174305.0284   24174299.9234
     -3060.5944
    808892.35049    618594.79347  23252690.2314   23252684.7824
     -2667.7504
   -601851.64549   -459259.51147  21587531.4894   21587527.5214
      1804.9844
 04  9 17 14 50 45.0010000  0  7G 1G11G14G15G19G22G25
   -612674.00949   -473076.04847  21872606.7784   21872602.9934
      1655.8284
   -449611.99049   -349637.02547  21925863.3804   21925858.4784
      1142.1414
    927698.62049    702429.15047  21563142.1304   21563137.2634
     -2496.8284
   1341225.58649   1018885.17046  23924757.9274   23924756.2864
     -4228.5624
    971073.91149    734790.46946  24183044.0754   24183038.9354
     -3063.2194
    848929.95249    649792.91147  23260309.4504   23260303.4814
     -2670.7344
   -628872.53349   -480314.74247  21582389.1614   21582385.5484
      1797.5314
 04  9 17 14 51  0.0010000  0  7G 1G11G14G15G19G22G25
   -637471.57649   -492398.83147  21867887.6614   21867884.2714
      1650.5474
   -466683.53649   -362939.53747  21922614.5364   21922610.1224
      1134.0634
    965178.04449    731633.88947  21570273.9194   21570268.9464
     -2500.5624
   1404671.75549   1068323.66446  23936831.3644   23936829.8994
     -4231.0004
   1017038.47149    770606.99946  24191791.3804   24191786.0324
     -3065.4694
    889012.36749    681025.91847  23267936.3884   23267931.1964
     -2673.4844
   -655780.75749   -501282.18147  21577269.1144   21577265.0714
      1790.2814
 04  9 17 14 51 15.0010000  0  7G 1G11G14G15G19G22G25
   -662190.95949   -511660.69047  21863184.1224   21863180.8924
      1645.0474
   -483633.81849   -376147.55947  21919389.3564   21919384.0174
      1125.6094
   1002712.27849    760881.32347  21577416.7554   21577411.7784
     -2504.4534
   1468151.85849   1117788.59746  23948910.9584   23948910.2904
     -4233.4224
   1063036.96049    806449.94046  24200544.0444   24200539.6734
     -3068.0474
    929134.25949    712289.71847  23275572.0754   23275565.6774
     -2676.4694
   -682581.23849   -522165.67247  21572168.7714   21572165.1464
      1782.8134
 04  9 17 14 51 30.0010000  0  7G 1G11G14G15G19G22G25
   -686828.75049   -530858.96147  21858495.5754   21858491.8064
      1640.0164
   -500459.33249   -389258.35647  21916187.4194   21916182.0564
      1117.7814
   1040304.54349    790173.98847  21584570.3334   21584565.3724
     -2507.8914
   1531668.88449   1167282.32046  23960998.4974   23960996.9464
     -4235.4534
   1109072.32049    842321.60546  24209304.6854   24209299.3254
     -3069.9534
    969299.19849    743587.03347  23283214.6924   23283208.8724
     -2678.9374
   -709270.28249   -542962.31447  21567090.2394   21567086.2244
      1775.7344
 04  9 17 14 51 45.0010000  0  7G 1G11G14G15G19G22G25
   -711387.29649   -549995.49447  21853821.9034   21853818.7594
      1634.4694
   -517162.18649   -402273.57747  21913008.7164   21913004.2784
      1109.2664
   1077952.13049    819509.75347  21591734.7864   21591729.5404
     -2511.8284
   1595220.29749   1216802.83346  23973091.3884   23973090.4744
     -4238.1414
   1155141.94949    878219.99046  24218070.9814   24218066.8254
     -3072.6254
   1009504.87249    774916.08347  23290865.6924   23290859.7904
     -2681.8594
   -735850.00749   -563673.79347  21562032.5914   21562028.5914
      1768.2194
 04  9 17 14 52  0.0010000  0  7G 1G11G14G15G19G22G25
   -735866.74449   -569070.37247  21849163.8724   21849160.5134
      1629.2194
   -533742.29149   -415193.15147  21909853.7164   21909848.8804
      1101.1254
   1115654.70149    848888.37447  21598908.5914   21598903.8644
     -2515.5004
   1658805.54849   1266349.74946  23985191.8334   23985189.9584
     -4240.2814
   1201245.18249    914144.54046  24226844.7864   24226839.4424
     -3074.6874
   1049750.95149    806276.66147  23298523.7474   23298518.7044
     -2684.4694
   -762320.25949   -584299.95347  21556995.3964   21556991.2394
      1760.9534
 04  9 17 14 52 15.0010000  0  7G 1G11G14G15G19G22G25
   -760263.51149   -588080.84947  21844520.9424   21844518.0324
      1623.6254
   -550195.99749   -428014.22447  21906723.0134   21906717.7434
      1092.6724
   1153415.54049    878312.38447  21606094.7164   21606089.6344
     -2519.4064
   1722427.95849   1315925.53046  23997298.7004   23997297.2744
     -4242.7504
   1247385.16949    950097.73246  24235624.9274   24235619.3724
     -3077.3124
   1090040.92949    837671.39847  23306191.4424   23306185.6384
     -2687.4844
   -788677.44249   -604838.01647  21551979.6694   21551975.7944
      1753.3284
 04  9 17 14 52 30.0010000  0  7G 1G11G14G15G19G22G25
   -784579.84749   -607028.64447  21839893.9664   21839890.3064
      1618.4384
   -566525.16049   -440738.25547  21903615.3414   21903610.7824
      1084.4844
   1191232.28049    907779.96647  21613290.9194   21613286.1924
     -2522.9694
   1786084.86849   1365528.33446  24009412.1694   24009411.2394
     -4244.9534
   1293559.34649    986077.60147  24244411.6854   24244406.5954
     -3079.3284
   1130372.64149    869098.67147  23313865.4894   23313859.9234
     -2690.1254
   -814923.34949   -625289.36647  21546985.0444   21546981.1034
      1745.9844
 04  9 17 14 52 45.0010000  0  7G 1G11G14G15G19G22G25
   -808818.51149   -625915.90747  21835281.3334   21835278.2314
      1613.7814
   -582732.53949   -453367.39147  21900531.1924   21900526.4744
      1076.9064
   1229101.75149    937288.63648  21620496.9584   21620492.3534
     -2525.9694
   1849773.18549   1415155.49746  24021531.3494   24021530.0564
     -4246.4844
   1339764.53249   1022081.59746  24253203.5674   24253198.9784
     -3080.9374
   1170743.21149    900556.24947  23321547.9584   23321542.5674
     -2692.1874
   -841060.71049   -645656.13447  21542011.3964   21542007.3684
      1739.2664
 04  9 17 14 53  0.0010000  0  7G 1G11G14G15G19G22G25
   -832982.58249   -644745.05347  21830683.2474   21830679.6534
      1608.1724
   -598821.06249   -465903.90347  21897469.6464   21897464.7864
      1068.3444
   1267020.61149    966835.78847  21627712.9034   21627708.2394
     -2529.7504
   1913489.57949   1464804.58246  24033656.6224   24033655.8134
     -4248.9534
   1385997.30349   1058107.07846  24262002.0914   24261996.5714
     -3083.3284
   1211149.55749    932041.68247  23329237.3334   23329232.0214
     -2695.1414
   -867092.31049   -665940.48547  21537057.6774   21537053.6184
      1731.7034
 04  9 17 14 53 15.0010000  0  7G 1G11G14G15G19G22G25
   -857068.69349   -663513.44747  21826099.9114   21826096.1884
      1602.7664
   -614787.22049   -478345.07447  21894431.7784   21894426.4854
      1059.9384
   1304992.08149    996423.92947  21634938.8334   21634933.9274
     -2533.6094
   1977237.21749   1514477.98146  24045787.0604   24045785.7744
     -4251.2194
   1432260.50649   1094156.28946  24270806.7944   24270800.7474
     -3085.5474
   1251595.10649    963557.65747  23336933.9274   23336928.4704
     -2698.0164
   -893014.56149   -686139.64048  21532124.8884   21532120.6814
      1724.0784
 04  9 17 14 53 30.0010000  0  7G 1G11G14G15G19G22G25
   -881076.26749   -682220.64147  21821531.0674   21821527.5404
      1598.0634
   -630630.32849   -490690.35047  21891416.6614   21891412.0364
      1052.2814
   1343016.42349   1026053.28347  21642174.1694   21642169.3844
     -2536.5474
   2041016.24749   1564175.85946  24057924.1384   24057922.7314
     -4252.8444
   1478554.36849   1130229.40546  24279615.4424   24279609.6854
     -3087.1094
   1292080.34249    995104.55947  23344638.1614   23344632.9034
     -2700.0474
   -918826.67049   -706252.97147  21527212.9814   21527209.0754
      1717.2974
 04  9 17 14 53 45.0010000  0  7G 1G11G14G15G19G22G25
   -905009.12749   -700869.61747  21816977.1614   21816973.5914
      1593.1414
   -646353.92849   -502942.50747  21888424.7004   21888419.5134
      1044.4534
   1381089.71249   1055720.77247  21649419.4504   21649414.9854
     -2539.7194
   2104822.34949   1613894.84146  24070065.7714   24070064.6814
     -4254.5164
   1524874.60349   1166323.07346  24288429.6304   24288424.5244
     -3088.7504
   1332601.35149   1026679.37547  23352349.1534   23352343.4194
     -2702.4844
   -944532.23149   -726283.26248  21522321.5604   21522317.6064
      1710.2974
 04  9 17 14 54  0.0010000  0  7G 1G11G14G15G19G22G25
   -928865.89649   -719459.31447  21812437.3414   21812433.5244
      1588.0784
   -661956.49349   -515100.36547  21885455.4814   21885450.4424
      1036.2504
   1419212.90449   1085427.12348  21656674.0134   21656669.4504
     -2543.0624
   2168656.68449   1663635.77046  24082213.2864   24082212.4784
     -4256.3124
   1571222.13749   1202437.98246  24297249.5214   24297243.8134
     -3090.6094
   1373159.48149   1058283.07147  23360066.8174   23360061.3294
     -2704.8914
   -970129.74849   -746229.38648  21517450.3174   21517446.3534
      1703.0944
 04  9 17 14 54 15.0010000  0  7G 1G11G14G15G19G22G25
   -952644.39349   -737988.00247  21807912.4894   21807908.7784
      1582.8134
   -677435.72149   -527162.11047  21882509.7084   21882504.6224
      1027.9844
   1457388.09049   1115174.02148  21663938.6384   21663934.1924
     -2546.6564
   2232521.23049   1713400.32246  24094367.4114   24094365.4464
     -4258.5944
   1617598.81549   1238575.62946  24306074.1304   24306068.6034
     -3092.5474
   1413757.04749   1089917.51747  23367792.6464   23367787.1224
     -2707.6874
   -995616.72549   -766089.35748  21512600.3884   21512596.2004
      1695.5784
 04  9 17 14 54 30.0010000  0  7G 1G11G14G15G19G22G25
   -976346.57049   -756457.23547  21803402.0364   21803398.1464
      1577.6254
   -692793.35749   -539129.09847  21879587.2864   21879583.0364
      1019.8594
   1495612.96649   1144959.62548  21671212.9354   21671208.0284
     -2549.9224
   2296413.57649   1763186.51146  24106525.2864   24106523.9424
     -4260.3284
   1664002.28049   1274734.15946  24314904.8804   24314899.3804
     -3094.4694
   1454391.98549   1121581.06947  23375525.2314   23375519.5604
     -2710.2034
  -1020994.88049   -785864.54247  21507770.6694   21507766.9194
      1688.2664
 04  9 17 14 54 45.0010000  0  7G 1G11G14G15G19G22G25
   -999973.24249   -774867.62347  21798906.0834   21798902.2864
      1572.5164
   -708029.99349   -551001.80647  21876688.3494   21876683.1224
      1011.6564
   1533886.53249   1174783.17248  21678496.2474   21678491.5874
     -2553.2664
   2360332.69249   1812993.55946  24118688.5054   24118687.6144
     -4262.2664
   1710431.40349   1310912.63046  24323740.0524   24323734.7944
     -3096.2344
   1495063.33349   1153273.01447  23383264.3414   23383259.1144
     -2712.7194
  -1046264.84749   -805555.42348  21502962.4814   21502958.1264
      1680.9224
 04  9 17 14 55  0.0010000  0  6G 1G11G14G15G22G25
  -1023521.75449   -793217.11747  21794424.9034   21794421.0094
      1567.3754
   -723142.95749   -562778.15747  21873812.2634   21873807.4384
      1003.5314
   1572211.19049   1204646.53248  21685789.3884   21685784.3604
     -2556.5944
   2424280.79349   1862823.18246  24130857.5444   24130855.7284
     -4263.9534
   1535773.82949   1184995.42847  23391011.1464   23391006.0134
     -2715.2664
  -1071423.76949   -825159.75948  21498174.3724   21498170.2864
      1673.6564
 04  9 17 14 55 15.0010000  0  6G 1G11G14G15G22G25
  -1046994.13649   -811507.28447  21789958.5134   21789955.0604
      1562.2974
   -738134.07349   -574459.54947  21870959.5914   21870954.4464
       995.3754
   1610584.67449   1234547.93048  21693091.1464   21693086.1924
     -2559.8124
   2488255.66649   1912673.66246  24143032.2554   24143030.5094
     -4265.9064
   1576521.37249   1216746.73047  23398765.2084   23398759.8104
     -2717.6414
  -1096473.48049   -844679.01848  21493407.9814   21493404.1654
      1666.3444
 04  9 17 14 55 30.0010000  0  7G 1G11G14G15G20G22G25
  -1070390.67949   -829738.35947  21785506.3254   21785502.5284
      1557.1414
   -753003.41249   -586046.05547  21868130.0674   21868125.2634
       987.1414
   1649006.46249   1264486.97848  21700402.7244   21700398.1184
     -2563.1874
   2552256.68449   1962544.50646  24155211.1694   24155210.2904
     -4267.6254
    -87637.89159    -56949.76456  24355913.7004   24355909.2744
      2580.5004
   1617305.76149   1248526.73147  23406526.2394   23406521.4664
     -2720.3284
  -1121414.07249   -864113.24748  21488661.9744   21488657.8764
      1658.9844
 04  9 17 14 55 45.0010000  0  7G 1G11G14G15G20G22G25
  -1093712.25949   -847911.01548  21781068.2474   21781064.5564
      1552.3284
   -767751.73749   -597538.25547  21865323.5364   21865318.3884
       979.1884
   1687475.36849   1294462.73748  21707722.9664   21707718.2714
     -2566.0944
   2616282.57949   2012434.75446  24167394.5834   24167393.1424
     -4269.0944
   -126350.11849    -87115.22546  24348546.0754   24348541.8454
      2580.9384
   1658125.92449   1280334.62647  23414293.8564   23414288.6224
     -2722.5004
  -1146246.20449   -883462.94448  21483936.3174   21483932.1734
      1651.9384
 04  9 17 14 56  0.0010000  0  7G 1G11G14G15G20G22G25
  -1116960.29449   -866026.37648  21776644.1774   21776640.4854
      1547.4534
   -782380.20449   -608937.07347  21862539.9274   21862534.4894
       971.2664
   1725989.82249   1324473.97448  21715052.3494   21715047.6574
     -2569.0784
   2680331.71049   2062343.11046  24179582.1064   24179581.4584
     -4270.7344
   -165066.83349   -117284.04646  24341179.5524   24341174.9074
      2581.3754
   1698980.53549   1312169.35347  23422068.5284   23422063.3294
     -2724.8284
  -1170970.99249   -902729.01748  21479231.3804   21479227.5604
      1644.7344
 04  9 17 14 56 15.0010000  0  7G 1G11G14G15G20G22G25
  -1140134.34849   -884084.06147  21772234.0524   21772230.5834
      1542.6414
   -796888.22449   -620242.01847  21859778.8414   21859773.7904
       963.3134
   1764550.08649   1354520.93048  21722389.7714   21722385.2204
     -2572.0624
   2744404.14949   2112269.61246  24191774.7554   24191773.7044
     -4272.1414
   -203787.42749   -147455.90646  24333810.5284   24333806.3134
      2581.5004
   1739869.98349   1344031.26147  23429849.6224   23429844.1884
     -2727.0474
  -1195587.74849   -921910.89348  21474547.0284   21474543.2084
      1637.6414
 04  9 17 14 56 30.0010000  0  6G 1G11G14G20G22G25
  -1163233.06749   -902083.06548  21767838.8174   21767834.7714
      1537.3754
   -811274.41349   -631452.03947  21857041.3564   21857036.2784
       954.9064
   1803157.21849   1384604.40348  21729736.3494   21729731.5564
     -2575.4534
   -242510.60049   -177629.84846  24326441.7394   24326437.7634
      2581.3914
   1780795.59949   1375921.32447  23437637.7394   23437631.5564
     -2729.6564
  -1220094.96549   -941007.41548  21469883.3644   21469879.2434
      1630.0634
 04  9 17 14 56 45.0010000  0  6G 1G11G14G20G22G25
  -1186255.52449   -920022.65448  21763457.8104   21763453.7314
      1531.9384
   -825537.67549   -642566.28948  21854327.3334   21854321.8024
       946.3914
   1841811.96049   1414724.95148  21737092.2784   21737087.3604
     -2578.9064
   -281235.44649   -207805.02446  24319072.7554   24319068.1854
      2581.5474
   1821758.23849   1407840.21447  23445432.2084   23445426.7904
     -2732.4534
  -1244491.58049   -960017.77048  21465240.9194   21465236.6964
      1622.3914
 04  9 17 14 57  0.0010000  0  6G 1G11G14G20G22G25
  -1209199.59649   -937901.14748  21759091.3724   21759088.1184
      1527.0634
   -839675.61249   -653582.86647  21851636.9194   21851631.7824
       938.4694
   1880516.03049   1444883.96348  21744457.3024   21744452.6464
     -2581.7974
   -319959.67049   -237979.71846  24311703.4664   24311699.1734
      2581.7504
   1862760.00849   1439789.61047  23453234.8494   23453229.6034
     -2734.6414
  -1268775.25549   -978940.09948  21460619.7784   21460615.5244
      1615.2664
 04  9 17 14 57 15.0010000  0  6G 1G11G14G20G22G25
  -1232067.95749   -955720.64748  21754739.8804   21754736.1344
      1521.8134
   -853690.79149   -664503.78948  21848969.9814   21848965.0754
       930.1094
   1919266.49349   1475079.12448  21751831.3104   21751826.4274
     -2585.0314
   -358685.89849   -268155.99346  24304334.1464   24304329.7044
      2581.7034
   1903798.21449   1471767.40447  23461044.0834   23461038.9384
     -2737.2034
  -1292948.59049   -997776.46548  21456019.9814   21456016.1104
      1607.7504
 04  9 17 14 57 30.0010000  0  6G 1G11G14G20G22G25
  -1254860.08549   -973480.74548  21750402.9504   21750399.1144
      1516.9844
   -867582.53849   -675328.53648  21846326.4894   21846321.1734
       922.0634
   1958063.77049   1505310.75448  21759214.4034   21759209.4154
     -2587.9694
   -397413.52349   -298333.39546  24296964.4894   24296960.3134
      2581.9844
   1944873.31049   1503773.95147  23468860.8644   23468855.3924
     -2739.5164
  -1317010.67849  -1016526.14348  21451441.1924   21451437.1224
      1600.5164
 04  9 17 14 57 45.0010000  0  6G 1G11G14G20G22G25
  -1277577.15249   -991182.36148  21746079.7084   21746075.9894
      1512.0314
   -881351.88249   -686057.90548  21843705.9664   21843700.9274
       913.9064
   1996906.46749   1535577.77248  21766606.0834   21766601.1494
     -2590.9694
   -436143.58349   -328512.62946  24289594.2784   24289590.0604
      2582.2194
   1985984.14049   1535808.31347  23476683.8334   23476678.7044
     -2741.8444
  -1340962.46749  -1035189.87448  21446883.3174   21446878.8374
      1593.2344
 04  9 17 14 58  0.0010000  0  6G 1G11G14G20G22G25
  -1300222.58349  -1008828.13948  21741770.5674   21741766.9314
      1507.1724
   -895002.10249   -696694.43748  21841108.9274   21841103.4544
       905.9534
   2035790.94149   1565877.35848  21774005.3104   21774000.4584
     -2593.7034
   -474879.35049   -358696.30546  24282222.9894   24282219.2714
      2582.5004
   2027127.28049   1567867.87947  23484513.0994   23484507.6854
     -2744.0004
  -1364807.13249  -1053770.12448  21442345.3644   21442342.0794
      1586.0164
 04  9 17 14 58 15.0010000  0  6G 1G11G14G20G22G25
  -1322793.55349  -1026415.89548  21737475.2944   21737471.5174
      1502.0164
   -908530.23949   -707235.84248  21838534.2944   21838529.1224
       897.5634
   2074719.68349   1596211.43448  21781412.9744   21781408.4744
     -2597.0164
   -513618.00849   -388882.31746  24274852.3564   24274847.6424
      2582.3914
   2068305.51049   1599954.77947  23492349.3254   23492344.1654
     -2746.6094
  -1388541.67849  -1072264.56548  21437828.9424   21437824.8564
      1578.3594
 04  9 17 14 58 30.0010000  0  6G 1G11G14G20G22G25
  -1345290.08449  -1043945.67648  21733194.7714   21733191.0524
      1497.2194
   -921936.22149   -717682.07148  21835983.2244   21835978.1224
       889.6414
   2113692.58049   1626579.91648  21788829.3884   21788824.7944
     -2599.7344
   -552359.45549   -419070.43946  24267478.9354   24267475.0914
      2582.8754
   2109518.85549   1632069.04747  23500191.8804   23500186.6384
     -2748.7344
  -1412165.99949  -1090673.12548  21433333.4354   21433329.6344
      1571.2034
 04  9 17 14 58 45.0010000  0  6G 1G11G14G20G22G25
  -1367712.29949  -1061417.52748  21728927.6464   21728923.7124
      1492.2344
   -935220.01849   -728033.09948  21833455.2164   21833449.8844
       881.3444
   2152709.29949   1656982.53948  21796253.8804   21796249.0604
     -2602.6724
   -591103.78149   -449260.78746  24260106.7714   24260102.1304
      2582.9534
   2150767.09149   1664210.49647  23508041.3804   23508035.8294
     -2751.2034
  -1435679.88949  -1108995.64248  21428859.2474   21428855.3064
      1563.7814
 04  9 17 14 59  0.0010000  0  6G 1G11G14G20G22G25
  -1390058.70649  -1078830.31148  21724675.4664   21724671.7864
      1487.2194
   -948379.75949   -738287.43248  21830951.2244   21830945.6574
       873.0944
   2191771.01749   1687420.23348  21803687.1534   21803682.7714
     -2605.5944
   -629849.36649   -479452.14746  24252733.7084   24252729.5014
      2583.1884
   2192051.76449   1696380.35547  23515897.2314   23515891.9464
     -2753.5474
  -1459081.76849  -1127230.85648  21424405.3804   21424401.5324
      1556.2814
 04  9 17 14 59 15.0010000  0  6G 1G11G14G20G22G25
  -1412328.68849  -1096183.54348  21720437.3644   21720433.9384
      1482.2194
   -961414.71549   -748444.55748  21828470.5604   21828465.0754
       864.9384
   2230878.13549   1717893.30148  21811128.8494   21811123.9744
     -2608.4534
   -668595.48449   -509643.95046  24245360.2714   24245356.3174
      2583.1724
   2233373.38349   1728578.99147  23523760.8024   23523755.6774
     -2755.8124
  -1482370.77049  -1145378.12448  21419974.0524   21419969.8764
      1548.9384
 04  9 17 14 59 30.0010000  0  6G 1G11G14G20G22G25
  -1434526.10749  -1113480.24148  21716213.6774   21716209.7284
      1477.2664
   -974328.67449   -758507.39347  21826013.2164   21826007.9624
       856.6884
   2270026.60449   1748398.58247  21818579.0834   21818574.7394
     -2611.4224
   -707345.95249   -539839.14347  24237987.2554   24237981.8334
      2583.3284
   2274728.08549   1760803.40347  23531630.1384   23531624.9384
     -2758.2344
  -1505550.52149  -1163440.27648  21415562.8254   21415559.1064
      1541.4694
 04  9 17 14 59 45.0010000  0  6G 1G11G14G20G22G25
  -1456649.00549  -1130718.85448  21712003.4424   21711999.9234
      1472.3594
   -987119.52649   -768474.28948  21823579.5914   21823574.4154
       848.6724
   2309218.02249   1778937.34948  21826036.6384   21826032.3684
     -2614.1564
   -746098.83149   -570036.17747  24230612.1614   24230608.8454
      2583.6254
   2316117.72049   1793055.03047  23539506.6924   23539500.9934
     -2760.4534
  -1528618.92049  -1181415.64548  21411173.0364   21411169.0244
      1534.2194
 04  9 17 15  0  0.0010000  0  6G 1G11G14G20G22G25
  -1478698.57349  -1147900.33648  21707807.4744   21707803.7904
      1467.4844
   -999788.28949   -778346.06248  21821168.5134   21821163.4974
       840.4534
   2348451.19449   1809508.63648  21833502.5754   21833497.8964
     -2616.9844
   -784855.04249   -600235.79946  24223236.8174   24223233.2164
      2583.8134
   2357541.19549   1825333.04047  23547388.7314   23547383.7474
     -2762.7194
  -1551577.02949  -1199305.07648  21406804.3414   21406800.5014
      1526.8284
 04  9 17 15  0 15.0010000  0  6G 1G11G14G20G22G25
  -1500672.26749  -1165022.69048  21703625.9034   21703622.5214
      1462.2664
  -1012332.45149   -788120.74048  21818781.4504   21818776.5564
       832.0314
   2387728.26249   1840114.13348  21840976.8494   21840971.8994
     -2620.0314
   -823612.00049   -630436.02247  24215861.9664   24215858.0174
      2583.8134
   2399000.99249   1857639.34047  23555278.6384   23555273.6494
     -2765.2344
  -1574421.99849  -1217106.35048  21402457.0994   21402453.1064
      1519.1254
 04  9 17 15  0 30.0010000  0  6G 1G11G14G20G22G25
  -1522569.44349  -1182085.40848  21699458.9814   21699455.8724
      1457.3754
  -1024751.02549   -797797.55348  21816418.3884   21816412.9544
       823.7504
   2427049.73849   1870754.23248  21848459.5134   21848455.0094
     -2622.8124
   -862368.89349   -660636.19647  24208486.8724   24208482.4894
      2583.9694
   2440497.75049   1889974.44347  23563174.9744   23563169.6144
     -2767.5944
  -1597153.00549  -1234818.81548  21398131.7784   21398128.2864
      1511.6884
 04  9 17 15  0 45.0010000  0  6G 1G11G14G20G22G25
  -1544391.78149  -1199089.84048  21695306.5674   21695303.0134
      1452.4694
  -1037045.43949   -807377.63448  21814078.4974   21814073.2904
       815.5944
   2466413.72149   1901427.45248  21855950.2244   21855945.2314
     -2625.5164
   -901127.37049   -690837.62546  24201110.7714   24201106.6384
      2584.1094
   2482029.81949   1922337.07547  23571077.8964   23571073.0364
     -2769.8594
  -1619771.47349  -1252443.58848  21393827.7714   21393823.6854
      1504.2034
 04  9 17 15  1  0.0010000  0  6G 1G11G14G20G22G25
  -1566140.45049  -1216036.84748  21691167.9274   21691164.4464
      1447.4844
  -1049216.89249   -816861.88648  21811762.5364   21811757.4974
       807.3284
   2505818.86149   1932132.74348  21863448.4894   21863443.5134
     -2628.3284
   -939888.59449   -721041.20146  24193735.5754   24193730.9974
      2584.2504
   2523595.97849   1954726.25347  23578988.0674   23578982.6574
     -2772.2344
  -1642278.46549  -1269981.50348  21389544.4114   21389540.9194
      1496.7344
 04  9 17 15  1 15.0010000  0  6G 1G11G14G20G22G25
  -1587814.36749  -1232925.61148  21687043.4894   21687039.8294
      1442.4224
  -1061264.09649   -826249.32248  21809470.1144   21809465.1304
       798.9694
   2545266.01149   1962870.77848  21870954.8964   21870950.5484
     -2631.2344
   -978651.26349   -751245.87046  24186358.9194   24186354.0244
      2584.1724
   2565197.29649   1987142.82547  23586904.3964   23586899.0794
     -2774.6254
  -1664672.61049  -1287431.49248  21385283.2164   21385278.7824
      1489.1254
 04  9 17 15  1 30.0010000  0  6G 1G11G14G20G22G25
  -1609414.23549  -1249756.66548  21682933.1854   21682929.3964
      1437.6254
  -1073187.56249   -835540.34548  21807200.9194   21807196.1384
       790.8914
   2584754.16449   1993640.75548  21878469.6924   21878464.7744
     -2633.8284
  -1017416.05249   -781452.19946  24178982.4424   24178977.3604
      2584.5164
   2606833.02049   2019586.23947  23594827.6224   23594822.5134
     -2776.7974
  -1686954.28349  -1304793.82448  21381042.9354   21381038.8174
      1481.7504
 04  9 17 15  1 45.0010000  0  6G 1G11G14G20G22G25
  -1630941.59649  -1266531.23448  21678836.4114   21678832.6574
      1432.7344
  -1084988.69649   -844736.04448  21804955.3104   21804950.2904
       782.7194
   2624281.63249   2024441.36148  21885991.1774   21885986.8254
     -2636.4224
  -1056184.41949   -811661.31646  24171604.7634   24171599.9424
      2584.6884
   2648501.62249   2052055.25547  23602756.8104   23602751.5604
     -2778.9844
  -1709124.93549  -1322069.65448  21376824.1064   21376819.9154
      1474.3754
 04  9 17 15  2  0.0010000  0  6G 1G11G14G20G22G25
  -1652395.80249  -1283248.79348  21674753.7474   21674750.0994
      1427.7664
  -1096666.53649   -853835.65948  21802733.1694   21802727.8534
       774.3444
   2663848.79849   2055272.91948  21893520.7634   21893516.1264
     -2639.1874
  -1094955.53449   -841872.56547  24164226.7474   24164222.1344
      2584.7664
   2690203.68649   2084550.31647  23610692.3564   23610687.3724
     -2781.3444
  -1731183.90649  -1339258.45248  21372626.3564   21372622.2554
      1466.7344
 04  9 17 15  2 15.0010000  0  6G 1G11G14G20G22G25
  -1673776.12849  -1299908.77848  21670685.6614   21670682.1924
      1422.6254
  -1108220.56949   -862838.80848  21800534.5994   21800529.5674
       765.9384
   2703456.27049   2086135.87048  21901057.7634   21901052.8764
     -2642.0164
  -1133728.63349   -872085.31347  24156848.5604   24156843.9624
      2584.7974
   2731939.92549   2117072.04347  23618634.5754   23618629.5794
     -2783.7194
  -1753130.10249  -1356359.38848  21368450.4664   21368446.5994
      1459.1414
 04  9 17 15  2 30.0010000  0  6G 1G11G14G20G22G25
  -1695080.09749  -1316509.27348  21666631.4974   21666627.9784
      1417.6414
  -1119648.15049   -871743.42848  21798359.9814   21798355.2944
       757.5164
   2743106.25649   2117031.94448  21908603.2314   21908598.4624
     -2644.8284
  -1172501.11749   -902297.67146  24149469.8644   24149465.6574
      2584.7344
   2773712.88049   2149622.37147  23626583.9114   23626578.1924
     -2786.2344
  -1774960.89749  -1373370.39848  21364295.7314   21364291.9424
      1451.4384
 04  9 17 15  2 45.0010000  0  6G 1G11G14G20G22G25
  -1716309.00949  -1333051.28148  21662591.8724   21662588.3294
      1412.8754
  -1130950.21349   -880550.24148  21796209.1614   21796204.1184
       749.3754
   2782797.23549   2147959.96248  21916155.9194   21916151.6034
     -2647.3284
  -1211274.13849   -932510.43647  24142092.4974   24142087.6424
      2585.0314
   2815521.18949   2182200.24047  23634539.9194   23634534.8494
     -2788.2344
  -1796677.19749  -1390292.18648  21360163.8104   21360159.3724
      1444.0004
 04  9 17 15  3  0.0010000  0  6G 1G11G14G20G22G25
  -1737464.71449  -1349536.25348  21658566.1924   21658562.3454
      1407.8914
  -1142128.39549   -889260.52448  21794082.1534   21794077.1344
       741.0004
   2822527.15749   2178918.33148  21923716.2714   21923711.1424
     -2649.9694
  -1250049.34749   -962724.84046  24134713.7784   24134708.7084
      2585.0004
   2857363.01749   2214804.22347  23642501.6774   23642496.7474
     -2790.6094
  -1818280.83349  -1407126.19048  21356052.2554   21356048.5714
      1436.4064
 04  9 17 15  3 15.0010000  0  6G 1G11G14G20G22G25
  -1758547.26249  -1365964.19148  21654554.0754   21654550.3414
      1403.0944
  -1153182.72049   -897874.28148  21791978.3564   21791973.5134
       732.8754
   2862295.78749   2209906.86448  21931284.2314   21931279.8174
     -2652.5474
  -1288826.85249   -992941.07946  24127334.3494   24127329.5604
      2585.1414
   2899238.24749   2247434.23147  23650470.0994   23650465.2394
     -2792.7504
  -1839771.63049  -1423872.26448  21351962.6224   21351958.7714
      1428.9694
 04  9 17 15  3 30.0010000  0  6G 1G11G14G20G22G25
  -1779556.28449  -1382334.85748  21650556.4034   21650552.6464
      1398.0944
  -1164112.77349   -906391.22248  21789898.7554   21789894.1534
       724.4534
   2902103.22249   2240925.63048  21938859.1064   21938854.8534
     -2655.1724
  -1327606.19449  -1023158.72047  24119954.5524   24119950.6224
      2585.2814
   2941147.24449   2280090.55047  23658446.2084   23658440.9354
     -2795.0624
  -1861149.09749  -1440530.03348  21347894.6614   21347891.0054
      1421.4064
 04  9 17 15  3 45.0010000  0  6G 1G11G14G20G22G25
  -1800491.85149  -1398648.28848  21646572.2394   21646568.4034
      1393.1414
  -1174918.39749   -914811.19448  21787842.8174   21787837.3214
       716.1884
   2941949.22749   2271974.44948  21946441.7004   21946436.8374
     -2657.7344
  -1366387.38849  -1053377.82147  24112575.1534   24112570.7084
      2585.3754
   2983089.89349   2312773.09847  23666427.3494   23666421.9154
     -2797.3914
  -1882413.03649  -1457099.32948  21343848.5284   21343844.3334
      1413.7194
 04  9 17 15  4  0.0010000  0  6G 1G11G14G20G22G25
  -1821354.36849  -1414904.79348  21642602.4194   21642598.7084
      1388.2974
  -1185599.83849   -923134.40348  21785810.1064   21785804.9664
       707.8444
   2981833.27649   2303052.90747  21954031.0604   21954026.8604
     -2660.3284
  -1405170.60849  -1083598.53047  24105194.9114   24105190.7044
      2585.5784
   3025065.70749   2345481.51447  23674414.5604   23674409.3964
     -2799.6254
  -1903563.72549  -1473580.39248  21339823.7784   21339819.3414
      1406.0944
 04  9 17 15  4 15.0010000  0  6G 1G11G14G20G22G25
  -1842139.08449  -1431100.65948  21638647.1064   21638643.1494
      1383.0944
  -1196152.19349   -931357.02548  21783801.8964   21783796.4544
       699.2344
   3021759.81149   2334164.48448  21961629.0524   21961624.0634
     -2663.1874
  -1443950.94849  -1113816.95547  24097815.0134   24097811.2714
      2585.3594
   3067079.56349   2378219.54447  23682410.0444   23682404.3174
     -2802.0944
  -1924596.12449  -1489969.26348  21335821.4114   21335817.1304
      1398.3284
 04  9 17 15  4 30.0010000  0  6G 1G11G14G20G22G25
  -1862849.76649  -1447238.85448  21634705.8804   21634702.1304
      1378.4534
  -1206579.08949   -939481.88848  21781817.6534   21781812.4314
       691.0634
   3061724.89049   2365306.10348  21969233.8174   21969229.9154
     -2665.5784
  -1482732.04749  -1144035.96047  24090435.0444   24090431.2984
      2585.5784
   3109127.70249   2410984.30647  23690411.2394   23690406.6034
     -2804.2194
  -1945513.85149  -1506268.79048  21331840.9274   21331836.8494
      1390.8284
 04  9 17 15  4 45.0010000  0  6G 1G11G14G20G22G25
  -1883487.77849  -1463320.42648  21630778.8254   21630775.2634
      1373.2974
  -1216881.65049   -947509.85848  21779856.7944   21779851.7944
       682.5784
   3101726.91949   2396476.49748  21976846.0834   21976841.3374
     -2668.2034
  -1521515.28049  -1174256.65547  24083055.3334   24083051.0444
      2585.4694
   3151208.68349   2443774.64347  23698419.5364   23698414.2714
     -2806.6254
  -1966318.01749  -1522479.82648  21327882.0604   21327877.7474
      1382.9844
 04  9 17 15  5  0.0010000  0  6G 1G11G14G20G22G25
  -1904053.82349  -1479345.88948  21626865.0754   21626861.5324
      1368.7034
  -1227060.63849   -955441.53848  21777919.9424   21777915.2284
       674.5164
   3141764.97849   2427674.97448  21984465.5134   21984460.3764
     -2670.3754
  -1560301.15349  -1204479.38547  24075674.3174   24075670.1104
      2585.8594
   3193321.80749   2476590.02147  23706433.2474   23706428.0754
     -2808.5944
  -1987009.17149  -1538602.79548  21323944.7394   21323940.2204
      1375.6884
 04  9 17 15  5 15.0010000  0  6G 1G11G14G20G22G25
  -1924546.11949  -1495313.92748  21622965.4114   21622961.8254
      1363.7194
  -1237114.01649   -963275.34948  21776007.1384   21776001.7244
       666.0314
   3181840.74049   2458902.82448  21992091.3174   21992086.9894
     -2672.9374
  -1599087.84049  -1234702.78547  24068293.8174   24068289.3174
      2585.7344
   3235468.80349   2509431.80247  23714453.2164   23714448.3994
     -2810.9534
  -2007585.42849  -1554636.24448  21320029.2314   21320024.9784
      1367.8754
 04  9 17 15  5 30.0010000  0  6G 1G11G14G20G22G25
  -1944965.69749  -1511225.27248  21619080.1144   21619076.3684
      1358.9064
  -1247042.74349   -971012.03348  21774117.9114   21774113.0324
       657.7814
   3221952.93249   2490159.05948  21999724.7004   21999720.0244
     -2675.3444
  -1637876.21649  -1264927.49047  24060912.4354   24060908.0014
      2586.0314
   3277648.69549   2542299.21547  23722480.3884   23722475.1734
     -2813.1094
  -2028047.47249  -1570580.69348  21316135.3024   21316131.3684
      1360.3284
 04  9 17 15  5 45.0010000  0  6G 1G11G14G20G22G25
  -1965313.82949  -1527080.96148  21615207.9194   21615204.0714
      1353.8754
  -1256847.91449   -978652.42948  21772251.9034   21772246.7004
       649.2664
   3262099.96049   2521442.44448  22007364.4664   22007359.9934
     -2677.9224
  -1676667.45849  -1295154.43447  24053530.4894   24053526.0914
      2585.8754
   3319860.10849   2575191.18047  23730512.6924   23730507.5524
     -2815.4374
  -2048396.49649  -1586437.07448  21312263.1304   21312258.9114
      1352.5784
 04  9 17 15  6  0.0010000  0  6G 1G11G14G20G22G25
  -1985586.81949  -1542878.09448  21611350.0524   21611346.3924
      1349.2814
  -1266525.68849   -986193.55548  21770410.2164   21770405.0834
       641.2344
   3302285.45449   2552755.80848  22015011.5674   22015006.9854
     -2680.0474
  -1715457.63949  -1325380.56647  24046148.9274   24046145.1854
      2586.2344
   3362106.80849   2608110.66847  23738552.0834   23738546.7904
     -2817.3444
  -2068628.47549  -1602202.24648  21308413.1464   21308408.9784
      1345.1564
 04  9 17 15  6 15.0010000  0  6G 1G11G14G20G22G25
  -2005789.81049  -1558620.67448  21607505.3884   21607501.8494
      1344.4224
  -1276081.03749   -993639.29448  21768591.8724   21768586.9354
       632.7974
   3342504.05249   2584094.95948  22022664.9034   22022660.3644
     -2682.5004
  -1754251.80149  -1355609.73647  24038767.1144   24038762.3454
      2586.2194
   3404383.65449   2641053.63047  23746596.7164   23746591.7514
     -2819.5784
  -2088748.43649  -1617880.14648  21304584.0444   21304580.4504
      1337.4534
 04  9 17 15  6 30.0010000  0  6G 1G11G14G20G22G25
  -2025918.69949  -1574305.52148  21603674.9974   21603671.1264
      1339.2814
  -1285509.61749  -1000986.24148  21766797.8564   21766792.6574
       624.2034
   3382759.77449   2615463.04247  22030325.1464   22030320.6464
     -2685.1254
  -1793045.79849  -1385838.81747  24031384.7634   24031380.6774
      2586.1414
   3446694.73949   2674023.26447  23754648.9584   23754643.4814
     -2822.0004
  -2108752.03149  -1633467.34948  21300777.4894   21300773.6614
      1329.5784
 04  9 17 15  6 45.0010000  0  6G 1G11G14G20G22G25
  -2045975.57649  -1589934.26148  21599858.0914   21599854.4664
      1334.7974
  -1294813.48949  -1008236.01848  21765027.3024   21765022.2514
       616.0944
   3423050.19749   2646858.15747  22037992.4504   22037987.3564
     -2687.1414
  -1831841.64949  -1416069.40047  24024002.1464   24023997.3844
      2586.4384
   3489037.92449   2707017.92947  23762706.7554   23762700.9784
     -2823.8594
  -2128641.29149  -1648965.47548  21296992.8564   21296988.5604
      1322.1724
 04  9 17 15  7  0.0010000  0  6G 1G11G14G20G22G25
  -2065959.53449  -1605506.16848  21596055.4034   21596051.6494
      1329.7344
  -1303991.60649  -1015387.80448  21763280.5754   21763275.5284
       607.5474
   3463376.07349   2678280.90648  22045665.9584   22045661.6494
     -2689.6874
  -1870638.30249  -1446300.51647  24016619.2474   24016614.9664
      2586.4064
   3531413.97649   2740038.19647  23770769.9194   23770764.9314
     -2826.2034
  -2148415.14349  -1664373.67048  21293229.9034   21293225.8024
      1314.4064
 04  9 17 15  7 15.0010000  0  6G 1G11G14G20G22G25
  -2085867.86949  -1621019.14748  21592266.8254   21592263.2904
      1324.7034
  -1313041.19849  -1022439.44248  21761558.6064   21761553.3684
       599.0314
   3503739.86249   2709733.19948  22053346.9194   22053342.0214
     -2692.2194
  -1909432.89249  -1476530.07647  24009236.4894   24009232.0014
      2586.1724
   3573825.80449   2773086.32147  23778841.1384   23778835.6464
     -2828.6414
  -2168070.68349  -1679689.67248  21289489.6854   21289485.5214
      1306.4224
 04  9 17 15  7 30.0010000  0  6G 1G11G14G20G22G25
  -2105702.24049  -1636474.49848  21588492.6144   21588488.7944
      1319.7344
  -1321963.77549  -1029392.10348  21759860.7084   21759855.9814
       590.5004
   3544139.81849   2741213.67148  22061035.0604   22061030.2204
     -2694.5624
  -1948226.97349  -1506759.25747  24001855.1224   24001849.8134
      2586.2504
   3616271.60049   2806160.95047  23786918.5524   23786913.0634
     -2830.8754
  -2187609.31449  -1694914.57748  21285771.4584   21285767.6424
      1298.6414
 04  9 17 15  7 45.0010000  0  6G 1G11G14G20G22G25
  -2125460.75749  -1651870.74448  21584732.6064   21584728.7944
      1314.7344
  -1330757.32249  -1036244.22848  21758187.3884   21758182.4894
       581.9064
   3584577.58449   2772723.60648  22068729.9114   22068725.5094
     -2697.0944
  -1987018.46549  -1536986.36747  23994473.2164   23994468.1424
      2585.8914
   3658753.35949   2839263.58747  23795002.1924   23794997.3334
     -2833.3594
  -2207028.88249  -1710046.71348  21282075.5674   21282071.9664
      1290.6414
 04  9 17 15  8  0.0010000  0  6G 1G11G14G20G22G25
  -2145145.12649  -1667209.20848  21580986.8024   21580983.1184
      1309.8134
  -1339423.35349  -1042996.99148  21756538.0754   21756533.5994
       573.4844
   3625051.24849   2804261.51447  22076431.7554   22076427.1814
     -2699.4374
  -2025808.98049  -1567212.73447  23987091.4974   23987086.6104
      2586.0004
   3701269.36949   2872392.89447  23803092.8804   23803087.8134
     -2835.5314
  -2226331.00549  -1725087.32548  21278403.0364   21278398.7674
      1282.8594
 04  9 17 15  8 15.0010000  0  6G 1G11G14G20G22G25
  -2164757.41149  -1682491.50248  21577254.8884   21577251.2634
      1305.1564
  -1347963.80749  -1049651.89548  21754913.0914   21754907.9314
       565.2034
   3665558.59349   2835825.66248  22084140.0364   22084135.2594
     -2701.6094
  -2064600.36049  -1597439.79547  23979709.8104   23979704.4664
      2586.1564
   3743817.53349   2905547.29447  23811189.5364   23811184.2784
     -2837.5624
  -2245517.44049  -1740037.78948  21274752.1064   21274748.0914
      1275.2344
 04  9 17 15  8 30.0010000  0  6G 1G11G14G20G22G25
  -2184296.52949  -1697716.78948  21573536.4974   21573533.2124
      1300.3134
  -1356377.39749  -1056207.95348  21753312.1384   21753307.0524
       556.7664
   3706100.51849   2867416.76147  22091854.9424   22091850.0484
     -2703.7814
  -2103391.45349  -1627666.61547  23972327.5994   23972323.2744
      2586.1884
   3786398.86449   2938727.49747  23819292.4034   23819287.6184
     -2839.7814
  -2264587.05649  -1754897.23348  21271122.9584   21271118.9894
      1267.5314
 04  9 17 15  8 45.0010000  0  6G 1G11G14G20G22G25
  -2203764.28149  -1712886.46348  21569832.0364   21569828.1734
      1295.5474
  -1364665.79649  -1062666.44148  21751734.9744   21751729.6854
       548.4064
   3746675.13249   2899033.33647  22099576.2084   22099571.5714
     -2706.1094
  -2142183.98349  -1657894.55547  23964945.5364   23964940.7314
      2586.2504
   3829011.63049   2971932.23347  23827401.2084   23827396.6064
     -2841.8914
  -2283541.29349  -1769666.75948  21267516.2004   21267511.9974
      1259.7664
 04  9 17 15  9  0.0010000  0  6G 1G11G14G20G22G25
  -2223157.52549  -1727998.08348  21566141.9584   21566138.2124
      1290.4064
  -1372825.75949  -1069024.86648  21750181.8104   21750176.8214
       539.7194
   3787285.14749   2930677.49447  22107303.8174   22107299.1574
     -2708.4064
  -2180974.76349  -1688121.13247  23957563.9584   23957559.3374
      2586.0634
   3871658.89349   3005163.81147  23835516.7714   23835512.1144
     -2844.2504
  -2302377.06549  -1784343.97748  21263931.8964   21263927.4504
      1251.8284
 04  9 17 15  9 15.0010000  0  6G 1G11G14G20G22G25
  -2242477.97249  -1743052.96948  21562465.0054   21562461.3294
      1285.5634
  -1380858.93749  -1075284.48848  21748653.5214   21748648.5754
       531.2664
   3827928.75049   2962347.81047  22115038.2474   22115033.3414
     -2710.6724
  -2219765.21849  -1718347.45647  23950182.6854   23950177.5674
      2585.9844
   3914338.91649   3038420.93147  23843638.8494   23843633.7634
     -2846.4374
  -2321095.73049  -1798929.94548  21260369.6694   21260365.8104
      1243.9224
 04  9 17 15  9 30.0010000  0  6G 1G11G14G20G22G25
  -2261723.69249  -1758049.63848  21558802.7314   21558799.5444
      1280.7664
  -1388763.27149  -1081443.72348  21747149.1774   21747144.0754
       522.7814
   3868607.73649   2994045.70147  22122778.9744   22122774.7284
     -2712.9844
  -2258553.40649  -1748572.02647  23942801.5674   23942797.1654
      2585.8444
   3957053.61349   3071705.09347  23851766.6924   23851761.8374
     -2848.6094
  -2339695.29449  -1813423.11348  21256830.6924   21256826.2434
      1236.2034
 04  9 17 15  9 45.0010000  0  6G 1G11G14G20G22G25
  -2280894.88549  -1772988.22448  21555154.6774   21555150.8994
      1275.2664
  -1396538.91249  -1087502.67448  21745669.4894   21745664.6064
       513.7974
   3909321.65449   3025770.81947  22130526.9894   22130522.0874
     -2715.7344
  -2297339.43949  -1778794.90347  23935420.7714   23935416.1694
      2585.3914
   3999802.76349   3105016.07847  23859901.8964   23859896.6224
     -2851.3444
  -2358175.72549  -1827823.45148  21253314.0364   21253309.3334
      1227.7974
 04  9 17 15 10  0.0010000  0  6G 1G11G14G20G22G25
  -2299992.47149  -1787869.45448  21551520.2164   21551516.5874
      1270.8134
  -1404186.57849  -1093461.90448  21744214.5134   21744209.5954
       505.6564
   3950069.46549   3057522.34147  22138280.5754   22138276.0754
     -2717.5784
  -2336123.97049  -1809016.61347  23928040.2314   23928035.7474
      2585.7034
   4042585.44549   3138353.18547  23868043.1854   23868038.1184
     -2853.1414
  -2376537.78449  -1842131.55548  21249819.7714   21249814.9384
      1220.2974
 04  9 17 15 10 15.0010000  0  6G 1G11G14G20G22G25
  -2319016.38749  -1802693.27848  21547900.3644   21547896.8884
      1265.7034
  -1411706.05449  -1099321.24048  21742783.3414   21742778.2594
       496.8914
   3990850.90149   3089300.06847  22146040.9894   22146036.4814
     -2720.0624
  -2374906.84549  -1839237.02347  23920659.6144   23920655.7594
      2585.3594
   4085401.79549   3171716.53547  23876190.3724   23876185.5834
     -2855.6724
  -2394781.26449  -1856347.23848  21246348.0054   21246343.5954
      1212.1564
 04  9 17 15 10 30.0010000  0  6G 1G11G14G20G22G25
  -2337965.03449  -1817458.45248  21544294.2394   21544290.5634
      1260.7034
  -1419095.58349  -1105079.32548  21741377.2864   21741372.4814
       488.1884
   4031667.56449   3121105.25547  22153808.2244   22153803.3924
     -2722.3444
  -2413686.38449  -1869454.84547  23913280.5834   23913276.0284
      2585.1094
   4128253.34449   3205107.31947  23884344.1774   23884340.3604
     -2858.0314
  -2412904.36249  -1870469.13548  21242899.1534   21242895.0054
      1204.1414
 04  9 17 15 10 45.0010000  0  6G 1G11G14G20G22G25
  -2356842.29049  -1832168.00248  21540702.3104   21540698.7714
      1256.1724
  -1426358.92749  -1110739.07348  21739994.8964   21739990.1224
       480.0474
   4072515.30849   3152934.65247  22161581.2864   22161575.9974
     -2724.1874
  -2452466.32049  -1899672.97147  23905900.7864   23905896.7864
      2585.3914
   4171136.22949   3238522.53847  23892505.4354   23892500.0914
     -2859.9064
  -2430910.86449  -1884500.17748  21239472.6144   21239468.7474
      1196.5944
 04  9 17 15 11  0.0010000  0  6G 1G11G14G20G22G25
  -2375645.86049  -1846820.13048  21537123.9664   21537120.6964
      1251.1094
  -1433493.74949  -1116298.68948  21738637.2784   21738632.4624
       471.3444
   4113396.30749   3184789.96147  22169360.7244   22169356.2824
     -2726.5474
  -2491244.20549  -1929889.48447  23898522.0054   23898517.7284
      2585.1254
   4214052.78149   3271963.96247  23900671.9194   23900667.3844
     -2862.1564
  -2448798.19949  -1898438.35648  21236068.8104   21236064.6884
      1188.5164
 04  9 17 15 11 15.0010000  0  6G 1G11G14G20G22G25
  -2394377.49749  -1861416.20848  21533559.5284   21533555.7394
      1246.2504
  -1440501.65449  -1121759.39148  21737303.8494   21737298.9974
       462.7664
   4154308.51049   3216669.58247  22177146.0444   22177141.3254
     -2728.6874
  -2530021.56649  -1960105.61947  23891142.9274   23891138.2394
      2584.9844
   4257001.11649   3305430.16147  23908845.2084   23908840.0874
     -2864.4374
  -2466567.92649  -1912284.89548  21232687.5834   21232683.0174
      1180.5944
 04  9 17 15 11 30.0010000  0  6G 1G11G14G20G22G25
  -2413035.13949  -1875954.62748  21530008.9424   21530005.2124
      1241.4064
  -1447380.37949  -1127119.44648  21735994.8494   21735989.5674
       454.3134
   4195253.93449   3248575.09647  22184938.0604   22184933.0324
     -2730.7664
  -2568796.31549  -1990319.70447  23883765.2164   23883760.0564
      2584.9844
   4299983.34449   3338922.76747  23917024.0674   23917019.3964
     -2866.5784
  -2484217.83449  -1926038.06648  21229328.9034   21229324.4314
      1172.6884
 04  9 17 15 11 45.0010000  0  6G 1G11G14G20G22G25
  -2431622.12949  -1890437.99348  21526471.8644   21526468.0524
      1236.8594
  -1454133.14249  -1132381.34848  21734709.7004   21734705.0604
       446.0474
   4236229.00149   3280503.70547  22192735.2394   22192730.6384
     -2732.5624
  -2607571.61149  -2020534.21447  23876385.1304   23876381.3684
      2585.2034
   4342996.15049   3372439.20347  23925209.2004   23925204.0834
     -2868.3914
  -2501751.01749  -1939700.28548  21225992.5914   21225988.0324
      1165.1094
 04  9 17 15 12  0.0010000  0  6G 1G11G14G20G22G25
  -2450135.86449  -1904864.27548  21522949.0214   21522945.1534
      1231.8134
  -1460757.37949  -1137543.08948  21733449.2634   21733444.5364
       437.4224
   4277236.16449   3312457.32747  22200538.9034   22200533.8374
     -2734.8284
  -2646344.72249  -2050747.01347  23869007.5284   23869003.3564
      2584.8594
   4386042.12049   3405981.47247  23933400.3104   23933395.6694
     -2870.7344
  -2519164.77449  -1953269.44248  21222678.6924   21222674.2004
      1156.9384
 04  9 17 15 12 15.0010000  0  6G 1G11G14G20G22G25
  -2468577.49749  -1919234.37848  21519439.8414   21519436.2084
      1227.1414
  -1467253.94849  -1142605.37348  21732213.0214   21732207.5834
       429.0004
   4318273.99849   3344434.84147  22208347.8414   22208343.2824
     -2736.7664
  -2685116.61449  -2080958.87747  23861629.2634   23861625.1304
      2584.7974
   4429120.13949   3439548.72347  23941598.5444   23941593.1264
     -2872.8754
  -2536460.12849  -1966746.34048  21219387.2314   21219382.9384
      1149.2194
 04  9 17 15 12 30.0010000  0  6G 1G11G14G20G22G25
  -2486946.28949  -1933547.71948  21515944.1384   21515940.7474
      1222.0944
  -1473621.96249  -1147567.46948  21731000.9664   21730995.9704
       420.1414
   4359343.22949   3376436.82247  22216163.0214   22216158.3844
     -2738.9844
  -2723886.34949  -2111169.05947  23854251.3964   23854247.2084
      2584.4844
   4472230.94749   3473141.52247  23949802.2864   23949797.3804
     -2875.1724
  -2553636.00949  -1980130.14848  21216118.9034   21216114.2514
      1141.0474
 04  9 17 15 12 45.0010000  0  6G 1G11G14G20G22G25
  -2505239.68049  -1947802.30248  21512462.8884   21512459.6034
      1216.9694
  -1479858.87349  -1152427.40048  21729814.3254   21729809.5524
       411.4384
   4400446.14249   3408465.05947  22223984.7554   22223979.8804
     -2741.2974
  -2762651.34249  -2141375.53747  23846874.8024   23846870.5364
      2584.1414
   4515377.03449   3506761.80347  23958012.8024   23958007.2904
     -2877.5944
  -2570689.76749  -1993418.78248  21212873.8024   21212869.7044
      1132.8594
 04  9 17 15 13  0.0010000  0  6G 1G11G14G20G22G25
  -2523459.16349  -1961999.29448  21508995.9584   21508992.2284
      1212.3284
  -1485966.04049  -1157186.24048  21728652.2784   21728647.1774
       402.9844
   4441581.15049   3440518.30647  22231812.5604   22231807.8374
     -2743.2344
  -2801412.88549  -2171579.31447  23839498.8644   23839494.6304
      2584.1414
   4558556.87349   3540408.40847  23966229.7244   23966224.2284
     -2879.5474
  -2587622.85249  -2006613.39148  21209651.4274   21209646.9194
      1125.0004
 04  9 17 15 13 15.0010000  0  6G 1G11G14G20G22G25
  -2541606.19749  -1976139.84448  21505542.8174   21505538.7244
      1207.3284
  -1491944.83649  -1161845.06048  21727514.3804   21727509.2594
       394.1884
   4482746.61049   3472595.26847  22239646.1224   22239640.9624
     -2745.4844
  -2840172.30949  -2201781.48347  23832122.9814   23832118.6144
      2583.8594
   4601769.01549   3574080.16347  23974452.6064   23974447.9154
     -2881.9844
  -2604436.48849  -2019714.92748  21206452.1774   21206448.1384
      1116.8444
 04  9 17 15 13 30.0010000  0  6G 1G11G14G20G22G25
  -2559680.47449  -1990223.69248  21502103.2554   21502099.6424
      1202.4694
  -1497794.72349  -1166403.41548  21726401.2164   21726395.5674
       385.6724
   4523942.59549   3504696.01247  22247485.2634   22247480.9704
     -2747.4534
  -2878929.13049  -2231981.56747  23824747.9584   23824743.5094
      2583.6564
   4645013.88749   3607777.42747  23982681.8104   23982676.4074
     -2884.1564
  -2621130.13049  -2032722.95848  21203275.4194   21203271.0834
      1108.8754
 04  9 17 15 13 45.0010000  0  6G 1G11G14G20G22G25
  -2577680.51949  -2004249.69548  21498678.4034   21498674.4074
      1197.6724
  -1503514.14649  -1170860.11348  21725312.9744   21725308.1534
       377.0474
   4565170.34349   3536821.52347  22255331.0134   22255326.1224
     -2749.4694
  -2917681.78649  -2262178.42847  23817373.7164   23817369.2984
      2583.3754
   4688292.81349   3641501.25047  23990917.4664   23990912.4784
     -2886.2814
  -2637702.24049  -2045636.28348  21200121.6924   21200117.4784
      1100.8444
 04  9 17 15 14  0.0010000  0  6G 1G11G14G20G22G25
  -2595607.90549  -2018219.07548  21495266.6614   21495263.2594
      1192.5314
  -1509104.61549  -1175216.33448  21724249.1854   21724244.5174
       368.1414
   4606428.23849   3568970.52347  22263181.5674   22263176.9424
     -2751.8124
  -2956431.67449  -2292373.18147  23810000.0284   23809995.0794
      2582.9844
   4731604.31049   3675250.40947  23999159.2784   23999154.2944
     -2888.7814
  -2654154.03449  -2058455.86048  21196990.9194   21196986.6654
      1092.5634
 04  9 17 15 14 15.0010000  0  6G 1G11G14G20G22G25
  -2613462.63349  -2032131.85048  21491869.0914   21491865.2394
      1187.9384
  -1514566.09449  -1179472.03748  21723209.9114   21723204.8494
       359.8594
   4647716.06649   3601142.83247  22271038.6774   22271033.7714
     -2753.4224
  -2995178.73549  -2322565.68747  23802625.7944   23802621.2284
      2583.1414
   4774948.31749   3709024.94047  24007407.4974   24007402.6884
     -2890.6254
  -2670485.39649  -2071181.59448  21193883.2164   21193878.9894
      1084.8444
 04  9 17 15 14 30.0010000  0  6G 1G11G14G20G22G25
  -2631243.38949  -2045986.97348  21488485.4814   21488481.9384
      1183.0164
  -1519897.03149  -1183626.02248  21722195.5364   21722190.2354
       351.1094
   4689035.00649   3633339.39547  22278901.6614   22278896.6494
     -2755.5784
  -3033921.27749  -2352754.67847  23795253.8104   23795249.1654
      2582.7504
   4818326.06149   3742825.73847  24015662.2864   24015657.7044
     -2892.9844
  -2686694.95749  -2083812.42148  21190798.6614   21190794.6884
      1076.5474
 04  9 17 15 14 45.0010000  0  6G 1G11G14G20G22G25
  -2648950.74549  -2059784.92348  21485115.9814   21485112.0874
      1178.1414
  -1525097.89649  -1187678.65448  21721205.7864   21721200.9934
       342.4694
   4730384.30149   3665559.60747  22286770.1464   22286765.3254
     -2757.5624
  -3072659.83149  -2382940.55147  23787882.1694   23787877.8684
      2582.4534
   4861737.09149   3776652.47347  24023922.9194   24023918.7984
     -2895.0944
  -2702783.13849  -2096348.65648  21187737.1854   21187732.9584
      1068.6094
 04  9 17 15 15  0.0010000  0  6G 1G11G14G20G22G25
  -2666582.13449  -2073523.65848  21481760.7394   21481756.9274
      1173.1564
  -1530165.99549  -1191627.82748  21720241.5444   21720236.5364
       333.6724
   4771766.40649   3697805.39147  22294644.7864   22294639.7904
     -2759.7344
  -3111391.63649  -2413121.19647  23780511.8104   23780507.4624
      2582.1414
   4905183.93749   3810507.12947  24032190.8024   24032186.0794
     -2897.4374
  -2718747.11549  -2108788.12148  21184699.6224   21184694.8454
      1060.3444
 04  9 17 15 15 15.0010000  0  6G 1G11G14G20G22G25
  -2684140.71849  -2087205.66948  21478419.4584   21478415.5874
      1168.3754
  -1535104.36649  -1195475.91848  21719301.5364   21719296.4544
       325.1414
   4813177.87349   3730074.05247  22302525.0364   22302520.4544
     -2761.5004
  -3150119.77649  -2443298.94847  23773141.7474   23773137.3964
      2581.9844
   4948663.44849   3844387.20547  24040464.2394   24040459.4664
     -2899.5164
  -2734589.94049  -2121133.17948  21181684.5444   21181680.1344
      1052.3754
 04  9 17 15 15 30.0010000  0  6G 1G11G14G20G22G25
  -2701630.50749  -2100834.07648  21475091.2394   21475087.2164
      1163.2034
  -1539916.93349  -1199225.98348  21718385.4974   21718380.6924
       316.1884
   4854614.49049   3762362.30747  22310410.3254   22310405.6224
     -2763.6564
  -3188848.12849  -2473476.89447  23765771.8024   23765767.3024
      2581.4844
   4992171.52049   3878289.58047  24048743.9504   24048739.3454
     -2901.9064
  -2750315.51049  -2133386.85948  21178692.0674   21178687.9274
      1044.0314
 04  9 17 15 15 45.0010000  0  6G 1G11G14G20G22G25
  -2719045.82549  -2114404.44948  21471777.1224   21471773.3104
      1158.4534
  -1544597.95649  -1202873.54248  21717495.2244   21717489.9624
       307.5784
   4896081.93249   3794674.58247  22318301.1224   22318296.9074
     -2765.6254
  -3227570.79449  -2503650.39847  23758402.9894   23758398.9504
      2581.1414
   5035714.02749   3912218.75547  24057030.2864   24057025.0014
     -2904.1414
  -2765917.97049  -2145544.62148  21175723.0914   21175718.8024
      1036.0004
 04  9 17 15 16  0.0010000  0  6G 1G11G14G20G22G25
  -2736385.30549  -2127915.73148  21468477.3884   21468473.9814
      1153.4224
  -1549145.96449  -1206417.45548  21716629.3024   21716624.4974
       298.7504
   4937581.30949   3827011.74347  22326198.0834   22326192.7984
     -2767.7344
  -3266286.32549  -2533818.34247  23751036.1774   23751031.2164
      2580.7814
   5079292.22549   3946175.75547  24065323.1464   24065318.2004
     -2906.3754
  -2781395.68349  -2157605.17548  21172777.8884   21172773.3844
      1027.7034
 04  9 17 15 16 15.0010000  0  6G 1G11G14G20G22G25
  -2753651.38549  -2141369.82248  21465192.1224   21465188.4974
      1148.8134
  -1553563.26649  -1209859.50948  21715788.8964   21715784.1814
       290.3284
   4979110.09049   3859371.80647  22334101.2164   22334096.2164
     -2769.4224
  -3304996.86949  -2563982.38947  23743670.3884   23743665.2084
      2580.7194
   5122903.65149   3980158.66347  24073621.6384   24073617.3174
     -2908.3124
  -2796750.91649  -2169570.27748  21169855.9034   21169851.2944
      1019.8134
 04  9 17 15 16 30.0010000  0  6G 1G11G14G20G22G25
  -2770845.69749  -2154767.98548  21461920.1614   21461916.1964
      1143.8284
  -1557851.32749  -1213200.87148  21714972.8884   21714967.5834
       281.4534
   5020666.45349   3891753.37247  22342008.8254   22342004.2864
     -2771.4374
  -3343703.93349  -2594143.74447  23736303.8644   23736298.9744
      2580.3284
   5166546.72449   4014166.20347  24081926.7864   24081922.3334
     -2910.7504
  -2811985.20849  -2181441.15248  21166956.7714   21166952.3644
      1011.4844
 04  9 17 15 16 45.0010000  0  6G 1G11G14G20G22G25
  -2787965.46649  -2168108.05848  21458662.0994   21458658.3924
      1138.7194
  -1562007.41149  -1216439.38048  21714182.0054   21714177.0674
       272.5634
   5062252.99149   3924158.45747  22349922.4974   22349917.9114
     -2773.5944
  -3382404.71649  -2624300.19947  23728939.4274   23728934.6034
      2579.7664
   5210224.19149   4048200.53947  24090238.4814   24090234.0214
     -2913.1414
  -2827095.69749  -2193215.55748  21164081.2084   21164076.6534
      1003.1094
 04  9 17 15 17  0.0010000  0  6G 1G11G14G20G22G25
  -2805015.01949  -2181393.41948  21455417.9274   21455414.2554
      1134.1094
  -1566035.63449  -1219578.27048  21713415.7474   21713410.7244
       264.0944
   5103865.18949   3956583.53247  22357841.3564   22357836.2824
     -2775.2344
  -3421103.30449  -2654454.92947  23721575.2244   23721570.0874
      2579.6564
   5253931.77949   4082258.35947  24098555.1854   24098550.6264
     -2915.0474
  -2842086.43649  -2204896.65748  21161228.6384   21161224.3134
       995.2344
 04  9 17 15 17 15.0010000  0  6G 1G11G14G20G22G25
  -2821988.36449  -2194619.40148  21452187.9584   21452184.5524
      1129.0634
  -1569929.77449  -1222612.67248  21712674.3644   21712669.4424
       255.2664
   5145508.95849   3989033.20247  22365765.6694   22365761.1344
     -2777.2034
  -3459793.51449  -2684603.16047  23714213.0364   23714207.9584
      2579.2344
   5297675.41849   4116344.25747  24106879.5054   24106875.3104
     -2917.3284
  -2856951.37449  -2216479.71148  21158399.8024   21158395.9234
       986.9064
 04  9 17 15 17 30.0010000  0  6G 1G11G14G20G22G25
  -2838889.30949  -2207788.96448  21448971.6774   21448967.7784
      1124.4534
  -1573693.61449  -1225545.54448  21711958.3804   21711953.4624
       246.6724
   5187180.35449   4021504.40147  22373695.5674   22373690.9234
     -2778.8914
  -3498478.91349  -2714747.61847  23706851.3414   23706846.8804
      2578.9694
   5341451.24049   4150455.24447  24115209.9354   24115205.0444
     -2919.2814
  -2871694.07749  -2227967.53748  21155594.6614   21155590.0484
       978.8284
 04  9 17 15 17 45.0010000  0  6G 1G11G14G20G22G25
  -2855714.79849  -2220899.73448  21445769.7634   21445765.8454
      1119.2194
  -1577324.10449  -1228374.50548  21711267.5754   21711261.9934
       237.6564
   5228882.31749   4053999.42347  22381631.4114   22381626.2554
     -2781.0944
  -3537156.41749  -2744885.93747  23699491.3804   23699486.5404
      2578.2504
   5385262.31049   4184593.70247  24123546.7244   24123542.2944
     -2921.8594
  -2886311.28349  -2239357.56248  21152812.5994   21152808.7944
       970.2974
 04  9 17 15 18  0.0010000  0  6G 1G11G14G20G22G25
  -2872469.36849  -2233955.23648  21442581.6064   21442577.7634
      1114.6564
  -1580825.70049  -1231103.03148  21710601.2474   21710596.0754
       229.1884
   5270610.09849   4086514.56747  22389571.7164   22389567.2004
     -2782.6724
  -3575830.37949  -2775021.47247  23692131.4424   23692126.6144
      2578.2504
   5429104.18549   4218756.17147  24131889.8414   24131884.8964
     -2923.7034
  -2900807.35149  -2250653.19148  21150054.1614   21150050.2004
       962.3914
 04  9 17 15 18 15.0010000  0  6G 1G11G14G20G22G25
  -2889150.05349  -2246953.17448  21439407.3414   21439403.9894
      1109.3914
  -1584195.28549  -1233728.68548  21709959.9894   21709954.8024
       220.0474
   5312366.48049   4119051.98847  22397517.6614   22397513.0714
     -2784.9064
  -3614497.52649  -2805151.73247  23684773.2944   23684768.6064
      2577.4224
   5472979.80149   4252944.91047  24140239.4584   24140234.0214
     -2926.3594
  -2915179.12849  -2261851.98548  21147319.6144   21147315.3174
       953.7974
 04  9 17 15 18 30.0010000  0  6G 1G11G14G20G22G25
  -2905756.22949  -2259893.04548  21436247.3024   21436243.3374
      1104.4694
  -1587432.10349  -1236250.89748  21709344.3884   21709339.0954
       211.1564
   5354152.02449   4151612.12647  22405468.8884   22405464.9234
     -2786.8594
  -3653157.22849  -2835276.17247  23677417.1304   23677412.1224
      2576.8594
   5516889.74249   4287160.38847  24148594.9114   24148590.1734
     -2928.6094
  -2929425.96349  -2272953.40848  21144608.3804   21144604.2124
       945.4384
 04  9 17 15 18 45.0010000  0  6G 1G11G14G20G22G25
  -2922284.89249  -2272772.52948  21433102.1534   21433098.4114
      1099.6254
  -1590532.98549  -1238667.16948  21708753.9894   21708748.9074
       202.4694
   5395969.45849   4184197.13247  22413426.5054   22413422.2554
     -2788.5944
  -3691806.20749  -2865392.25847  23670062.1534   23670057.2784
      2576.5314
   5560837.09449   4321405.03847  24156958.1614   24156953.1694
     -2930.6564
  -2943544.68349  -2283954.99948  21141921.9664   21141917.7354
       937.2974
 04  9 17 15 19  0.0010000  0  6G 1G11G14G20G22G25
  -2938739.76049  -2285594.50248  21429970.8024   21429966.7004
      1094.5474
  -1593501.49649  -1240980.30748  21708189.1384   21708183.9314
       193.4534
   5437815.04349   4216804.06347  22421389.5914   22421384.5244
     -2790.6094
  -3730448.00649  -2895502.75347  23662709.0834   23662704.4544
      2575.8914
   5604818.09849   4355675.89547  24165327.1144   24165322.4744
     -2933.1414
  -2957538.77949  -2294859.50348  21139258.7244   21139254.3644
       928.7974
 04  9 17 15 19 15.0010000  0  6G 1G11G14G20G22G25
  -2955119.90449  -2298358.24548  21426853.4744   21426850.2084
      1089.4224
  -1596336.67349  -1243189.54248  21707649.4504   21707644.2434
       184.4844
   5479689.52049   4249433.51047  22429358.2164   22429353.8024
     -2792.6874
  -3769081.57349  -2925606.81947  23655357.0054   23655352.8374
      2575.1724
   5648833.66649   4389973.69747  24173703.6534   24173697.8724
     -2935.5784
  -2971407.39149  -2305666.20448  21136619.2634   21136615.3104
       920.3914
 04  9 17 15 19 30.0010000  0  6G 1G11G14G20G22G25
  -2971425.94049  -2311064.24348  21423751.0834   21423747.3104
      1084.5634
  -1599039.07449  -1245295.32048  21707135.4194   21707130.1964
       175.7974
   5521592.12649   4282084.87147  22437332.2084   22437327.2284
     -2794.4534
  -3807707.36349  -2955704.84647  23648006.7084   23648002.0634
      2574.8754
   5692883.20649   4424297.92447  24182084.9894   24182081.0674
     -2937.8444
  -2985150.79949  -2316375.35048  21134004.4194   21133999.8254
       912.0944
 04  9 17 15 19 45.0010000  0  6G 1G11G14G20G22G25
  -2987657.30349  -2323712.07248  21420662.1774   21420658.0914
      1079.6724
  -1601608.11349  -1247297.17348  21706646.5834   21706641.4894
       166.9384
   5563523.22849   4314758.43947  22445310.8174   22445306.8564
     -2796.2194
  -3846324.66849  -2985796.24147  23640658.2394   23640654.0324
      2574.2344
   5736967.22349   4458649.08547  24190474.2784   24190470.1534
     -2940.0004
  -2998768.28649  -2326986.37148  21131412.9974   21131409.0284
       903.7034
 04  9 17 15 20  0.0010000  0  6G 1G11G14G20G22G25
  -3003813.17449  -2336301.05948  21417588.0054   21417584.0094
      1074.7974
  -1604042.94149  -1249194.45448  21706182.8254   21706177.8684
       158.0784
   5605483.47149   4347454.71347  22453296.1144   22453291.2944
     -2798.0784
  -3884932.57949  -3015880.33047  23633311.1614   23633307.1224
      2573.7974
   5781086.59449   4493027.79447  24198869.5994   24198865.2084
     -2942.2194
  -3012258.90849  -2337498.53148  21128845.7004   21128841.6694
       895.4384
 04  9 17 15 20 15.0010000  0  6G 1G11G14G20G22G25
  -3019899.03749  -2348835.48648  21414526.8804   21414522.8994
      1070.0314
  -1606348.86249  -1250991.27948  21705744.4504   21705740.0324
       149.4224
   5647467.22649   4380169.31547  22461285.1614   22461280.3564
     -2799.7034
  -3923536.29949  -3045961.13247  23625965.3024   23625961.2864
      2573.4064
   5825235.78149   4527429.69947  24207271.6064   24207266.3174
     -2944.2504
  -3025628.05249  -2347916.05048  21126301.8254   21126297.3564
       887.2194
 04  9 17 15 20 30.0010000  0  6G 1G11G14G20G22G25
  -3035911.01949  -2361312.36548  21411479.8024   21411475.8924
      1065.0314
  -1608521.98049  -1252684.62748  21705331.0214   21705325.9464
       140.5164
   5689478.15949   4412905.08647  22469280.0284   22469275.0874
     -2801.6094
  -3962131.80249  -3076035.54147  23618621.2004   23618616.4624
      2572.7974
   5869418.65649   4561857.83847  24215678.7634   24215674.4354
     -2946.5624
  -3038871.74049  -2358235.80648  21123781.5134   21123777.1964
       878.7814
 04  9 17 15 20 45.0010000  0  6G 1G11G14G20G22G25
  -3051849.78049  -2373732.17548  21408446.3174   21408442.9544
      1060.2034
  -1610562.81049  -1254274.89848  21704942.4194   21704937.3564
       131.7194
   5731515.60549   4445661.51047  22477279.6774   22477274.5604
     -2803.3914
  -4000719.62849  -3106103.96947  23611277.9744   23611273.8534
      2572.3754
   5913634.61449   4596311.82347  24224093.2394   24224088.9154
     -2948.8124
  -3051990.56049  -2368458.26048  21121285.1384   21121281.2744
       870.4384
 04  9 17 15 21  0.0010000  0  6G 1G11G14G20G22G25
  -3067715.23249  -2386094.86448  21405427.4504   21405423.6224
      1055.0944
  -1612471.11949  -1255761.89448  21704579.1304   21704574.3764
       122.7194
   5773579.58249   4478438.62547  22485284.1854   22485279.3064
     -2805.2974
  -4039299.36749  -3136166.10847  23603936.1224   23603931.9154
      2571.5634
   5957883.64649   4630791.53947  24232513.8414   24232508.9384
     -2951.2034
  -3064984.22549  -2378583.18648  21118812.5674   21118808.4544
       861.9694
 04  9 17 15 21 15.0010000  0  6G 1G11G14G20G22G25
  -3083505.90349  -2398399.27348  21402422.9034   21402419.3684
      1050.2814
  -1614245.29849  -1257144.37648  21704241.8414   21704237.2124
       113.9064
   5815671.22949   4511237.30047  22493293.7634   22493289.1924
     -2806.9534
  -4077869.41449  -3166220.66147  23596596.2004   23596592.4664
      2571.0474
   6002167.32849   4665298.26447  24240940.4894   24240935.7744
     -2953.4374
  -3077851.03149  -2388609.26648  21116364.1384   21116360.2394
       853.5944
 04  9 17 15 21 30.0010000  0  6G 1G11G14G20G22G25
  -3099223.99549  -2410647.13848  21399431.3494   21399428.0054
      1045.3284
  -1615887.50649  -1258424.03648  21703929.3024   21703923.9814
       104.9224
   5857788.19549   4544055.68947  22501308.0674   22501303.4274
     -2808.8444
  -4116431.96749  -3196269.40947  23589258.4194   23589254.5994
      2570.4064
   6046483.43749   4699830.24547  24249374.6384   24249368.4784
     -2955.5624
  -3090593.08749  -2398538.14348  21113939.3964   21113935.3104
       845.1564
 04  9 17 15 21 45.0010000  0  6G 1G11G14G20G22G25
  -3114866.99949  -2422836.50348  21396455.0834   21396451.2944
      1040.6564
  -1617395.25549  -1259598.90748  21703642.4744   21703637.3064
        96.2664
   5899933.03849   4576895.80147  22509327.9744   22509323.5214
     -2810.3594
  -4154984.14749  -3226310.06647  23581921.9194   23581917.8134
      2570.0314
   6090834.41249   4734389.39847  24257813.7164   24257808.9154
     -2957.6254
  -3103207.73049  -2408367.73748  21111538.9274   21111534.4704
       836.9844
 04  9 17 15 22  0.0010000  0  6G 1G11G14G20G22G25
  -3130435.77549  -2434968.00648  21393492.2314   21393488.7044
      1035.4844
  -1618769.28049  -1260669.59548  21703380.5674   21703375.4274
        87.2034
   5942104.70049   4609756.81847  22517352.9114   22517348.3374
     -2812.2504
  -4193526.69649  -3256343.23447  23574587.8964   23574583.4234
      2569.1724
   6135219.56049   4768975.19047  24266260.0994   24266254.9074
     -2960.0624
  -3115695.68049  -2418098.59548  21109162.5604   21109158.1184
       828.3594
 04  9 17 15 22 15.0010000  0  6G 1G11G14G20G22G25
  -3145931.81949  -2447042.84848  21390543.4034   21390539.8374
      1030.6884
  -1620010.90549  -1261637.09548  21703144.7314   21703139.6344
        78.4064
   5984301.48549   4642637.41247  22525383.0914   22525378.1424
     -2813.9064
  -4232060.83149  -3286369.81447  23567254.9274   23567250.6614
      2568.7664
   6179637.30549   4803586.36147  24274712.6304   24274707.7514
     -2962.2664
  -3128058.19749  -2427731.72948  21106809.7474   21106805.2984
       820.0474
 04  9 17 15 22 30.0010000  0  6G 1G11G14G20G22G25
  -3161358.07249  -2459063.29848  21387607.7314   21387603.9934
      1025.9384
  -1621123.02949  -1262503.69648  21702932.8254   21702928.0174
        69.5944
   6026520.40849   4675535.25847  22533417.0754   22533412.4664
     -2815.5474
  -4270589.30949  -3316392.00247  23559923.7634   23559919.5524
      2568.2504
   6224084.67349   4838220.64747  24283170.6304   24283166.1964
     -2964.2814
  -3140298.16849  -2437269.36448  21104480.6924   21104476.6304
       811.7664
 04  9 17 15 22 45.0010000  0  6G 1G11G14G20G22G25
  -3176710.46449  -2471026.20348  21384686.2244   21384683.0444
      1021.0314
  -1622101.46249  -1263266.11948  21702746.8254   21702741.9854
        60.6724
   6068765.28649   4708453.33247  22541455.9744   22541451.2904
     -2817.2344
  -4309108.04149  -3346406.59447  23552593.5914   23552589.3964
      2567.5784
   6268565.73549   4872881.17247  24291634.9894   24291630.1654
     -2966.5164
  -3152411.32849  -2446708.19048  21102175.8414   21102171.5404
       803.2504
 04  9 17 15 23  0.0010000  0  6G 1G11G14G20G22G25
  -3191989.54849  -2482931.97648  21381778.9354   21381775.3924
      1016.2034
  -1622946.69849  -1263924.75348  21702585.9814   21702580.5444
        51.9694
   6111035.51149   4741391.15247  22549499.5674   22549495.1424
     -2818.7814
  -4347617.30149  -3376413.81947  23545265.4274   23545261.2204
      2567.0314
   6313080.02249   4907567.57547  24300105.7784   24300101.2044
     -2968.7194
  -3164397.99549  -2456048.45048  21099894.7634   21099890.6654
       794.9534
 04  9 17 15 23 15.0010000  0  6G 1G11G14G20G22G25
  -3207197.54549  -2494782.36548  21378884.6304   21378881.2204
      1011.3594
  -1623660.79249  -1264481.20348  21702450.1694   21702445.1064
        43.0634
   6153328.76649   4774346.92047  22557547.7474   22557543.2984
     -2820.4694
  -4386118.98049  -3406415.13447  23537938.7554   23537934.4584
      2566.3444
   6357625.33749   4942278.16447  24308582.3644   24308578.5134
     -2970.9064
  -3176260.34849  -2465291.83848  21097637.2244   21097633.2594
       786.4844
 04  9 17 15 23 30.0010000  0  6G 1G11G14G20G22G25
  -3222331.65749  -2506575.19148  21376004.8494   21376001.5174
      1006.5164
  -1624240.95149  -1264933.28448  21702339.5214   21702334.6264
        34.2814
   6195647.65249   4807322.65847  22565600.7004   22565596.3454
     -2822.0944
  -4424610.25149  -3436408.31947  23530614.5054   23530609.8994
      2565.7344
   6402204.40249   4977015.04647  24317065.1224   24317061.4744
     -2973.0784
  -3187995.60249  -2474436.19648  21095404.2554   21095400.0794
       778.1414
 04  9 17 15 23 45.0010000  0  6G 1G11G14G20G22G25
  -3237391.57549  -2518310.17948  21373139.2714   21373135.2354
      1001.4844
  -1624686.64949  -1265280.58248  21702254.7554   21702249.9194
        25.1724
   6237992.46249   4840318.59247  22573658.8724   22573654.3564
     -2823.8754
  -4463090.47549  -3466392.91147  23523291.8964   23523287.0994
      2564.9384
   6446817.67049   5011778.55447  24325554.8174   24325550.5524
     -2975.4534
  -3199603.13449  -2483481.02648  21093195.2474   21093191.3254
       769.5474
 04  9 17 15 24  0.0010000  0  6G 1G11G14G20G22G25
  -3252378.58249  -2529988.36348  21370287.2314   21370283.5954
       996.6724
  -1624999.36649  -1265524.27748  21702195.4894   21702190.3644
        16.3754
   6280361.63849   4873333.51047  22581721.6384   22581717.0564
     -2825.4374
  -4501560.86049  -3496369.83647  23515970.8334   23515966.3644
      2564.3134
   6491463.66149   5046567.60347  24334050.3414   24334046.8604
     -2977.4534
  -3211084.16549  -2492427.28848  21091010.5524   21091006.5564
       761.2034
 04  9 17 15 24 15.0010000  0  6G 1G11G14G20G22G25
  -3267291.48049  -2541608.81148  21367449.5604   21367445.9234
       991.7664
  -1625177.55849  -1265663.13748  21702161.5284   21702156.8564
         7.4694
   6322756.29549   4906368.28447  22589788.8564   22589784.3564
     -2827.1414
  -4540020.04349  -3526338.03147  23508652.7714   23508648.2434
      2563.5634
   6536143.52049   5081383.03647  24342553.7784   24342548.9584
     -2979.6874
  -3222437.33949  -2501273.91648  21088850.2784   21088846.1264
       752.6414
 04  9 17 15 24 30.0010000  0  6G 1G11G14G20G22G25
  -3282129.57849  -2553170.95548  21364625.8254   21364621.9384
       986.7344
  -1625220.48849  -1265696.60248  21702153.2314   21702148.2044
        -1.6414
   6365176.95649   4939423.33047  22597861.4194   22597856.7164
     -2828.8444
  -4578467.16749  -3556296.82047  23501335.7084   23501331.4934
      2562.7814
   6580858.08449   5116225.49847  24351062.0754   24351058.1614
     -2981.8914
  -3233661.82549  -2510020.27848  21086714.1384   21086710.0324
       744.0164
 04  9 17 15 24 45.0010000  0  6G 1G11G14G20G22G25
  -3296894.07149  -2564675.76448  21361815.9584   21361811.8134
       981.6884
  -1625129.39149  -1265625.62448  21702170.5364   21702165.7244
       -10.7034
   6407622.38249   4972497.65847  22605938.2314   22605934.0364
     -2830.6874
  -4616903.18249  -3586246.96347  23494021.8174   23494017.2434
      2561.8914
   6625606.19649   5151094.09347  24359577.3884   24359573.3024
     -2984.4224
  -3244758.77749  -2518667.25248  21084602.5284   21084598.2784
       735.3754
 04  9 17 15 25  0.0010000  0  6G 1G11G14G20G22G25
  -3311587.41849  -2576125.12148  21359019.8964   21359016.2594
       977.3444
  -1624906.70249  -1265452.12248  21702213.1694   21702207.8174
       -19.0784
   6450089.91249   5005589.22947  22614019.4504   22614015.2674
     -2831.7504
  -4655330.33449  -3616190.19247  23486709.5364   23486704.6494
      2561.6884
   6670385.34049   5185986.86347  24368098.8564   24368095.0014
     -2986.2034
  -3255730.47049  -2527216.62548  21082514.7244   21082510.3494
       727.4534
 04  9 17 15 25 15.0010000  0  6G 1G11G14G20G22G25
  -3326206.78749  -2587516.83048  21356238.0994   21356234.4114
       972.1884
  -1624549.57849  -1265173.83448  21702280.8174   21702275.6494
       -28.2814
   6492582.13549   5038700.03847  22622105.9114   22622101.4934
     -2833.5784
  -4693745.71349  -3646124.23547  23479399.5754   23479394.7084
      2560.6884
   6715198.31849   5220906.02047  24376625.8964   24376622.6424
     -2988.5784
  -3266573.96949  -2535666.09848  21080451.4114   21080446.9234
       718.6414
 04  9 17 15 25 30.0010000  0  6G 1G11G14G20G22G25
  -3340752.32049  -2598851.01748  21353470.0444   21353465.8564
       967.1414
  -1624057.84249  -1264790.67648  21702374.5834   21702369.8994
       -37.4694
   6535098.96749   5071830.00647  22630196.5914   22630191.9354
     -2835.5004
  -4732149.09249  -3676048.97447  23472091.3804   23472087.2044
      2559.6724
   6760044.97949   5255851.39647  24385160.5834   24385156.8254
     -2991.0474
  -3277289.14349  -2544015.59648  21078412.1854   21078408.1104
       709.8914
 04  9 17 15 25 45.0010000  0  6G 1G11G14G20G22G25
  -3355224.41949  -2610127.96648  21350716.1144   21350712.2594
       962.4064
  -1623432.02149  -1264303.03148  21702493.7634   21702488.1304
       -46.2034
   6577639.87649   5104978.76047  22638291.7784   22638287.2984
     -2836.9064
  -4770540.80749  -3705964.55847  23464785.5754   23464781.0674
      2559.0784
   6804925.00349   5290822.79147  24393701.3644   24393697.1144
     -2993.0944
  -3287876.33349  -2552265.34448  21076397.7004   21076392.9664
       701.5314
 04  9 17 15 26  0.0010000  0  6G 1G11G14G20G22G25
  -3369624.86549  -2621349.09348  21347975.9974   21347972.1694
       957.7344
  -1622673.98749  -1263712.36348  21702638.0054   21702632.9074
       -54.9224
   6620202.85849   5138144.69047  22646390.9424   22646387.1344
     -2838.1724
  -4808922.50349  -3735872.37947  23457482.2164   23457477.5954
      2558.5634
   6849836.52849   5325818.73447  24402248.1144   24402243.4974
     -2995.0784
  -3298337.33949  -2560416.77248  21074407.0364   21074402.8994
       693.2664
 04  9 17 15 26 15.0010000  0  6G 1G11G14G20G22G25
  -3383952.89849  -2632513.80248  21345249.2244   21345245.8804
       952.7664
  -1621782.47149  -1263017.68348  21702807.5134   21702802.5094
       -63.9224
   6662788.60749   5171328.37047  22654494.9664   22654490.3334
     -2839.8124
  -4847293.08249  -3765771.54147  23450180.4194   23450176.0404
      2557.7194
   6894780.40149   5360839.86747  24410800.2474   24410796.4274
     -2997.3914
  -3308671.29049  -2568469.21248  21072440.3414   21072436.2714
       684.7034
 04  9 17 15 26 30.0010000  0  6G 1G11G14G20G22G25
  -3398207.09549  -2643620.96948  21342537.0834   21342533.4034
       947.7194
  -1620756.14649  -1262217.97448  21703002.5914   21702997.8024
       -73.0164
   6705398.37149   5204530.76347  22662603.2084   22662598.7784
     -2841.5004
  -4885650.96449  -3795660.78847  23442881.2084   23442876.8174
      2556.6094
   6939758.05349   5395887.32247  24419358.7634   24419355.2124
     -2999.8284
  -3318876.55249  -2576421.35448  21070498.8334   21070494.1264
       675.9694
 04  9 17 15 26 45.0010000  0  6G 1G11G14G20G22G25
  -3412387.92449  -2654670.96448  21339838.3414   21339834.5874
       942.9694
  -1619595.46449  -1261313.55448  21703223.6304   21703218.5794
       -81.8124
   6748031.58649   5237751.42447  22670716.2004   22670712.0284
     -2843.0004
  -4923996.49649  -3825540.42047  23435584.2784   23435579.9274
      2555.9694
   6984768.96749   5430960.67347  24427923.8174   24427920.8104
     -3001.8444
  -3328953.45349  -2584273.48948  21068580.8964   21068576.8684
       667.5314
 04  9 17 15 27  0.0010000  0  6G 1G11G14G20G22G25
  -3426495.04649  -2665663.52348  21337154.2714   21337149.6854
       938.1564
  -1618300.01049  -1260304.10948  21703469.9274   21703465.2124
       -90.7344
   6790688.44549   5270990.52347  22678833.6854   22678829.2984
     -2844.4224
  -4962329.10749  -3855409.98947  23428289.9894   23428285.5134
      2555.1724
   7029813.52749   5466060.27247  24436495.7394   24436492.1034
     -3003.9224
  -3338901.44549  -2592025.16348  21066687.9584   21066683.7314
       659.0314
 04  9 17 15 27 15.0010000  0  6G 1G11G14G20G22G25
  -3440529.43449  -2676599.40848  21334483.5284   21334479.6144
       933.0164
  -1616870.62949  -1259190.31748  21703742.3884   21703737.4384
      -100.0004
   6833367.85649   5304247.18547  22686955.3494   22686950.4704
     -2846.2814
  -5000649.54949  -3885270.06547  23420997.3644   23420993.0244
      2554.1094
   7074890.73349   5501185.32547  24445074.4034   24445070.3724
     -3006.4694
  -3348721.41549  -2599677.09548  21064819.1464   21064814.8924
       650.2344
 04  9 17 15 27 30.0010000  0  6G 1G11G14G20G22G25
  -3454489.61249  -2687477.47848  21331827.1144   21331823.1384
       928.1884
  -1615305.87249  -1257971.03848  21704039.9034   21704034.8374
      -108.8124
   6876071.16849   5337522.47947  22695081.1224   22695076.9314
     -2847.7344
  -5038956.12849  -3915119.36247  23413708.0754   23413703.3174
      2553.3284
   7120001.95149   5536336.83247  24453658.2084   24453654.7554
     -3008.5314
  -3358411.86749  -2607228.09448  21062975.1384   21062971.0604
       641.7344
 04  9 17 15 27 45.0010000  0  6G 1G11G14G20G22G25
  -3468377.58749  -2698299.26648  21329183.7314   21329180.3174
       923.4224
  -1613607.74249  -1256647.83248  21704363.3564   21704358.3994
      -117.6414
   6918796.36549   5370814.82247  22703211.9194   22703207.1384
     -2849.1724
  -5077250.65649  -3944959.25347  23406421.1304   23406416.1574
      2552.5474
   7165145.40449   5571513.50047  24462249.4664   24462245.1734
     -3010.7344
  -3367974.64549  -2614679.60548  21061155.3884   21061151.6344
       633.1564
 04  9 17 15 28  0.0010000  0  6G 1G11G14G20G22G25
  -3482192.20949  -2709063.91248  21326554.9664   21326551.2474
       918.5944
  -1611774.86549  -1255219.62848  21704711.9814   21704707.2434
      -126.5164
   6961544.57549   5404125.09547  22711346.1924   22711342.3214
     -2850.5944
  -5115531.65149  -3974788.59147  23399136.1924   23399132.2434
      2551.7034
   7210322.20049   5606716.15047  24470845.8564   24470841.3804
     -3012.7814
  -3377408.42649  -2622030.61748  21059360.3564   21059356.5054
       624.7344
 04  9 17 15 28 15.0010000  0  6G 1G11G14G20G22G25
  -3495936.19549  -2719773.50948  21323939.7554   21323936.0794
       913.7974
  -1609809.81349  -1253688.43648  21705086.0054   21705080.6854
      -135.5314
   7004312.89349   5437451.03847  22719485.4274   22719480.8604
     -2852.0314
  -5153801.80549  -4004609.47847  23391854.2714   23391849.3064
      2550.9224
   7255529.71449   5641942.73047  24479448.3724   24479444.4504
     -3014.9844
  -3386715.79349  -2629283.10548  21057589.0834   21057585.1064
       616.1884
 04  9 17 15 28 30.0010000  0  6G 1G11G14G20G22G25
  -3509607.98249  -2730426.84948  21321338.0674   21321334.4504
       908.9534
  -1607711.08249  -1252053.06948  21705485.5444   21705480.3764
      -144.5004
   7047102.63849   5470793.66947  22727627.8964   22727623.0054
     -2853.4694
  -5192059.26749  -4034420.50147  23384573.6384   23384568.7784
      2549.9844
   7300769.28149   5677194.28347  24488057.6464   24488053.4354
     -3017.1414
  -3395895.06449  -2636435.77948  21055842.3024   21055838.1884
       607.5784
 04  9 17 15 28 45.0010000  0  6G 1G11G14G20G22G25
  -3523206.59749  -2741023.16948  21318750.2084   21318746.2944
       904.2664
  -1605477.74549  -1250312.81648  21705910.5134   21705905.1264
      -153.3124
   7089914.64749   5504153.65547  22735774.5214   22735770.4314
     -2854.7664
  -5230302.85849  -4064220.69747  23377296.2244   23377291.5054
      2549.2504
   7346041.92349   5712471.57547  24496672.6534   24496669.1964
     -3019.2034
  -3404945.20249  -2643487.83648  21054120.1774   21054115.4624
       599.1094
 04  9 17 15 29  0.0010000  0  6G 1G11G14G20G22G25
  -3536730.98049  -2751561.64648  21316177.0284   21316172.9314
       899.1254
  -1603108.62349  -1248466.75048  21706361.0834   21706356.2284
      -162.5314
   7132749.89049   5537531.75447  22743925.9194   22743921.5094
     -2856.5164
  -5268531.31449  -4094009.09447  23370021.5754   23370016.6424
      2548.0314
   7391348.78449   5747775.58447  24505294.3494   24505290.0214
     -3021.6254
  -3413865.12549  -2650438.42948  21052422.9274   21052418.3294
       590.2974
 04  9 17 15 29 15.0010000  0  6G 1G11G14G20G22G25
  -3550183.12749  -2762043.83348  21313616.8644   21313612.7514
       894.1724
  -1600605.60249  -1246516.35148  21706837.4424   21706832.3134
      -171.6094
   7175606.38849   5570926.40247  22752081.2784   22752077.0714
     -2858.0474
  -5306746.44549  -4123787.10647  23362749.5444   23362744.5404
      2547.0004
   7436687.89449   5783104.71047  24513922.5054   24513918.2904
     -3023.8284
  -3422656.58749  -2657288.90948  21050749.6304   21050745.5094
       581.5784
 04  9 17 15 29 30.0010000  0  6G 1G11G14G20G22G25
  -3563563.22449  -2772469.88748  21311070.9814   21311066.8294
       889.7504
  -1597968.83549  -1244461.73548  21707338.8804   21707333.9974
      -180.0944
   7218483.68849   5604337.26947  22760240.5604   22760236.3134
     -2859.0474
  -5344948.29749  -4153554.78547  23355479.9664   23355474.6264
      2546.4534
   7482058.93349   5818458.72247  24522555.9194   24522551.8564
     -3025.7034
  -3431319.77649  -2664039.44148  21049101.2554   21049097.1464
       573.4224
 04  9 17 15 29 45.0010000  0  5G 1G11G14G20G25
  -3576870.72649  -2782839.37248  21308538.4974   21308534.8414
       884.7974
  -1595197.66349  -1242302.39148  21707866.7164   21707861.6034
      -189.2194
   7261382.34549   5637764.77147  22768403.8254   22768399.4234
     -2860.6254
  -5383136.05949  -4183311.50147  23348212.6854   23348208.3644
      2545.3754
  -3439853.94649  -2670689.43948  21047477.4114   21047473.3294
       564.6564
 04  9 17 15 30  0.0010000  0  5G 1G11G14G20G25
  -3590104.20149  -2793151.16848  21306020.3644   21306016.3994
       879.7344
  -1592290.66049  -1240037.21248  21708419.7474   21708414.5214
      -198.3594
   7304303.59649   5671209.89647  22776571.1464   22776567.2354
     -2862.2034
  -5421308.15349  -4213055.96747  23340949.1384   23340944.4814
      2544.1564
  -3448257.55749  -2677237.70848  21045877.8174   21045873.5094
       555.8444
 04  9 17 15 30 15.0010000  0  5G 1G11G14G20G25
  -3603264.43749  -2803405.89848  21303515.9974   21303512.0484
       874.9534
  -1589248.66749  -1237666.82748  21708998.7634   21708993.4464
      -207.2504
   7347246.48749   5704671.86747  22784743.1534   22784738.5404
     -2863.5164
  -5459465.15349  -4242788.68247  23333688.2714   23333683.6464
      2543.3134
  -3456531.40649  -2683684.86248  21044303.7164   21044299.1774
       547.3134
 04  9 17 15 30 30.0010000  0  5G 1G11G14G20G25
  -3616351.29549  -2813603.43848  21301025.8024   21301021.7944
       869.8594
  -1586071.48249  -1235191.11248  21709603.2714   21709598.0444
      -216.4374
   7390211.19749   5738150.85447  22792919.0674   22792914.9234
     -2865.2034
  -5497606.52349  -4272509.22847  23326430.2634   23326425.6884
      2542.1414
  -3464675.10349  -2690030.58948  21042754.0524   21042749.7514
       538.5164
 04  9 17 15 30 45.0010000  0  5G 1G11G14G20G25
  -3629365.68149  -2823744.52348  21298549.0604   21298545.2744
       865.0314
  -1582759.84149  -1232610.62548  21710233.4584   21710228.4194
      -225.3754
   7433196.71449   5771646.02547  22801098.9424   22801094.8024
     -2866.5164
  -5535733.13449  -4302218.27047  23319174.7634   23319170.2904
      2541.1564
  -3472689.51549  -2696275.58048  21041228.9114   21041224.3024
       529.8914
 04  9 17 15 31  0.0010000  0  5G 1G11G14G20G25
  -3642307.52749  -2833829.07848  21296086.3724   21296081.7554
       860.3754
  -1579313.66749  -1229925.30048  21710889.2314   21710884.1064
      -234.1564
   7476202.96649   5805157.37747  22809283.2084   22809278.4194
     -2867.7664
  -5573844.67749  -4331915.58447  23311922.3644   23311917.5914
      2540.3444
  -3480574.43449  -2702419.67548  21039728.3334   21039723.9504
       521.3444
 04  9 17 15 31 15.0010000  0  5G 1G11G14G20G25
  -3655174.19449  -2843855.04648  21293637.8644   21293633.6654
       855.1414
  -1575730.29249  -1227133.07448  21711571.2944   21711565.9274
      -243.5004
   7519232.41649   5838686.79447  22817471.3024   22817466.7204
     -2869.5164
  -5611938.28749  -4361598.91147  23304672.9744   23304668.7824
      2538.8914
  -3488327.09049  -2708460.71448  21038253.0754   21038248.8494
       512.2974
 04  9 17 15 31 30.0010000  0  5G 1G11G14G20G25
  -3667967.84849  -2853824.13248  21291203.2084   21291199.2434
       850.4534
  -1572011.82749  -1224235.58048  21712278.6144   21712274.2394
      -252.3754
   7562282.83149   5872232.54547  22825663.6304   22825659.0444
     -2870.7344
  -5650015.89749  -4391269.74447  23297427.0214   23297423.1384
      2538.0314
  -3495949.58349  -2714400.31548  21036802.6924   21036798.0564
       503.8444
 04  9 17 15 31 45.0010000  0  5G 1G11G14G20G25
  -3680690.26949  -2863737.70248  21288782.3174   21288778.2044
       845.5784
  -1568159.94149  -1221234.11148  21713011.7944   21713006.8214
      -261.5004
   7605352.25749   5905793.13047  22833859.3414   22833854.8924
     -2872.0624
  -5688078.98549  -4420929.29747  23290184.0754   23290179.8994
      2536.7814
  -3503443.58249  -2720239.79048  21035376.5754   21035372.3684
       495.1564
 04  9 17 15 32  0.0010000  0  5G 1G11G14G20G25
  -3693339.25849  -2873594.05848  21286375.3174   21286370.9744
       840.9384
  -1564172.41349  -1218126.96348  21713770.4034   21713765.8644
      -270.2504
   7648442.84849   5939370.18947  22842059.0914   22842054.6814
     -2873.3594
  -5726125.29049  -4450575.74947  23282943.7784   23282940.0524
      2536.0164
  -3510806.76849  -2725977.33348  21033975.5134   21033971.2984
       486.6254
 04  9 17 15 32 15.0010000  0  5G 1G11G14G20G25
  -3705915.45249  -2883393.68848  21283982.0444   21283978.3994
       836.1564
  -1560049.87149  -1214914.60448  21714554.9584   21714550.1734
      -279.1564
   7691553.78349   5972963.10947  22850262.7714   22850258.5604
     -2874.5784
  -5764155.17649  -4480209.40947  23275707.3804   23275703.1884
      2534.9224
  -3518039.68149  -2731613.37548  21032599.2394   21032594.8134
       478.0314
 04  9 17 15 32 30.0010000  0  5G 1G11G14G20G25
  -3718418.95049  -2893136.66948  21281602.7314   21281598.6924
       831.0944
  -1555792.40749  -1211597.11048  21715365.1064   21715360.3104
      -288.3914
   7734685.00449   6006571.83147  22858470.4274   22858465.7004
     -2876.1724
  -5802168.53149  -4509830.20647  23268473.9584   23268469.5714
      2533.6254
  -3525142.32849  -2737147.89948  21031247.2164   21031242.8644
       469.1094
 04  9 17 15 32 45.0010000  0  6G 1G11G14G23G20G25
  -3730847.87049  -2902821.55048  21279237.8724   21279233.6774
       826.2034
  -1551398.11849  -1208173.00748  21716201.7944   21716196.3214
      -297.4064
   7777838.19549   6040197.67547  22866682.2864   22866677.5754
     -2877.5164
    -97119.56959    -60287.81557  24472503.5674   24472496.8884
      2548.6564
  -5840163.36149  -4539436.56447  23261243.6064   23261238.7284
      2532.4224
  -3532112.81149  -2742579.44248  21029921.0054   21029916.8024
       460.3914
 04  9 17 15 33  0.0010000  0  6G 1G11G14G23G20G25
  -3743206.60749  -2912451.72248  21276885.9504   21276882.0244
       821.5164
  -1546871.19449  -1204645.53548  21717062.9504   21717057.7204
      -306.3124
   7821008.90349   6073837.16747  22874897.1464   22874892.3064
     -2878.7194
   -135335.66349    -90066.55447  24465231.3254   24465224.2514
      2546.7034
  -5878143.72649  -4569031.66847  23254016.1854   23254011.0174
      2531.4534
  -3538955.24149  -2747911.21048  21028618.8804   21028614.6924
       451.8134
 04  9 17 15 33 15.0010000  0  6G 1G11G14G23G20G25
  -3755494.76849  -2922026.91848  21274547.4274   21274543.5364
       816.9224
  -1542211.39549  -1201014.53748  21717949.6304   21717944.8064
      -315.0474
   7864197.38849   6107490.50947  22883115.9034   22883111.3534
     -2879.7664
   -173523.12049   -119823.01947  24457964.2714   24457957.7714
      2544.9694
  -5916109.02149  -4598615.00547  23246791.6304   23246786.4664
      2530.5164
  -3545669.20449  -2753142.86148  21027341.3564   21027337.2474
       443.3594
 04  9 17 15 33 30.0010000  0  6G 1G11G14G23G20G25
  -3767709.77849  -2931545.11648  21272222.9744   21272219.1384
       811.5784
  -1537416.27549  -1197278.09448  21718862.4114   21718857.5244
      -324.5314
   7907406.14649   6141159.65347  22891338.1924   22891333.7284
     -2881.5624
   -211679.18049   -149554.99746  24450703.4584   24450697.0914
      2542.3134
  -5954056.37149  -4628184.36547  23239570.6854   23239565.5874
      2528.9384
  -3552252.10149  -2758272.39748  21026088.6774   21026084.1694
       434.1884
 04  9 17 15 33 45.0010000  0  6G 1G11G14G23G20G25
  -3779849.80249  -2941004.87148  21269912.8414   21269908.5674
       806.8284
  -1532483.50449  -1193434.37948  21719800.5914   21719796.0054
      -333.3594
   7950637.03449   6174846.03847  22899564.9424   22899559.9814
     -2882.7194
   -249801.80849   -179260.94347  24443447.7864   24443442.3764
      2540.4224
  -5991983.70549  -4657738.13247  23232353.0214   23232348.3564
      2527.8754
  -3558701.92949  -2763298.23148  21024861.0834   21024856.7514
       425.5944
 04  9 17 15 34  0.0010000  0  6G 1G11G14G23G20G25
  -3791917.59249  -2950408.34448  21267616.2164   21267612.5174
       802.0314
  -1527415.92549  -1189485.62748  21720765.1224   21720759.4074
      -342.4694
   7993887.15349   6208547.40547  22907795.0054   22907790.1144
     -2884.1094
   -287893.76449   -208942.98447  24436199.6064   24436193.6694
      2538.3444
  -6029893.56949  -4687278.28647  23225138.9274   23225134.3764
      2526.6094
  -3565021.28949  -2768222.40548  21023658.7634   21023654.2744
       416.8594
 04  9 17 15 34 15.0010000  0  6G 1G11G14G23G20G25
  -3803914.04049  -2959756.21748  21265333.5134   21265329.6424
       797.2814
  -1522214.44949  -1185432.53848  21721754.9974   21721749.6424
      -351.3444
   8037155.38349   6242262.90447  22916028.5834   22916023.9894
     -2885.2814
   -325955.74449   -238601.66847  24428956.5524   24428951.0524
      2536.2974
  -6067786.68649  -4716805.40047  23217927.9744   23217923.4464
      2525.5474
  -3571211.16449  -2773045.67248  21022480.8724   21022475.9624
       408.1884
 04  9 17 15 34 30.0010000  0  6G 1G11G14G23G20G25
  -3815837.17049  -2969046.96848  21263064.6464   21263060.6924
       792.7664
  -1516876.90249  -1181273.42448  21722770.7164   21722765.5714
      -360.0624
   8080443.78949   6275994.12647  22924265.9814   22924261.5994
     -2886.2344
   -363985.77249   -268235.43147  24421720.2864   24421714.1464
      2534.5004
  -6105660.78749  -4746317.67447  23210721.1384   23210716.3024
      2524.5944
  -3577269.48849  -2777766.44448  21021327.9034   21021323.7084
       399.7504
 04  9 17 15 34 45.0010000  0  6G 1G11G14G23G20G25
  -3827688.57549  -2978281.82948  21260809.2394   21260805.5794
       787.6414
  -1511404.96149  -1177009.58548  21723811.9504   21723806.7944
      -369.2974
   8123750.64549   6309739.69947  22932506.7864   22932502.9504
     -2887.8284
   -401985.33749   -297845.51547  24414489.2864   24414482.9544
      2532.2344
  -6143517.33749  -4775816.26847  23203517.2314   23203512.9544
      2523.1724
  -3583197.59449  -2782385.73948  21020199.7164   21020195.2594
       390.8134
 04  9 17 15 35  0.0010000  0  6G 1G11G14G23G20G25
  -3839466.72849  -2987459.61548  21258568.3104   21258564.4974
       782.6884
  -1505797.14649  -1172639.87848  21724879.5054   21724874.1574
      -378.4844
   8167077.38049   6343500.76547  22940752.4584   22940747.9194
     -2889.2034
   -439952.77049   -327430.46646  24407263.8564   24407257.8604
      2530.0314
  -6181354.50449  -4805299.77747  23196316.8724   23196312.1854
      2521.7814
  -3588993.83249  -2786902.29748  21019096.9664   21019092.5524
       381.8754
 04  9 17 15 35 15.0010000  0  6G 1G11G14G23G20G25
  -3851172.48049  -2996580.97748  21256340.8414   21256337.3134
       777.9224
  -1500054.33949  -1168164.97248  21725972.1464   21725967.0794
      -387.3914
   8210422.92549   6377276.45647  22949000.6304   22948995.9384
     -2890.3124
   -477888.88549   -356991.09747  24400044.4504   24400039.2084
      2527.9844
  -6219172.97249  -4834768.70647  23189120.3174   23189115.9194
      2520.6254
  -3594659.02049  -2791316.72948  21018019.0134   21018013.8994
       373.2504
 04  9 17 15 35 30.0010000  0  6G 1G11G14G23G20G25
  -3862806.70049  -3005646.60548  21254126.7864   21254122.7594
       773.1724
  -1494177.23449  -1163585.41848  21727090.1924   21727085.5524
      -396.3124
   8253786.47149   6411066.23547  22957252.1774   22957248.2434
     -2891.5784
   -515794.33649   -386527.83347  24392832.4114   24392825.7284
      2525.8754
  -6256973.29049  -4864223.48647  23181926.7864   23181922.6104
      2519.3284
  -3600193.92249  -2795629.63848  21016965.5604   21016961.4464
       364.5634
 04  9 17 15 35 45.0010000  0  6G 1G11G14G23G20G25
  -3874368.04449  -3014655.45348  21251926.4894   21251922.8994
       768.3914
  -1488164.60149  -1158900.26148  21728234.6464   21728229.3724
      -405.2814
   8297169.20749   6444870.94347  22965507.3414   22965503.4194
     -2892.7664
   -553667.72549   -416039.54047  24385625.2244   24385618.6884
      2523.9224
  -6294753.93649  -4893662.96247  23174737.7714   23174733.0484
      2518.1564
  -3605597.16849  -2799839.95448  21015937.2244   21015933.2284
       355.8594
 04  9 17 15 36  0.0010000  0  6G 1G11G14G23G20G25
  -3885859.23949  -3023609.62648  21249739.7784   21249736.2984
       763.6414
  -1482019.03249  -1154111.52448  21729403.7244   21729398.8994
      -414.2814
   8340568.28349   6478688.38047  22973766.7864   22973761.8964
     -2893.9224
   -591511.70749   -445528.34947  24378423.6464   24378417.7784
      2521.8134
  -6332517.43149  -4923089.04947  23167551.3724   23167546.8924
      2516.8594
  -3610871.41349  -2803949.75148  21014933.3724   21014929.2744
       347.1724
 04  9 17 15 36 15.0010000  0  6G 1G11G14G23G20G25
  -3897278.12749  -3032507.45748  21247566.9274   21247563.0444
       758.7814
  -1475738.44049  -1149217.56748  21730599.0524   21730594.0404
      -423.2664
   8383985.81949   6512520.21147  22982028.8334   22982023.8414
     -2895.2034
   -629323.77449   -474992.28047  24371228.2944   24371221.7594
      2519.6254
  -6370261.33049  -4952499.87947  23160368.8334   23160364.3494
      2515.5004
  -3616014.36449  -2807957.24648  21013955.2084   21013950.7554
       338.4064
 04  9 17 15 36 30.0010000  0  6G 1G11G14G23G20G25
  -3908626.63749  -3041350.45148  21245407.2784   21245403.7314
       754.0784
  -1469324.62049  -1144219.79448  21731819.4974   21731814.3414
      -432.2504
   8427419.75349   6546364.81947  22990294.2944   22990289.6304
     -2896.3914
   -667105.79549   -504432.82847  24364038.2864   24364032.4784
      2517.6094
  -6407987.29149  -4981896.71947  23153190.4814   23153185.4584
      2514.2344
  -3621027.89549  -2811863.89748  21013001.1064   21012996.3644
       329.7664
 04  9 17 15 36 45.0010000  0  6G 1G11G14G23G20G25
  -3919902.53149  -3050136.86548  21243261.3804   21243257.5484
       749.1414
  -1462775.24049  -1139116.40048  21733066.4114   21733061.1694
      -441.3444
   8470872.32249   6580223.92847  22998562.6384   22998558.2394
     -2897.6414
   -704855.53549   -533848.18047  24356854.7944   24356848.9114
      2515.4224
  -6445692.90249  -5011277.74347  23146015.0994   23146010.3214
      2512.8444
  -3625909.71949  -2815667.91448  21012071.9424   21012067.3334
       320.8594
 04  9 17 15 37  0.0010000  0  6G 1G11G14G23G20G25
  -3931104.85249  -3058865.94648  21241129.9034   21241126.1854
       744.5474
  -1456089.35249  -1133906.62548  21734338.1384   21734333.3104
      -450.0784
   8514344.32049   6614098.20647  23006835.0364   23006830.5094
     -2898.5944
   -742572.03249   -563237.66047  24349677.6064   24349672.1774
      2513.5634
  -6483376.93749  -5040641.89447  23138843.7004   23138839.3604
      2511.6884
  -3630658.70049  -2819368.41348  21011168.1534   21011163.3884
       312.3444
 04  9 17 15 37 15.0010000  0  6G 1G11G14G23G20G25
  -3942234.97849  -3067538.77148  21239011.7714   21239007.9814
       739.7504
  -1449268.32449  -1128591.54248  21735636.6144   21735631.8064
      -459.0944
   8557834.33249   6647986.50047  23015110.7004   23015106.7714
     -2899.8444
   -780256.43949   -592602.12447  24342506.5834   24342500.3604
      2511.2974
  -6521040.54949  -5069990.18047  23131676.9974   23131672.1734
      2510.2664
  -3635276.18949  -2822966.44748  21010289.5524   21010284.9544
       303.5634
 04  9 17 15 37 30.0010000  0  6G 1G11G14G23G20G25
  -3953293.30849  -3076155.65648  21236907.8174   21236903.8994
       734.7194
  -1442312.62649  -1123171.54248  21736960.2084   21736954.8994
      -468.3124
   8601341.85549   6681888.43547  23023390.3724   23023385.7744
     -2901.2814
   -817909.17949   -621941.89847  24335340.8334   24335335.3924
      2508.9844
  -6558684.03049  -5099322.75647  23124513.4744   23124509.2824
      2508.7664
  -3639762.46149  -2826462.25048  21009436.0524   21009431.4034
       294.6094
 04  9 17 15 37 45.0010000  0  6G 1G11G14G23G20G25
  -3964281.48449  -3084717.87448  21234816.4894   21234812.8494
       730.0784
  -1435223.86349  -1117647.83348  21738308.7314   21738303.3884
      -477.1564
   8644865.07849   6715802.61247  23031672.6304   23031668.3254
     -2902.2504
   -855531.71049   -651258.17947  24328182.3564   24328175.8564
      2507.0474
  -6596308.65449  -5128640.64447  23117353.8254   23117348.8604
      2507.5004
  -3644119.18049  -2829857.08648  21008606.9424   21008602.3134
       286.0164
 04  9 17 15 38  0.0010000  0  6G 1G11G14G23G20G25
  -3975200.05849  -3093225.84448  21232738.9974   21232734.6924
       725.6254
  -1428002.54249  -1112020.84248  21739682.9584   21739678.0324
      -485.7814
   8688403.43949   6749728.58747  23039957.3644   23039953.0404
     -2903.0164
   -893124.40449   -680551.17947  24321028.0914   24321022.2204
      2505.1884
  -6633914.80949  -5157944.13447  23110197.6304   23110193.1304
      2506.5164
  -3648346.76149  -2833151.30648  21007802.4424   21007798.0134
       277.6254
 04  9 17 15 38 15.0010000  0  6G 1G11G14G23G20G25
  -3986045.91449  -3101677.17048  21230675.1064   21230670.9274
       720.7034
  -1420645.51149  -1106288.10748  21741082.9114   21741077.7634
      -494.9374
   8731959.94449   6783668.70747  23048246.2314   23048241.3924
     -2904.3594
   -930684.19549   -709818.56147  24313880.6774   24313874.8414
      2502.9224
  -6671499.15049  -5187230.63347  23103045.5754   23103040.7044
      2504.9844
  -3652442.01649  -2836342.41448  21007023.0834   21007018.5014
       268.6254
 04  9 17 15 38 30.0010000  0  6G 1G11G14G23G20G25
  -3996819.35149  -3110072.05048  21228624.8644   21228620.8024
       715.7504
  -1413153.06449  -1100449.83848  21742508.9894   21742503.8644
      -504.0944
   8775534.18049   6817622.63947  23056537.8964   23056533.3564
     -2905.5784
   -968211.13049   -739060.27647  24306739.9814   24306733.5214
      2500.7814
  -6709061.68349  -5216500.12347  23095897.5214   23095893.1814
      2503.3914
  -3656405.16449  -2839430.58048  21006268.8644   21006264.6854
       259.7664
 04  9 17 15 38 45.0010000  0  6G 1G11G14G23G20G25
  -4007523.74949  -3118413.14448  21226588.0284   21226583.9314
       711.1254
  -1405528.63949  -1094508.74348  21743959.8254   21743954.7984
      -512.8754
   8819122.81149   6851587.76747  23064832.4664   23064828.0914
     -2906.6094
  -1005708.45449   -768279.00047  24299603.9194   24299597.7204
      2498.5784
  -6746605.49649  -5245755.04247  23088753.7714   23088748.7514
      2502.0314
  -3660239.43849  -2842418.32148  21005539.5134   21005535.0364
       251.1094
 04  9 17 15 39  0.0010000  0  6G 1G11G14G23G20G25
  -4018156.18349  -3126698.15148  21224564.4194   21224560.3884
       706.4534
  -1397769.09249  -1088462.36148  21745436.4894   21745431.3534
      -521.7664
   8862728.56149   6885566.24447  23073130.7714   23073125.9854
     -2907.5784
  -1043173.13249   -797472.26247  24292474.8414   24292468.8644
      2496.6564
  -6784127.52849  -5274992.98747  23081613.0994   23081607.8534
      2500.8444
  -3663941.81749  -2845303.28748  21004834.6614   21004830.2004
       242.4534
 04  9 17 15 39 15.0010000  0  6G 1G11G14G23G20G25
  -4028717.94349  -3134928.10048  21222554.7004   21222551.3254
       701.5944
  -1389875.78149  -1082311.73148  21746938.3024   21746933.3104
      -530.8284
   8906350.08749   6919557.03647  23081431.2554   23081426.9114
     -2908.8124
  -1080606.33249   -826640.95347  24285351.3104   24285345.2084
      2494.3914
  -6821628.75049  -5304214.70547  23074476.6144   23074472.1534
      2499.2664
  -3667513.73849  -2848086.60448  21004154.8334   21004150.2124
       233.6564
 04  9 17 15 39 30.0010000  0  6G 1G11G14G23G20G25
  -4039205.65849  -3143100.35648  21220558.8724   21220555.0404
       696.8134
  -1381845.31349  -1076054.24048  21748466.6384   21748461.2084
      -539.8444
   8949990.75149   6953562.72747  23089735.8334   23089731.5634
     -2909.9064
  -1118004.64949   -855782.50047  24278234.8024   24278228.7434
      2492.0474
  -6859105.57649  -5333417.42347  23067345.4504   23067340.7904
      2497.7034
  -3670951.62449  -2850765.47648  21003500.8254   21003496.8174
       224.8284
 04  9 17 15 39 45.0010000  0  6G 1G11G14G23G20G25
  -4049617.87849  -3151213.76448  21218577.8104   21218573.9744
       691.7664
  -1373676.26549  -1069688.75448  21750021.0054   21750015.6264
      -549.1094
   8993651.84949   6987584.33047  23098044.2714   23098039.7824
     -2911.3594
  -1155366.59549   -884895.68447  24271125.2634   24271118.6144
      2489.5944
  -6896556.38249  -5362599.85947  23060218.4504   23060213.6654
      2495.9844
  -3674253.89249  -2853338.67048  21002872.2714   21002867.9194
       215.7194
 04  9 17 15 40  0.0010000  0  6G 1G11G14G23G20G25
  -4059957.96249  -3159270.96948  21216610.0444   21216606.2984
       686.9534
  -1365372.09349  -1063217.97648  21751601.0604   21751596.0954
      -558.0784
   9037330.02049   7021619.25447  23106355.9274   23106351.6534
     -2912.4224
  -1192695.36349   -913983.05247  24264020.8644   24264015.6654
      2487.4844
  -6933984.21249  -5391764.40847  23053096.2474   23053091.6494
      2494.3914
  -3677423.99749  -2855808.88248  21002269.3414   21002264.6344
       206.9534
 04  9 17 15 40 15.0010000  0  6G 1G11G14G23G20G25
  -4070225.34449  -3167271.53248  21214656.0754   21214652.1184
       682.0944
  -1356932.03049  -1056641.32448  21753207.3104   21753202.5174
      -567.1414
   9081025.68449   7055667.79647  23114670.5524   23114667.2204
     -2913.5474
  -1229990.27449   -943043.98247  24256924.9274   24256918.8254
      2485.2664
  -6971388.29649  -5420910.43647  23045978.3494   23045973.9894
      2492.8444
  -3680461.31449  -2858175.62148  21001691.2944   21001686.8604
       198.1254
 04  9 17 15 40 30.0010000  0  6G 1G11G14G23G20G25
  -4080421.07049  -3175216.26348  21212716.0994   21212711.9894
       677.5634
  -1348357.32149  -1049959.74848  21754839.2314   21754833.9234
      -575.8754
   9124737.65749   7089729.04647  23122989.4974   23122985.4464
     -2914.5004
  -1267252.33849   -972079.36247  24249833.4814   24249828.0714
      2483.2344
  -7008769.40949  -5450038.58347  23038865.3884   23038860.0244
      2491.5474
  -3683366.67949  -2860439.53848  21001138.4504   21001134.4314
       189.6094
 04  9 17 15 40 45.0010000  0  6G 1G11G14G23G20G25
  -4090545.13849  -3183105.13448  21210789.5604   21210785.5714
       672.6254
  -1339647.95549  -1043173.23148  21756496.6534   21756491.4624
      -585.0164
   9168465.92949   7123802.99947  23131310.3724   23131306.2744
     -2915.6564
  -1304481.33249  -1001088.99047  24242749.0834   24242743.5324
      2480.8914
  -7046127.32149  -5479148.63747  23031756.1224   23031751.3254
      2489.8134
  -3686140.02849  -2862600.59048  21000610.7084   21000606.3454
       180.5314
 04  9 17 15 41  0.0010000  0  6G 1G11G14G23G20G25
  -4100595.77749  -3190936.80948  21208876.6854   21208872.9314
       667.8284
  -1330801.99749  -1036280.29048  21758179.8414   21758175.1104
      -594.1254
   9212212.18049   7157890.97647  23139635.4584   23139630.8064
     -2916.8594
  -1341675.42249  -1030071.35847  24235671.6304   24235665.9354
      2478.6564
  -7083460.07349  -5508239.08147  23024651.9584   23024647.3964
      2488.2034
  -3688779.65749  -2864657.43948  21000108.1694   21000104.1264
       171.6884
 04  9 17 15 41 15.0010000  0  6G 1G11G14G23G20G25
  -4110574.98149  -3198712.81648  21206977.8334   21206973.9234
       662.7344
  -1321821.56949  -1029282.57348  21759888.7864   21759883.5284
      -603.3594
   9255974.37049   7191991.35347  23147962.6384   23147958.5444
     -2918.1874
  -1378836.46749  -1059027.99447  24228599.9034   24228594.3764
      2476.1414
  -7120769.29049  -5537311.20347  23017551.9424   23017547.4154
      2486.3754
  -3691287.23549  -2866611.40348  20999631.0604   20999626.4464
       162.6254
 04  9 17 15 41 30.0010000  0  6G 1G11G14G23G20G25
  -4120486.70549  -3206436.23548  21205092.1144   21205088.0094
       658.4844
  -1312710.54049  -1022183.08248  21761622.6774   21761617.5604
      -611.7664
   9299748.46549   7226101.02347  23156292.5914   23156288.2784
     -2918.6874
  -1415968.39749  -1087961.97847  24221533.9274   24221528.6104
      2474.5474
  -7158058.75149  -5566367.92047  23010456.1144   23010451.2514
      2485.3134
  -3693666.84649  -2868465.65048  20999178.1694   20999173.8174
       154.3134
 04  9 17 15 41 45.0010000  0  6G 1G11G14G23G20G25
  -4130325.45849  -3214102.80848  21203219.4974   21203215.5174
       653.3134
  -1303463.47549  -1014977.59548  21763382.3884   21763377.0484
      -621.1724
   9343539.97849   7260224.24147  23164625.4664   23164621.0284
     -2920.1414
  -1453065.46749  -1116868.78647  24214474.6924   24214469.1304
      2471.8754
  -7195322.69249  -5595404.74747  23003364.7314   23003360.1384
      2483.2504
  -3695912.91349  -2870215.83948  20998751.1064   20998746.4114
       145.1254
 04  9 17 15 42  0.0010000  0  6G 1G11G14G23G20G25
  -4140091.06249  -3221712.35748  21201361.2314   21201357.3254
       648.8914
  -1294080.16149  -1007665.92048  21765168.0284   21765162.9114
      -629.8124
   9387348.95249   7294361.08447  23172962.2634   23172957.9894
     -2920.8444
  -1490127.36949  -1145748.19047  24207422.3104   24207416.3534
      2469.8914
  -7232560.62049  -5624421.30747  22996278.9274   22996274.1224
      2481.9384
  -3698025.26549  -2871861.82148  20998349.0604   20998344.4464
       136.7034
 04  9 17 15 42 15.0010000  0  6G 1G11G14G23G20G25
  -4149785.36849  -3229266.36148  21199516.4194   21199512.9234
       644.0004
  -1284562.53049  -1000249.59248  21766979.0054   21766973.8564
      -638.9064
   9431173.46749   7328510.04747  23181302.0524   23181298.0054
     -2922.0784
  -1527156.02449  -1174601.67347  24200375.9114   24200369.8924
      2467.5004
  -7269774.18449  -5653418.88647  22989197.4744   22989192.7634
      2480.1564
  -3700005.67349  -2873404.99048  20997972.3104   20997967.9974
       127.7034
 04  9 17 15 42 30.0010000  0  6G 1G11G14G23G20G25
  -4159407.68349  -3236764.27548  21197685.0994   21197681.5794
       639.2664
  -1274909.75249   -992727.96448  21768815.8884   21768810.7434
      -647.8594
   9475014.12549   7362671.58047  23189644.4274   23189640.0634
     -2923.0624
  -1564150.47049  -1203428.49947  24193336.4034   24193330.1574
      2465.3134
  -7306962.44349  -5682396.74447  22982120.6854   22982116.0324
      2478.5314
  -3701853.29549  -2874844.69748  20997620.3024   20997615.9894
       118.9384
 04  9 17 15 42 45.0010000  0  6G 1G11G14G23G20G25
  -4168958.94849  -3244206.81448  21195867.7944   21195864.0324
       634.5474
  -1265122.79149   -985101.78048  21770678.1924   21770673.2824
      -656.7344
   9518869.98249   7396844.94847  23197990.3414   23197985.9274
     -2924.0164
  -1601111.58149  -1232229.34847  24186303.0604   24186296.3494
      2463.1724
  -7344126.06649  -5711355.41047  22975048.9354   22975043.9074
      2476.9064
  -3703569.01549  -2876181.61748  20997293.9354   20997289.3844
       110.1724
 04  9 17 15 43  0.0010000  0  6G 1G11G14G23G20G25
  -4178440.69149  -3251595.19848  21194063.4744   21194059.6464
       629.5784
  -1255203.18649   -977372.22548  21772566.0834   21772560.9584
      -666.0164
   9562739.39649   7431028.87247  23206338.9814   23206334.4384
     -2925.3754
  -1638040.77649  -1261005.34447  24179275.3174   24179268.9664
      2460.6414
  -7381266.27249  -5740295.84347  22967980.8104   22967976.4384
      2474.9384
  -3705154.18249  -2877416.82348  20996992.1224   20996988.0014
       101.0784
 04  9 17 15 43 15.0010000  0  6G 1G11G14G23G20G25
  -4187847.81049  -3258925.41548  21192273.6534   21192269.6264
       624.7814
  -1245145.89049   -969535.38148  21774479.7864   21774475.0674
      -674.9534
   9606627.43849   7465227.33047  23214690.1064   23214685.6884
     -2926.3754
  -1674932.87849  -1289752.44047  24172255.1534   24172249.2124
      2458.3754
  -7418377.75749  -5769213.87747  22960919.3104   22960914.4974
      2473.3134
  -3706603.78349  -2878546.37848  20996716.2394   20996712.2944
        92.2194
 04  9 17 15 43 30.0010000  0  6G 1G11G14G23G20G25
  -4197186.03249  -3266201.95148  21190496.4664   21190492.9664
       620.1254
  -1234956.60649   -961595.69548  21776418.9034   21776413.8134
      -683.8594
   9650528.20849   7499435.70547  23223044.2554   23223039.6424
     -2927.2814
  -1711793.53949  -1318475.00247  24165241.0754   24165234.1264
      2456.1724
  -7455466.08449  -5798113.86747  22953861.5754   22953856.8994
      2471.6724
  -3707923.51749  -2879574.74748  20996465.4354   20996461.1854
        83.5474
 04  9 17 15 43 45.0010000  0  6G 1G11G14G23G20G25
  -4206452.10949  -3273422.27948  21188733.0604   21188729.2004
       615.6094
  -1224632.03749   -953550.59248  21778383.3644   21778378.7634
      -692.6094
   9694444.89849   7533656.46447  23231401.5834   23231396.7824
     -2928.0944
  -1748619.28749  -1347170.40647  24158233.0994   24158226.7474
      2454.1414
  -7492527.67249  -5826993.02547  22946808.9744   22946804.2714
      2470.0784
  -3709110.13249  -2880499.38948  20996239.5054   20996235.3064
        74.9064
 04  9 17 15 44  0.0010000  0  6G 1G11G14G23G20G25
  -4215647.82049  -3280587.76748  21186983.3494   21186979.6774
       610.7194
  -1214173.94749   -945401.43848  21780373.5674   21780368.5674
      -701.6094
   9738375.78949   7567888.30747  23239760.5914   23239756.5754
     -2929.1564
  -1785411.86949  -1375839.92547  24151231.8494   24151225.1964
      2451.7194
  -7529564.04649  -5855852.53247  22939760.7554   22939756.5484
      2468.2504
  -3710165.37549  -2881321.66548  20996038.6464   20996033.9314
        66.0004
 04  9 17 15 44 15.0010000  0  6G 1G11G14G23G20G25
  -4224770.66749  -3287696.48348  21185247.3334   21185243.3924
       605.8444
  -1203580.00949   -937146.43548  21782389.3564   21782384.6694
      -710.6874
   9782323.16049   7602132.99947  23248124.2314   23248119.1264
     -2930.3124
  -1822168.62649  -1404481.55147  24144237.2474   24144230.8064
      2449.4064
  -7566572.50949  -5884690.30347  22932718.6854   22932714.1104
      2466.3754
  -3711086.68249  -2882039.57248  20995863.1384   20995858.5914
        57.0474
 04  9 17 15 44 30.0010000  0  6G 1G11G14G23G20G25
  -4233823.38549  -3294750.55848  21183524.6064   21183520.3024
       600.8914
  -1192852.85049   -928787.63248  21784430.5914   21784425.9424
      -719.8124
   9826284.33449   7636388.41547  23256489.4584   23256485.1734
     -2931.5164
  -1858892.31649  -1433097.42247  24137249.3024   24137242.7124
      2446.8284
  -7603555.48949  -5913508.21547  22925680.8174   22925676.3604
      2464.4224
  -3711876.65849  -2882655.14548  20995713.2004   20995708.7204
        48.0004
 04  9 17 15 44 45.0010000  0  6G 1G11G14G23G20G25
  -4242800.40549  -3301745.63648  21181816.2634   21181812.4934
       595.9844
  -1181987.00249   -920320.75048  21786498.6144   21786493.5754
      -728.9374
   9870264.69649   7670658.81247  23264858.8254   23264854.0214
     -2932.5944
  -1895577.10649  -1461682.94847  24130267.2714   24130261.7434
      2444.3914
  -7640507.20949  -5942301.74747  22918649.6304   22918644.6264
      2462.4224
  -3712529.74449  -2883164.04248  20995588.5364   20995583.5604
        39.0474
 04  9 17 15 45  0.0010000  0  6G 1G11G14G23G20G25
  -4251702.82149  -3308682.57748  21180121.9424   21180118.3764
       591.1564
  -1170983.52649   -911746.60848  21788592.7084   21788587.5134
      -737.9844
   9914263.28749   7704943.40947  23273231.5754   23273227.2904
     -2933.6564
  -1932224.19249  -1490239.10847  24123294.2084   24123287.9664
      2442.0634
  -7677428.46449  -5971071.54847  22911623.4974   22911618.8564
      2460.5784
  -3713046.90549  -2883567.01748  20995490.2394   20995486.1264
        30.0784
 04  9 17 15 45 15.0010000  0  6G 1G11G14G23G20G25
  -4260533.55949  -3315563.67348  21178441.6774   21178438.2394
       586.2664
  -1159845.38349   -903067.55448  21790711.8104   21790706.8564
      -747.0784
   9958276.96049   7739239.75647  23281606.6694   23281601.9974
     -2934.7504
  -1968836.18049  -1518767.92347  24116326.9744   24116320.7824
      2439.6094
  -7714321.92049  -5999819.70747  22904602.8254   22904598.3454
      2458.4694
  -3713431.05649  -2883866.36648  20995416.9424   20995412.8494
        21.1414
 04  9 17 15 45 30.0010000  0  6G 1G11G14G23G20G25
  -4269291.41949  -3322387.98248  21176774.9814   21176771.3724
       581.3284
  -1148571.34349   -894282.59848  21792857.4274   21792852.1064
      -756.2194
  10002306.88549   7773548.77147  23289985.6464   23289981.4974
     -2935.9534
  -2005411.75549  -1547268.37647  24109367.2784   24109360.5874
      2436.9844
  -7751186.08649  -6028545.01847  22897587.6614   22897583.1654
      2456.4694
  -3713680.95249  -2884061.09048  20995369.7164   20995364.9464
        12.0634
 04  9 17 15 45 45.0010000  0  6G 1G11G14G23G20G25
  -4277978.48349  -3329157.13248  21175122.2244   21175117.8024
       576.7504
  -1137163.39449   -885393.30448  21795027.9194   21795023.5564
      -765.0474
  10046350.95849   7807868.77547  23298366.3024   23298362.5284
     -2936.8124
  -2041952.90949  -1575741.98747  24102413.8414   24102407.6184
      2434.8754
  -7788022.66849  -6057248.85247  22890577.5284   22890573.0954
      2454.7664
  -3713798.72249  -2884152.86748  20995347.0134   20995342.5014
         3.4224
 04  9 17 15 46  0.0010000  0  6G 1G11G14G23G20G25
  -4286596.30149  -3335872.31048  21173482.0134   21173478.0094
       572.1564
  -1125623.29049   -876401.02148  21797224.1384   21797219.3374
      -773.8594
  10090407.56149   7842198.58547  23306750.1384   23306746.1184
     -2937.5314
  -2078461.12649  -1604189.92947  24095465.7244   24095459.7004
      2432.7194
  -7824833.10449  -6085932.29747  22883572.9584   22883568.4704
      2453.0474
  -3713785.66249  -2884142.69548  20995349.3964   20995345.1264
        -5.3284
 04  9 17 15 46 15.0010000  0  6G 1G11G14G23G20G25
  -4295144.48149  -3342533.23548  21171855.6614   21171851.7354
       567.2974
  -1113950.66949   -867305.48448  21799445.4114   21799440.6654
      -782.7974
  10134476.95549   7876538.35047  23315136.3804   23315132.3134
     -2938.6564
  -2114935.98349  -1632611.90147  24088525.4894   24088519.3764
      2430.3134
  -7861616.73649  -6114594.87147  22876573.7084   22876568.8804
      2451.0634
  -3713641.55749  -2884030.40348  20995377.1694   20995372.5524
       -14.2034
 04  9 17 15 46 30.0010000  0  6G 1G11G14G23G20G25
  -4303622.18949  -3349139.23548  21170241.8964   21170238.3564
       562.7664
  -1102144.68849   -858106.02948  21801692.2784   21801687.5874
      -791.5474
  10178559.97149   7910888.72247  23323525.5364   23323520.9234
     -2939.4534
  -2151376.48449  -1661007.05847  24081590.8804   24081584.4234
      2428.2034
  -7898372.44249  -6143235.66947  22869579.4664   22869574.8134
      2449.3284
  -3713365.39449  -2883815.21948  20995429.7714   20995425.6264
       -22.8914
 04  9 17 15 46 45.0010000  0  6G 1G11G14G23G20G25
  -4312029.37249  -3355690.29048  21168642.3644   21168638.3884
       558.1564
  -1090205.18649   -848802.53548  21803964.0604   21803959.7004
      -800.3754
  10222656.65349   7945249.74247  23331916.5754   23331912.4744
     -2940.1874
  -2187782.43749  -1689375.32847  24074663.0054   24074656.4314
      2425.9534
  -7935099.91849  -6171854.47847  22862590.0914   22862585.7674
      2447.5944
  -3712957.14649  -2883497.10148  20995507.3334   20995502.8134
       -31.6094
 04  9 17 15 47  0.0010000  0  6G 1G11G14G23G20G25
  -4320363.67049  -3362184.54548  21167056.4814   21167052.6424
       553.3914
  -1078129.85349   -839393.18548  21806262.0134   21806257.1854
      -809.3754
  10266769.31049   7979623.21947  23340310.8724   23340307.1064
     -2941.1724
  -2224151.34349  -1717714.73847  24067741.9974   24067735.7164
      2423.4534
  -7971796.48349  -6200449.20647  22855607.0834   22855602.3964
      2445.5474
  -3712414.37749  -2883074.16548  20995610.5834   20995605.9934
       -40.5004
 04  9 17 15 47 15.0010000  0  6G 1G11G14G23G20G25
  -4328626.10449  -3368622.80248  21165484.3564   21165480.8884
       548.3754
  -1065919.75349   -829878.84348  21808585.5604   21808580.4934
      -818.5944
  10310896.72749   8014008.20047  23348708.3804   23348704.0094
     -2942.3914
  -2260484.16149  -1746025.97847  24060828.1384   24060821.9384
      2420.8594
  -8008462.95149  -6229020.47747  22848629.7314   22848625.4074
      2443.3444
  -3711738.11349  -2882547.21648  20995739.3884   20995735.2944
       -49.6414
 04  9 17 15 47 30.0010000  0  6G 1G11G14G23G20G25
  -4336819.44249  -3375007.22448  21163925.1144   21163921.0794
       543.7814
  -1053577.69749   -820261.66648  21810934.0994   21810928.6104
      -827.3124
  10355036.26449   8048402.60447  23357107.4114   23357103.2044
     -2943.2194
  -2296783.47249  -1774311.16947  24053920.7164   24053914.5134
      2418.6254
  -8045101.81649  -6257570.23347  22841657.1144   22841653.2354
      2441.4694
  -3710931.03749  -2881918.32748  20995893.1464   20995888.5094
       -58.2814
 04  9 17 15 47 45.0010000  0  6G 1G11G14G23G20G25
  -4344942.70649  -3381337.03548  21162379.2244   21162375.2984
       538.9694
  -1041102.79049   -810540.97048  21813308.0604   21813303.2434
      -836.3594
  10399188.76249   8082807.12947  23365509.6924   23365505.5714
     -2944.1724
  -2333048.17549  -1802569.38847  24047019.7394   24047013.2594
      2416.1414
  -8081711.83349  -6286097.51147  22834690.7474   22834686.6184
      2439.4694
  -3709992.11149  -2881186.69148  20996071.4194   20996066.8534
       -67.2664
 04  9 17 15 48  0.0010000  0  6G 1G11G14G23G20G25
  -4352992.40249  -3387609.52748  21160847.2244   21160843.0284
       534.1884
  -1028491.49249   -800713.99048  21815707.7714   21815702.4814
      -845.3444
  10443357.58849   8117224.36247  23373914.9114   23373910.8024
     -2945.1094
  -2369274.76049  -1830797.86147  24040126.0134   24040119.6614
      2413.8754
  -8118289.25349  -6314599.40647  22827730.4584   22827725.3254
      2437.4224
  -3708917.80949  -2880349.57548  20996275.8644   20996271.3494
       -76.1254
 04  9 17 15 48 15.0010000  0  6G 1G11G14G23G20G25
  -4360972.05349  -3393827.43848  21159328.7944   21159324.4274
       529.5164
  -1015747.51149   -790783.62848  21818132.9504   21818128.3884
      -854.1254
  10487539.33649   8151651.68347  23382322.8564   23382318.1304
     -2946.0314
  -2405466.60949  -1858999.31347  24033238.6614   24033233.0994
      2411.5164
  -8154837.24549  -6343078.35447  22820775.3564   22820770.7284
      2435.3594
  -3707711.60949  -2879409.67548  20996505.6694   20996501.1384
       -84.8754
 04  9 17 15 48 30.0010000  0  6G 1G11G14G23G20G25
  -4368878.67949  -3399988.44548  21157824.4814   21157819.9664
       524.6564
  -1002867.86949   -780747.55548  21820583.9274   21820579.0754
      -863.1724
  10531736.81849   8186091.26347  23390732.9424   23390728.6924
     -2947.0164
  -2441620.69049  -1887171.30747  24026358.8884   24026352.8884
      2409.0164
  -8191352.60349  -6371531.88547  22813826.2004   22813822.2474
      2433.3134
  -3706370.59049  -2878364.73748  20996760.9584   20996756.2944
       -93.8914
 04  9 17 15 48 45.0010000  0  6G 1G11G14G23G20G25
  -4376714.15549  -3406094.01348  21156333.5524   21156329.2284
       520.0944
   -989854.30449   -770607.12548  21823060.4584   21823055.5564
      -871.9224
  10575948.08549   8220541.57047  23399145.6924   23399141.2714
     -2947.7974
  -2477738.76049  -1915315.24047  24019484.7164   24019479.7714
      2406.8134
  -8227836.99049  -6399961.26947  22806883.8964   22806879.5404
      2431.3444
  -3704896.59449  -2877216.16248  20997041.0994   20997036.6494
      -102.6254
 04  9 17 15 49  0.0010000  0  6G 1G11G14G23G20G25
  -4384479.81149  -3412145.16648  21154855.3414   21154851.8644
       515.5314
   -976708.18949   -760363.41248  21825561.6614   21825556.5994
      -880.7504
  10620171.79849   8255001.58147  23407561.2784   23407557.5094
     -2948.6094
  -2513822.00949  -1943432.03447  24012619.1144   24012613.3214
      2404.5314
  -8264291.41349  -6428367.30747  22799946.9034   22799942.6424
      2429.3444
  -3703290.94349  -2875965.02448  20997347.0914   20997342.2434
      -111.2974
 04  9 17 15 49 15.0010000  0  6G 1G11G14G23G20G25
  -4392178.81949  -3418144.39748  21153390.2474   21153385.9934
       510.7974
   -963433.00849   -750019.11948  21828088.1384   21828082.8454
      -889.5314
  10664404.65849   8289468.70547  23415979.2164   23415974.5754
     -2949.3754
  -2549873.52149  -1971524.11447  24005758.5604   24005752.6694
      2402.1094
  -8300718.82049  -6456752.30347  22793015.2554   22793010.3024
      2427.3594
  -3701556.91749  -2874613.82848  20997676.6224   20997672.4544
      -120.1414
 04  9 17 15 49 30.0010000  0  6G 1G11G14G23G20G25
  -4399805.60749  -3424087.35848  21151939.2864   21151934.9974
       506.0474
   -950023.00849   -739569.78748  21830639.8804   21830635.2284
      -898.4694
  10708652.28049   8323947.35747  23424398.2394   23424394.9194
     -2950.4064
  -2585887.62149  -1999587.04947  23998905.2314   23998899.3564
      2399.6724
  -8337113.39849  -6485111.71447  22786089.1614   22786084.6034
      2425.1564
  -3699688.72649  -2873158.10448  20998032.4894   20998027.8884
      -129.0314
 04  9 17 15 49 45.0010000  0  6G 1G11G14G23G20G25
  -4407359.90049  -3429973.81648  21150501.3174   21150497.5484
       501.1564
   -936477.91549   -729015.17548  21833217.6614   21833212.4744
      -907.5624
  10752914.92649   8358437.69647  23432822.0134   23432817.6224
     -2951.3284
  -2621863.89049  -2027620.48447  23992059.5444   23992053.2984
      2397.1884
  -8373474.58749  -6513445.11147  22779170.2314   22779165.4854
      2422.8594
  -3697686.07749  -2871597.59648  20998413.3174   20998409.1224
      -137.9694
 04  9 17 15 50  0.0010000  0  6G 1G11G14G23G20G25
  -4414843.55149  -3435805.23448  21149077.6694   21149073.5754
       496.3754
   -922799.65249   -718356.80448  21835820.4814   21835815.2204
      -916.5314
  10797190.68149   8392938.25947  23441246.9274   23441243.0714
     -2952.3914
  -2657804.05449  -2055625.79047  23985220.1144   23985214.1494
      2394.6094
  -8409803.82449  -6541753.59747  22772256.8024   22772252.4544
      2420.7034
  -3695550.81949  -2869933.76548  20998819.9814   20998815.0284
      -146.9844
 04  9 17 15 50 15.0010000  0  6G 1G11G14G23G20G25
  -4422255.47449  -3441580.75248  21147666.8254   21147663.1494
       491.7664
   -908987.19349   -707593.86248  21838448.8174   21838443.8254
      -925.2814
  10841480.49949   8427449.77247  23449675.2784   23449671.2354
     -2953.1094
  -2693706.93249  -2083602.04547  23978388.7474   23978382.2394
      2392.3284
  -8446099.79749  -6570036.15647  22765350.1064   22765345.2164
      2418.6414
  -3693281.78149  -2868165.68948  20999251.6304   20999247.0054
      -155.6724
 04  9 17 15 50 30.0010000  0  6G 1G11G14G23G20G25
  -4429596.71449  -3447301.19548  21146269.9664   21146266.0794
       487.0004
   -895041.65949   -696727.22048  21841102.4814   21841097.5214
      -934.2344
  10885783.20449   8461971.33847  23458105.4114   23458102.0244
     -2954.0474
  -2729573.49349  -2111549.99847  23971564.0604   23971557.2594
      2389.8594
  -8482363.34249  -6598293.46047  22758449.3644   22758444.8644
      2416.4064
  -3690880.01549  -2866294.17548  20999708.3494   20999704.2514
      -164.5474
 04  9 17 15 50 45.0010000  0  6G 1G11G14G23G20G25
  -4436867.48049  -3452966.73648  21144886.6464   21144882.5094
       482.1094
   -880963.20549   -685757.01148  21843781.7784   21843776.9194
      -943.1724
  10930098.70649   8496502.86247  23466539.2864   23466534.7784
     -2955.0164
  -2765403.78949  -2139469.69547  23964744.9664   23964738.8604
      2387.2034
  -8518594.41249  -6626525.46347  22751554.6854   22751550.4354
      2414.0634
  -3688345.83349  -2864319.49548  21000190.6384   21000186.2394
      -173.6094
 04  9 17 15 51  0.0010000  0  6G 1G11G14G23G20G25
  -4444066.36049  -3458576.24348  21143516.4664   21143512.7714
       477.7504
   -866750.55049   -674682.23348  21846486.0604   21846481.4624
      -951.8284
  10974428.35249   8531045.41747  23474974.2864   23474970.4814
     -2955.6254
  -2801196.35749  -2167359.99347  23957934.2164   23957928.0014
      2385.1724
  -8554791.35349  -6654730.87347  22744667.0214   22744662.2004
      2412.1254
  -3685677.58949  -2862240.35148  21000698.5914   21000693.9624
      -182.1564
 04  9 17 15 51 15.0010000  0  6G 1G11G14G23G20G25
  -4451195.41049  -3464131.34348  21142159.8334   21142156.5094
       473.0314
   -852405.76549   -663504.48748  21849215.8644   21849210.9814
      -960.6724
  11018770.00349   8565597.34647  23483412.1924   23483409.1224
     -2956.4844
  -2836953.04749  -2195222.33047  23951129.0754   23951123.6854
      2382.6564
  -8590955.88249  -6682911.01847  22737784.8104   22737780.0284
      2409.9534
  -3682877.34049  -2860058.32548  21001231.2784   21001226.9504
      -191.0624
 04  9 17 15 51 30.0010000  0  6G 1G11G14G23G20G25
  -4458254.14149  -3469631.66248  21140816.7474   21140813.1304
       468.1564
   -837928.31149   -652223.36848  21851971.0444   21851966.0134
      -969.6564
  11063124.19449   8600159.00947  23491852.9504   23491849.0524
     -2957.4844
  -2872673.30049  -2223056.29747  23944332.6854   23944326.1344
      2380.0164
  -8627087.12749  -6711065.22447  22730909.2004   22730904.6494
      2407.5474
  -3679944.45149  -2857772.96248  21001789.6224   21001785.2744
      -200.0784
 04  9 17 15 51 45.0010000  0  6G 1G11G14G23G20G25
  -4465243.63349  -3475078.02248  21139486.5364   21139482.7434
       463.6724
   -823319.37649   -640839.79848  21854751.0914   21854745.7634
      -978.3284
  11107489.78449   8634729.58647  23500295.0364   23500291.2514
     -2958.0784
  -2908358.07449  -2250862.59147  23937541.7164   23937535.8334
      2377.7034
  -8663185.94149  -6739194.18447  22724039.5604   22724035.4034
      2405.5004
  -3676880.15049  -2855385.19748  21002372.7314   21002367.8024
      -208.6874
 04  9 17 15 52  0.0010000  0  6G 1G11G14G23G20G25
  -4472162.75249  -3480469.54148  21138169.9354   21138166.1884
       458.8914
   -808577.83649   -629352.90248  21857556.3644   21857551.3294
      -987.2194
  11151867.77849   8669309.80047  23508740.1384   23508735.7714
     -2958.9694
  -2944006.20249  -2278640.34847  23930758.1464   23930752.3604
      2375.2504
  -8699250.92849  -6767296.77347  22717176.7944   22717172.1424
      2403.2504
  -3673683.39049  -2852894.22448  21002981.1694   21002976.2904
      -217.5314
 04  9 17 15 52 15.0010000  0  6G 1G11G14G23G20G25
  -4479011.68649  -3485806.37548  21136866.5134   21136862.4624
       454.0784
   -793703.97249   -617762.88448  21860386.6614   21860381.8064
      -996.1874
  11196258.04849   8703899.60647  23517187.3174   23517183.5134
     -2959.9064
  -2979617.65349  -2306389.50847  23923981.0054   23923975.1964
      2372.8284
  -8735282.02949  -6795372.94647  22710320.4114   22710315.6344
      2400.8284
  -3670354.24949  -2850300.08748  21003614.2634   21003610.0834
      -226.4374
 04  9 17 15 52 30.0010000  0  6G 1G11G14G23G20G25
  -4485791.83049  -3491089.60448  21135576.3104   21135572.8134
       449.7194
   -778699.23949   -606070.90148  21863242.0834   21863237.4744
     -1004.7194
  11240659.07949   8738497.78247  23525636.8024   23525632.6774
     -2960.3754
  -3015193.83149  -2334111.18547  23917211.2394   23917205.3604
      2370.5944
  -8771280.41349  -6823423.63347  22703470.2634   22703465.6494
      2398.7664
  -3666894.20849  -2847603.95548  21004272.8564   21004268.6464
      -234.9844
 04  9 17 15 52 45.0010000  0  6G 1G11G14G23G20G25
  -4492501.84249  -3496318.18848  21134299.4354   21134295.7394
       445.0784
   -763562.40449   -594275.97448  21866122.2714   21866117.4424
     -1013.3754
  11285072.19349   8773105.37547  23534087.9424   23534083.7824
     -2961.1094
  -3050733.24949  -2361804.23047  23910448.9974   23910442.5284
      2368.1564
  -8807244.37249  -6851447.49747  22696626.1854   22696621.5714
      2396.6094
  -3663301.92949  -2844804.77448  21004956.1224   21004951.6304
      -243.7974
 04  9 17 15 53  0.0010000  0  6G 1G11G14G23G20G25
  -4499143.84949  -3501493.76948  21133036.0604   21133032.0054
       440.4844
   -748295.55549   -582379.73548  21869027.1144   21869022.6344
     -1022.1724
  11329495.21049   8807720.68247  23542541.5914   23542537.1574
     -2962.0004
  -3086237.86049  -2389470.15047  23903692.1224   23903686.0244
      2365.7344
  -8843175.84249  -6879446.04247  22689789.2004   22689784.2004
      2394.2504
  -3659579.48749  -2841904.16448  21005664.8104   21005660.3644
      -252.5784
 04  9 17 15 53 15.0010000  0  6G 1G11G14G23G20G25
  -4505717.74949  -3506616.29248  21131784.7394   21131780.8214
       436.0474
   -732898.72149   -570382.22648  21871957.2634   21871952.6144
     -1030.7814
  11373928.15649   8842343.73047  23550996.8494   23550992.6884
     -2962.4534
  -3121707.57049  -2417108.87447  23896942.5054   23896936.3684
      2363.5634
  -8879074.32449  -6907418.89547  22682957.8334   22682953.1104
      2392.2034
  -3655726.73749  -2838902.02548  21006397.9894   21006393.4504
      -261.1564
 04  9 17 15 53 30.0010000  0  6G 1G11G14G23G20G25
  -4512220.32049  -3511683.23448  21130547.4894   21130543.5674
       431.3284
   -717368.69649   -558280.90648  21874912.7004   21874907.8604
     -1039.5164
  11418374.34249   8876977.10247  23559454.3724   23559451.0244
     -2963.2974
  -3157138.93949  -2444717.69547  23890200.0284   23890193.8294
      2361.1254
  -8914936.36349  -6935363.32647  22676133.2864   22676128.6924
      2389.8444
  -3651740.30349  -2835795.71948  21007156.7244   21007151.7204
      -269.9844
 04  9 17 15 53 45.0010000  0  6G 1G11G14G23G20G25
  -4518654.28149  -3516696.70448  21129323.3414   21129319.2244
       426.8284
   -701708.23449   -546077.97548  21877892.5994   21877887.9464
     -1048.2814
  11462830.92549   8911618.57447  23567914.4354   23567910.2314
     -2963.9374
  -3192534.54549  -2472298.68247  23883464.8564   23883458.3294
      2358.6254
  -8950764.39749  -6963281.27547  22669315.4584   22669310.5994
      2387.5314
  -3647622.94349  -2832587.38548  21007940.0524   21007935.4464
      -278.7194
 04  9 17 15 54  0.0010000  0  6G 1G11G14G23G20G25
  -4525019.69749  -3521656.77048  21128111.6384   21128107.6224
       422.0634
   -685917.47549   -533773.50148  21880897.6694   21880892.8644
     -1057.0944
  11507297.78449   8946268.02447  23576376.3414   23576371.8024
     -2964.8444
  -3227894.44649  -2499851.83547  23876735.9974   23876730.0094
      2356.0164
  -8986558.19549  -6991172.53647  22662504.1384   22662499.3134
      2385.0164
  -3643374.88949  -2829277.21348  21008748.5674   21008743.5134
      -287.5944
 04  9 17 15 54 15.0010000  0  6G 1G11G14G23G20G25
  -4531314.28349  -3526561.64248  21126913.9274   21126909.6924
       417.2504
   -669994.25949   -521365.81748  21883927.8174   21883923.1654
     -1065.9374
  11551777.14349   8980927.24047  23584840.4504   23584836.3454
     -2965.7344
  -3263216.28249  -2527375.33347  23870014.9194   23870008.3334
      2353.4694
  -9022315.11149  -7019035.07747  22655699.7784   22655695.3994
      2382.5474
  -3638993.71849  -2825863.31948  21009582.4814   21009577.1924
      -296.4844
 04  9 17 15 54 30.0010000  0  6G 1G11G14G23G20G25
  -4537539.16449  -3531412.20948  21125729.3414   21125725.4464
       412.7504
   -653939.62249   -508855.72248  21886982.6924   21886977.8964
     -1074.6094
  11596267.88549   9015595.31547  23593307.0674   23593303.0604
     -2966.3124
  -3298501.10249  -2554869.98347  23863299.2164   23863293.7904
      2351.1564
  -9058036.11349  -7046869.60547  22648902.4114   22648897.3024
      2380.2814
  -3634480.61849  -2822346.62148  21010441.0604   21010436.5754
      -305.1724
 04  9 17 15 54 45.0010000  0  6G 1G11G14G23G20G25
  -4543692.97149  -3536207.37548  21124557.9354   21124554.3254
       407.7814
   -637752.24749   -496242.20348  21890063.2714   21890058.2284
     -1083.5944
  11640771.37749   9050273.33747  23601775.4814   23601771.3024
     -2967.4534
  -3333747.30249  -2582334.54147  23856592.3024   23856586.9194
      2348.3444
  -9093719.49949  -7074674.85147  22642111.8884   22642107.1104
      2377.5314
  -3629834.22049  -2818726.05648  21011325.6304   21011321.0014
      -314.2974
 04  9 17 15 55  0.0010000  0  6G 1G11G14G23G20G25
  -4549776.30349  -3540947.64448  21123400.7244   21123397.0604
       403.1564
   -621432.90849   -483525.84748  21893168.8644   21893163.8024
     -1092.4374
  11685287.06949   9084960.85747  23610246.1064   23610242.0214
     -2968.1724
  -3368955.30449  -2609769.33347  23849892.8724   23849886.2004
      2345.8444
  -9129365.66449  -7102451.08047  22635328.6064   22635323.7354
      2375.0634
  -3625055.05749  -2815002.04048  21012234.7714   21012230.0954
      -323.1094
 04  9 17 15 55 15.0010000  0  6G 1G11G14G23G20G25
  -4555791.51149  -3545634.82148  21122256.1384   21122252.2204
       398.6724
   -604984.05549   -470708.56648  21896299.0754   21896293.8724
     -1101.0314
  11729812.45049   9119655.93547  23618719.7864   23618715.2124
     -2968.7814
  -3404127.46449  -2637176.18647  23843199.3174   23843193.4194
      2343.6254
  -9164976.60549  -7130199.86947  22628552.2634   22628547.1464
      2372.7194
  -3620145.61749  -2811176.49648  21013169.0134   21013164.5364
      -331.7664
 04  9 17 15 55 30.0010000  0  6G 1G11G14G23G20G25
  -4561738.13449  -3550268.55048  21121124.4584   21121120.4854
       394.2664
   -588405.25849   -457790.03148  21899453.5994   21899448.8724
     -1109.4844
  11774347.96349   9154358.91947  23627194.5134   23627190.0054
     -2969.2664
  -3439263.08049  -2664554.58247  23836513.2784   23836507.7124
      2341.1564
  -9200551.54649  -7157920.58547  22621782.5444   22621777.9384
      2370.5004
  -3615105.31249  -2807248.98348  21014128.4194   21014123.7244
      -340.2814
 04  9 17 15 55 45.0010000  0  6G 1G11G14G23G20G25
  -4567615.80449  -3554848.56448  21120005.7944   21120002.1814
       389.5164
   -571696.10449   -444769.92648  21902633.3254   21902628.4274
     -1118.2504
  11818893.86249   9189069.96647  23635670.9894   23635666.3134
     -2970.1094
  -3474361.88549  -2691904.28347  23829834.2394   23829827.9784
      2338.7344
  -9236089.74549  -7185612.69347  22615020.0134   22615015.1774
      2367.9384
  -3609933.82449  -2803219.25748  21015112.3254   21015107.8254
      -349.1414
 04  9 17 15 56  0.0010000  0  6G 1G11G14G23G20G25
  -4573424.57349  -3559374.87848  21118900.2784   21118896.4854
       384.7974
   -554856.76349   -431648.38148  21905837.6144   21905832.7634
     -1127.1254
  11863450.13149   9223789.12147  23644150.5524   23644146.0404
     -2971.0164
  -3509423.75349  -2719225.19547  23823162.8564   23823156.2904
      2336.0314
  -9271591.11249  -7213276.08747  22608264.2314   22608259.5754
      2365.3754
  -3604631.06549  -2799087.23348  21016121.2944   21016116.5604
      -358.0784
 04  9 17 15 56 15.0010000  0  6G 1G11G14G23G20G25
  -4579161.45049  -3563845.17148  21117808.8024   21117804.6614
       380.1564
   -537884.31149   -418423.10448  21909067.4194   21909062.3964
     -1135.8914
  11908019.70749   9258518.64047  23652630.7864   23652626.9424
     -2971.6724
  -3544445.50249  -2746514.87247  23816498.7164   23816491.3644
      2333.5784
  -9307052.30049  -7240908.17647  22601516.3884   22601511.6854
      2362.7814
  -3599193.99649  -2794850.55148  21017156.0834   21017151.6854
      -366.8754
 04  9 17 15 56 30.0010000  0  6G 1G11G14G23G20G25
  -4584829.37249  -3568261.72948  21116730.3174   21116726.3844
       375.5634
   -520781.77549   -405096.46448  21912321.9034   21912317.2354
     -1144.5164
  11952599.72549   9293256.28247  23661114.6304   23661110.4544
     -2972.3124
  -3579429.92949  -2773775.44447  23809840.4664   23809834.3564
      2331.0634
  -9342475.96449  -7268511.02647  22594775.3564   22594770.8604
      2360.2974
  -3593625.66749  -2790511.59848  21018215.5674   21018211.0874
      -375.6724
 04  9 17 15 56 45.0010000  0  6G 1G11G14G23G20G25
  -4590426.26749  -3572622.95648  21115665.1064   21115661.1924
       370.7504
   -503547.15149   -391666.90048  21915601.8334   21915596.9034
     -1153.3754
  11997192.13649   9328003.58747  23669600.3024   23669596.1144
     -2973.3124
  -3614375.10349  -2801005.43347  23803190.6064   23803184.4154
      2328.4384
  -9377859.80949  -7296082.84747  22588041.9034   22588037.1814
      2357.5474
  -3587924.09249  -2786068.80548  21019300.6144   21019296.5564
      -384.6094
 04  9 17 15 57  0.0010000  0  6G 1G11G14G23G20G25
  -4595954.54449  -3576930.70948  21114613.1144   21114609.6304
       366.2034
   -486182.90249   -378136.33348  21918906.0364   21918900.5954
     -1161.9844
  12041794.51949   9362758.65747  23678088.3414   23678084.0714
     -2973.8124
  -3649283.19549  -2828206.54547  23796547.7634   23796541.4974
      2325.8284
  -9413205.94349  -7323625.28747  22581315.6614   22581310.6264
      2355.0944
  -3582091.83649  -2781524.19548  21020410.3964   21020405.7244
      -393.2344
 04  9 17 15 57 15.0010000  0  6G 1G11G14G23G20G25
  -4601411.40849  -3581182.80648  21113575.1064   21113571.0604
       361.4844
   -468686.30849   -364502.62948  21922235.5834   21922230.5994
     -1170.7344
  12086409.75549   9397523.76547  23686577.6854   23686573.5674
     -2974.6414
  -3684151.16949  -2855376.35747  23789912.3334   23789906.6654
      2323.3284
  -9448511.09249  -7351135.78447  22574597.4584   22574593.0244
      2352.4064
  -3576125.88749  -2776875.39748  21021545.7554   21021541.3064
      -402.0624
 04  9 17 15 57 30.0010000  0  6G 1G11G14G23G20G25
  -4606800.38949  -3585382.01848  21112549.4274   21112545.0484
       356.9224
   -451060.87349   -350768.54848  21925589.7004   21925585.1614
     -1179.4224
  12131034.19849   9432296.01647  23695069.8104   23695065.8994
     -2975.3754
  -3718982.49549  -2882517.63047  23783285.0214   23783278.8134
      2320.7034
  -9483778.63049  -7378616.97547  22567886.5994   22567881.4584
      2349.8284
  -3570029.81349  -2772125.21548  21022705.8024   21022701.2944
      -410.7974
 04  9 17 15 57 45.0010000  0  6G 1G11G14G23G20G25
  -4612122.55949  -3589529.16648  21111536.6144   21111532.6924
       352.4844
   -433307.83149   -336935.01448  21928968.0284   21928962.9274
     -1187.8594
  12175666.76849   9467074.60447  23703563.4894   23703558.9384
     -2975.8914
  -3753778.21349  -2909631.17047  23776663.8964   23776657.1224
      2318.4384
  -9519009.34749  -7406069.48347  22561182.3414   22561177.5014
      2347.4534
  -3563804.68549  -2767274.47348  21023890.2004   21023885.9544
      -419.3284
 04  9 17 15 58  0.0010000  0  6G 1G11G14G23G20G25
  -4617373.63549  -3593620.91148  21110537.5284   21110533.6964
       347.6724
   -415423.10649   -322998.87848  21932370.9744   21932366.4624
     -1196.7664
  12220311.67049   9501862.83147  23712058.9034   23712054.5174
     -2976.8284
  -3788533.94249  -2936713.55247  23770049.4354   23770042.9894
      2315.5474
  -9554198.70349  -7433489.75947  22554486.0364   22554480.7634
      2344.4694
  -3557446.31149  -2762319.88748  21025100.0364   21025095.9934
      -428.4224
 04  9 17 15 58 15.0010000  0  6G 1G11G14G23G20G25
  -4622555.70849  -3597658.88948  21109551.3884   21109547.5834
       342.9224
   -397408.96649   -308961.89048  21935799.1614   21935794.4384
     -1205.4374
  12264966.72149   9536658.95047  23720556.4504   23720552.6384
     -2977.5784
  -3823251.66349  -2963766.27947  23763443.3104   23763436.8564
      2313.0474
  -9589348.48949  -7460879.18447  22547796.9274   22547792.0094
      2341.7504
  -3550956.71549  -2757263.06448  21026335.0284   21026331.0214
      -437.2814
 04  9 17 15 58 30.0010000  0  6G 1G11G14G23G20G25
  -4627667.33549  -3601641.97248  21108578.9744   21108574.4274
       338.4224
   -379263.76549   -294822.79248  21939251.9894   21939247.0994
     -1214.0314
  12309633.50249   9571464.20747  23729055.5444   23729052.1814
     -2978.1414
  -3857929.72949  -2990788.14547  23756843.5214   23756837.7354
      2310.5474
  -9624456.82349  -7488236.33247  22541115.9424   22541111.6424
      2339.2664
  -3544334.46849  -2752102.86848  21027595.3174   21027591.0404
      -445.8284
 04  9 17 15 58 45.0010000  0  6G 1G11G14G23G20G25
  -4632712.69549  -3605573.42348  21107618.5134   21107614.7864
       334.2194
   -360991.60749   -280584.76448  21942729.3964   21942724.7164
     -1222.3754
  12354307.76249   9606275.28347  23737557.2554   23737553.1924
     -2978.5784
  -3892572.19349  -3017782.24447  23750251.4034   23750245.4544
      2308.2974
  -9659527.56349  -7515564.17947  22534442.5834   22534437.7284
      2336.7664
  -3537583.64249  -2746842.48648  21028880.0834   21028875.6344
      -454.3284
 04  9 17 15 59  0.0010000  0  6G 1G11G14G23G20G25
  -4637689.27749  -3609451.28648  21106671.3964   21106667.1924
       329.5004
   -342590.34649   -266246.12748  21946230.9814   21946226.3684
     -1231.0474
  12398991.89549   9641094.06547  23746060.3414   23746056.5524
     -2979.3284
  -3927176.52049  -3044746.65347  23743666.8174   23743660.1614
      2305.7504
  -9694558.09649  -7542860.68547  22527776.2944   22527771.4544
      2334.0164
  -3530701.95249  -2741480.13248  21030189.5604   21030185.0634
      -463.1094
 04  9 17 15 59 15.0010000  0  6G 1G11G14G23G20G25
  -4642594.83049  -3613273.79748  21105737.8254   21105734.2904
       325.1564
   -324057.71049   -251805.13248  21949757.6144   21949752.9074
     -1239.3754
  12443688.12749   9675922.26247  23754565.7004   23754562.4664
     -2979.6724
  -3961740.39849  -3071679.53647  23737089.5914   23737083.5754
      2303.3444
  -9729545.86149  -7570123.88847  22521118.4194   22521113.2044
      2331.6094
  -3523687.19849  -2736014.09248  21031524.2394   21031520.3644
      -471.5944
 04  9 17 15 59 30.0010000  0  6G 1G11G14G23G20G25
  -4647434.97749  -3617045.34048  21104816.8104   21104813.4194
       320.3914
   -305399.43749   -237266.22148  21953307.9274   21953303.5874
     -1248.1254
  12488390.93649   9710755.59847  23763072.7554   23763068.9114
     -2980.5164
  -3996269.45849  -3098585.26047  23730518.5674   23730512.4854
      2300.7344
  -9764496.22149  -7597357.92347  22514467.3414   22514462.3604
      2328.7504
  -3516544.88449  -2730448.65248  21032883.4974   21032878.9504
      -480.4844
 04  9 17 15 59 45.0010000  0  6G 1G11G14G23G20G25
  -4652206.88849  -3620763.71548  21103908.4424   21103904.7984
       315.7974
   -286612.75449   -222627.26948  21956882.9504   21956878.1424
     -1256.7974
  12533103.16249   9745596.26547  23771580.2944   23771577.0364
     -2981.1414
  -4030760.60049  -3125461.47247  23723955.3964   23723949.1534
      2297.9534
  -9799405.90049  -7624560.27747  22507824.5054   22507819.1854
      2325.9064
  -3509272.16049  -2724781.59148  21034267.5284   21034262.9354
      -489.2664
 04  9 17 16  0  0.0010000  0  6G 1G11G14G23G20G25
  -4656911.98649  -3624430.01848  21103013.2944   21103009.5604
       311.2974
   -267699.19949   -207889.44748  21960481.8494   21960477.2984
     -1265.2344
  12577823.25149   9780443.04947  23780090.7244   23780087.0754
     -2981.7194
  -4065215.18449  -3152309.17947  23717398.9584   23717392.3764
      2295.5944
  -9834276.05849  -7651731.81647  22501189.0444   22501184.1424
      2323.1724
  -3501870.56849  -2719014.11948  21035675.9584   21035671.2824
      -497.8754
 04  9 17 16  0 15.0010000  0  6G 1G11G14G23G20G25
  -4661548.82249  -3628043.14848  21102130.9424   21102127.0604
       306.7344
   -248657.36949   -193051.67248  21964105.8964   21964100.7394
     -1273.9224
  12622552.59649   9815297.03847  23788603.2784   23788598.8684
     -2982.4694
  -4099631.54949  -3179127.11647  23710849.5364   23710842.9744
      2293.0164
  -9869105.00249  -7678871.26547  22494561.2554   22494556.6344
      2320.3754
  -3494338.54549  -2713145.00548  21037108.8724   21037104.6464
      -506.6564
 04  9 17 16  0 30.0010000  0  6G 1G11G14G23G20G25
  -4666110.61149  -3631597.78448  21101262.7634   21101258.9114
       302.0164
   -229480.67849   -178108.80848  21967754.8884   21967750.3174
     -1282.6254
  12667297.94149   9850163.52547  23797117.5994   23797113.9354
     -2983.2664
  -4134002.78849  -3205909.90647  23704308.6144   23704302.6144
      2290.3444
  -9903885.61849  -7705973.03647  22487942.5754   22487937.7434
      2317.5164
  -3486669.50949  -2707169.14648  21038568.5524   21038564.1884
      -515.4374
 04  9 17 16  0 45.0010000  0  6G 1G11G14G23G20G25
  -4670604.97149  -3635099.88548  21100407.6854   21100403.5604
       297.4534
   -210176.76549   -163066.80848  21971428.2634   21971424.0134
     -1291.0944
  12712051.71049   9885036.57747  23805633.4974   23805630.1424
     -2983.8594
  -4168336.47049  -3232663.39447  23697775.2084   23697768.8644
      2287.7034
  -9938625.21349  -7733042.84047  22481331.8564   22481327.2004
      2314.6724
  -3478871.08249  -2701092.44848  21040052.4664   21040048.0954
      -524.0944
 04  9 17 16  1  0.0010000  0  6G 1G11G14G23G20G25
  -4675030.22749  -3638548.13948  21099565.6144   21099561.6494
       292.7344
   -190744.00249   -147924.42248  21975126.2784   21975121.6734
     -1299.7034
  12756815.51749   9919917.40147  23814152.2944   23814148.6614
     -2984.5004
  -4202630.86049  -3259386.26247  23691249.3494   23691242.5564
      2285.0004
  -9973321.86449  -7760079.19247  22474729.3724   22474724.3604
      2311.7814
  -3470941.59749  -2694913.63448  21041561.6224   21041557.1384
      -532.9374
 04  9 17 16  1 15.0010000  0  6G 1G11G14G23G20G25
  -4679385.98749  -3641942.25048  21098736.7244   21098732.9784
       287.9384
   -171182.15349   -132681.43248  21978849.0524   21978844.2204
     -1308.6094
  12801589.66349   9954806.33247  23822672.6224   23822669.0524
     -2985.4844
  -4236885.43849  -3286078.14747  23684730.6304   23684723.8804
      2282.0474
 -10007974.85549  -7787081.52247  22468135.0284   22468130.5244
      2308.6094
  -3462880.58349  -2688632.33548  21043095.7004   21043091.4974
      -542.0164
 04  9 17 16  1 30.0010000  0  6G 1G11G14G23G20G25
  -4683674.84149  -3645284.21148  21097920.7244   21097916.5914
       283.5944
   -151493.98249   -117340.01848  21982595.6924   21982590.8214
     -1316.8594
  12846371.67549   9989701.37547  23831194.2784   23831190.7204
     -2985.7814
  -4271102.72549  -3312740.95847  23678219.5524   23678213.2004
      2279.8284
 -10042586.43649  -7814051.57547  22461548.4664   22461543.6814
      2306.0004
  -3454690.79249  -2682250.67048  21044653.8254   21044650.0054
      -550.4064
 04  9 17 16  1 45.0010000  0  6G 1G11G14G23G20G25
  -4687896.31249  -3648573.66848  21097117.2944   21097113.5324
       279.0634
   -131678.97749   -101899.75348  21986366.2554   21986361.4664
     -1325.3754
  12891162.17849  10024603.02747  23839717.4424   23839714.1184
     -2986.4064
  -4305282.02049  -3339374.13847  23671715.3174   23671709.2944
      2277.0634
 -10077155.83449  -7840988.75947  22454970.1534   22454965.4974
      2303.0474
  -3446371.69549  -2675768.26048  21046237.0914   21046232.4624
      -559.0624
 04  9 17 16  2  0.0010000  0  6G 1G11G14G23G20G25
  -4692047.18849  -3651808.11948  21096327.6694   21096323.9814
       274.5314
   -111733.99249    -86358.23248  21990161.5524   21990157.0054
     -1333.9224
  12935964.24149  10059513.70647  23848243.5994   23848239.6424
     -2987.0944
  -4339420.12049  -3365975.23847  23665218.5214   23665212.4974
      2274.7034
 -10111679.62449  -7867890.42547  22448400.3964   22448395.4854
      2300.2034
  -3437920.16149  -2669182.65348  21047845.4894   21047841.1144
      -567.7034
 04  9 17 16  2 15.0010000  0  6G 1G11G14G23G20G25
  -4696132.37649  -3654991.38948  21095550.2164   21095546.9744
       270.3134
    -91664.06749    -70719.34448  21993980.7714   21993975.8724
     -1342.0314
  12980772.78949  10094429.40047  23856769.8334   23856766.2284
     -2987.2974
  -4373521.73849  -3392547.92447  23658730.1614   23658723.0874
      2272.2344
 -10146162.27449  -7894760.01047  22441838.6924   22441833.9624
      2297.6094
  -3429341.00049  -2662497.59948  21049477.9034   21049473.5014
      -576.0944
 04  9 17 16  2 30.0010000  0  6G 1G11G14G23G20G25
  -4700152.54349  -3658123.98648  21094785.1534   21094780.8174
       265.8134
    -71469.96749    -54983.70048  21997823.6384   21997818.9234
     -1350.4064
  13025587.16449  10129349.67147  23865298.4194   23865294.2824
     -2987.7194
  -4407587.50649  -3419092.65547  23652247.1064   23652240.8134
      2269.7194
 -10180604.27349  -7921597.93347  22435284.5914   22435279.5674
      2294.7344
  -3420635.02549  -2655713.72548  21051134.3964   21051129.9114
      -584.6874
 04  9 17 16  2 45.0010000  0  6G 1G11G14G23G20G25
  -4704105.35849  -3661204.09648  21094032.7244   21094029.1464
       261.4844
    -51149.61549    -39149.65248  22001690.1384   22001685.7004
     -1358.7344
  13070409.73549  10164276.30947  23873827.3494   23873823.4974
     -2988.2974
  -4441614.97049  -3445607.54847  23645772.3804   23645765.4314
      2267.4844
 -10215002.91849  -7948402.07147  22428738.8564   22428734.3604
      2291.9224
  -3411800.01249  -2648829.29048  21052815.8414   21052811.4074
      -593.0944
 04  9 17 16  3  0.0010000  0  6G 1G11G14G23G20G25
  -4707991.54249  -3664232.29148  21093293.2864   21093289.6924
       256.8134
    -30703.66649    -23217.77548  22005581.3414   22005576.6344
     -1367.2974
  13115239.71249  10199208.73147  23882358.4424   23882354.9074
     -2988.9064
  -4475604.70549  -3472093.05047  23639303.7004   23639297.4194
      2264.7504
 -10249358.63649  -7975172.75547  22422201.1774   22422196.7594
      2288.9384
  -3402836.74549  -2641844.92548  21054521.4194   21054517.2514
      -601.8444
 04  9 17 16  3 15.0010000  0  6G 1G11G14G23G20G25
  -4711810.47849  -3667208.09448  21092566.4744   21092563.0054
       252.2504
    -10131.45049     -7187.49547  22009495.8414   22009490.9704
     -1375.7664
  13160077.81849  10234147.49347  23890890.7714   23890886.6184
     -2989.5314
  -4509555.96849  -3498548.57147  23632843.9664   23632837.3884
      2262.0634
 -10283670.53449  -8001909.31147  22415671.9584   22415667.1464
      2285.8914
  -3393744.41949  -2634760.00048  21056251.6854   21056247.7674
      -610.4844
 04  9 17 16  3 30.0010000  0  6G 1G11G14G23G20G25
  -4715564.21549  -3670133.08148  21091851.9504   21091848.3844
       247.8914
     10564.72849      8939.39748  22013434.1384   22013429.2904
     -1384.0164
  13204921.98049  10269090.96547  23899424.3414   23899420.1534
     -2990.0474
  -4543470.76049  -3524975.65147  23626389.6774   23626383.0604
      2259.5634
 -10317940.27149  -8028612.99447  22409150.5754   22409145.9974
      2283.0474
  -3384525.12849  -2627576.14248  21058006.1774   21058002.1184
      -619.0474
 04  9 17 16  3 45.0010000  0  6G 1G11G14G23G20G25
  -4719247.78849  -3673003.39248  21091151.2554   21091147.9624
       243.4224
     31389.75249     25166.67248  22017396.9584   22017391.9974
     -1392.4534
  13249777.12349  10304043.01147  23907960.0284   23907956.1574
     -2990.5004
  -4577344.02549  -3551370.38247  23619943.9034   23619937.4624
      2256.9534
 -10352162.49949  -8055279.66047  22402637.8334   22402633.3454
      2280.1254
  -3375173.89449  -2620289.46348  21059785.4814   21059781.3294
      -627.6254
 04  9 17 16  4  0.0010000  0  6G 1G11G14G23G20G25
  -4722865.79049  -3675822.62448  21090462.8024   21090459.0674
       239.1254
     52338.86849     41490.64947  22021383.7554   22021379.0484
     -1400.6724
  13294638.60149  10338999.95047  23916497.6224   23916492.8684
     -2990.9224
  -4611180.30649  -3577736.31447  23613504.8564   23613498.5794
      2254.5314
 -10386341.73749  -8081912.83247  22396134.2244   22396129.5134
      2277.2344
  -3365695.41149  -2612903.63848  21061589.0914   21061585.0524
      -636.0474
 04  9 17 16  4 15.0010000  0  6G 1G11G14G23G20G25
  -4726417.26849  -3678590.01748  21089787.1224   21089783.1224
       234.8914
     73412.83949     57911.89548  22025393.7004   22025389.0094
     -1408.7974
  13339507.40449  10373962.62847  23925034.8254   23925030.9584
     -2991.1414
  -4644978.42549  -3604072.48147  23607073.1614   23607066.6104
      2252.2344
 -10420476.66249  -8108511.47347  22389638.2864   22389633.5054
      2274.5474
  -3356088.86749  -2605418.02048  21063417.0994   21063412.6304
      -644.4064
 04  9 17 16  4 30.0010000  0  6G 1G11G14G23G20G25
  -4729901.04649  -3681304.64748  21089123.9814   21089120.1034
       229.8914
     94612.85649     74431.38748  22029428.1304   22029423.3724
     -1417.5314
  13384384.65049  10408931.90447  23933575.0444   23933570.9784
     -2992.1724
  -4678737.06049  -3630377.90647  23600649.1464   23600642.9854
      2249.2194
 -10454565.76849  -8135074.41947  22383151.7394   22383147.0524
      2271.0164
  -3346353.10849  -2597831.71848  21065269.6924   21065265.2004
      -653.3914
 04  9 17 16  4 45.0010000  0  6G 1G11G14G23G20G25
  -4733317.34249  -3683966.68848  21088473.9974   21088470.2674
       225.6094
    115938.62349     91048.84548  22033486.2634   22033481.6064
     -1425.7814
  13429270.13349  10443907.55147  23942117.0214   23942112.7124
     -2992.5624
  -4712456.41849  -3656652.71247  23594232.5914   23594226.2124
      2246.7664
 -10488608.93449  -8161601.56047  22376673.1534   22376668.5604
      2268.0634
  -3336488.38449  -2590144.93148  21067146.9974   21067142.7674
      -661.9224
 04  9 17 16  5  0.0010000  0  6G 1G11G14G23G20G25
  -4736665.09449  -3686575.34448  21087837.0524   21087833.3064
       220.9534
    137391.04749    107765.00648  22037568.4744   22037563.5524
     -1434.2814
  13474164.84649  10478890.40647  23950659.4894   23950656.3964
     -2993.1874
  -4746135.38549  -3682896.07647  23587823.9504   23587817.1774
      2244.0004
 -10522604.90149  -8188091.92247  22370203.9424   22370199.2784
      2264.8914
  -3326493.56949  -2582356.76648  21069049.0364   21069044.6964
      -670.5944
 04  9 17 16  5 15.0010000  0  6G 1G11G14G23G20G25
  -4739946.85649  -3689132.56748  21087212.2314   21087208.0244
       216.5314
    158967.46249    124577.77848  22041674.3884   22041669.7084
     -1442.5784
  13519066.33149  10513878.53647  23959203.9424   23959200.2244
     -2993.6254
  -4779776.24149  -3709109.70447  23581421.9974   23581415.8064
      2241.4224
 -10556555.81049  -8214547.17747  22363743.5524   22363738.9784
      2261.8594
  -3316371.42549  -2574469.38148  21070975.3644   21070971.2244
      -679.1094
 04  9 17 16  5 30.0010000  0  6G 1G11G14G23G20G25
  -4743162.31049  -3691638.10848  21086600.5134   21086596.8924
       212.0314
    180668.16049    141487.39948  22045804.1144   22045799.0994
     -1450.9374
  13563974.80349  10548872.14947  23967750.0284   23967746.1264
     -2994.3444
  -4813378.70749  -3735293.42047  23575028.1534   23575021.7824
      2238.8754
 -10590460.93749  -8240966.74847  22357291.7714   22357286.7744
      2258.7034
  -3306121.61049  -2566482.50648  21072925.7244   21072921.0014
      -687.7034
 04  9 17 16  5 45.0010000  0  6G 1G11G14G23G20G25
  -4746312.42149  -3694092.73848  21086001.0994   21085996.8724
       208.0314
    202491.97149    158492.96047  22049957.1534   22049952.0174
     -1458.8594
  13608889.35649  10583870.46147  23976297.1144   23976293.5324
     -2994.3284
  -4846943.58449  -3761447.87947  23568639.9504   23568634.3064
      2236.5944
 -10624320.99749  -8267351.20547  22350848.1464   22350843.3454
      2256.0634
  -3295745.18049  -2558396.97548  21074900.2554   21074896.0954
      -695.7974
 04  9 17 16  6  0.0010000  0  6G 1G11G14G23G20G25
  -4749398.23649  -3696497.27648  21085413.7944   21085409.7634
       203.4534
    224437.65449    175593.46547  22054133.1614   22054128.2004
     -1467.2344
  13653808.91949  10618872.68046  23984845.0834   23984841.0134
     -2994.8754
  -4880471.80349  -3787573.71947  23562259.7164   23562253.8884
      2233.8594
 -10658136.75749  -8293701.15447  22344413.2084   22344408.7314
      2252.7814
  -3285243.07749  -2550213.52748  21076898.8334   21076894.4894
      -704.3594
 04  9 17 16  6 15.0010000  0  6G 1G11G14G23G20G25
  -4752415.55949  -3698848.43548  21084839.8724   21084835.9464
       198.9534
    246509.39549    192792.22048  22058333.3884   22058328.4584
     -1475.5944
  13698737.66249  10653882.07347  23993394.2244   23993391.0794
     -2995.4224
  -4913959.00449  -3813667.63147  23555887.9034   23555881.5604
      2231.2814
 -10691903.65949  -8320013.01647  22337987.4034   22337982.9704
      2249.5004
  -3274611.15849  -2541928.91848  21078921.9664   21078917.8564
      -713.0314
 04  9 17 16  6 30.0010000  0  6G 1G11G14G23G20G25
  -4755364.79649  -3701146.54448  21084278.9504   21084274.5714
       194.4844
    268706.77649    210088.86148  22062557.0054   22062552.5604
     -1483.9224
  13743675.19749  10688898.31947  24001945.7004   24001942.4704
     -2995.9534
  -4947405.52249  -3839729.84047  23549523.3104   23549517.1964
      2228.5314
 -10725621.86449  -8346286.94847  22331570.8104   22331566.5244
      2246.2814
  -3263849.88149  -2533543.50948  21080969.9664   21080965.6224
      -721.6724
 04  9 17 16  6 45.0010000  0  6G 1G11G14G23G20G25
  -4758245.90949  -3703391.57348  21083730.4504   21083726.3254
       189.7974
    291029.63449    227483.27548  22066805.5604   22066800.4894
     -1492.3754
  13788621.51649  10723921.37747  24010498.9504   24010495.5484
     -2996.5784
  -4980811.29049  -3865760.31247  23543165.9894   23543159.6034
      2225.6564
 -10759290.99649  -8372522.64047  22325164.2244   22325159.5364
      2242.9384
  -3252959.24449  -2525057.30448  21083042.4114   21083037.8294
      -730.3594
 04  9 17 16  7  0.0010000  0  6G 1G11G14G23G20G25
  -4761059.00749  -3705583.59748  21083194.8884   21083191.0834
       185.5164
    313477.84949    244975.37648  22071076.8884   22071072.2514
     -1500.5164
  13833576.57349  10758951.26047  24019053.5674   24019050.3334
     -2997.0314
  -5014176.22949  -3891758.94747  23536816.5134   23536810.9814
      2223.2504
 -10792910.81449  -8398719.89747  22318766.8254   22318762.1654
      2239.9534
  -3241939.54249  -2516470.52648  21085139.2714   21085134.8684
      -738.7344
 04  9 17 16  7 15.0010000  0  6G 1G11G14G23G20G25
  -4763808.11049  -3707725.74848  21082672.0834   21082668.0954
       181.0474
    336047.06049    262561.76447  22075371.8644   22075367.1614
     -1508.6874
  13878536.21449  10793984.69147  24027608.4814   24027606.0604
     -2997.5314
  -5047504.33449  -3917728.87147  23530474.7004   23530468.4704
      2220.6414
 -10826485.07649  -8424881.65447  22312377.6614   22312373.1694
      2236.7194
  -3230794.88449  -2507786.38648  21087259.9664   21087255.9744
      -747.2034
 04  9 17 16  7 30.0020000  0  6G 1G11G14G23G20G25
  -4766491.92449  -3709817.03648  21082161.3694   21082157.2874
       176.5784
    358740.20049    280244.70647  22079689.9394   22079685.3224
     -1517.0314
  13923505.01849  10829025.30547  24036165.9474   24036163.2054
     -2998.1254
  -5080796.17349  -3943670.55547  23524139.0494   23524133.2914
      2217.7504
 -10860014.24849  -8451008.28247  22305997.2754   22305992.5334
      2233.4064
  -3219522.97849  -2499003.08648  21089404.9324   21089400.4984
      -755.7974
 04  9 17 16  7 45.0020000  0  6G 1G11G14G23G20G25
  -4769109.98549  -3711857.09648  21081663.1044   21081659.3344
       172.3754
    381554.36949    298021.96448  22084031.6504   22084026.6114
     -1525.0004
  13968477.12149  10864068.44447  24044724.8144   24044720.9394
     -2998.2504
  -5114047.05249  -3969580.33447  23517812.3304   23517806.1974
      2215.4694
 -10893493.45249  -8477095.96947  22299626.1114   22299621.6044
      2230.3134
  -3208125.31649  -2490121.79348  21091573.7524   21091569.9364
      -763.9844
 04  9 17 16  8  0.0020000  0  6G 1G11G14G23G20G25
  -4771663.41949  -3713846.77348  21081177.0184   21081172.7954
       168.2344
    404490.02349    315893.88948  22088395.7914   22088390.9084
     -1532.8914
  14013454.48849  10899115.71247  24053283.8614   24053279.7054
     -2998.4224
  -5147260.11749  -3995460.61147  23511492.2684   23511485.6504
      2213.3594
 -10926925.55449  -8503146.96447  22293264.6584   22293259.9554
      2227.4844
  -3196602.07749  -2481142.65348  21093766.6354   21093762.1584
      -772.1724
 04  9 17 16  8 15.0020000  0  6G 1G11G14G23G20G25
  -4774150.05749  -3715784.41348  21080703.7054   21080699.8894
       163.6724
    427549.03949    333861.93748  22092783.7604   22092779.7794
     -1541.2194
  14058439.32549  10934168.81147  24061844.0644   24061840.2134
     -2999.0474
  -5180433.11349  -4021309.68147  23505179.6114   23505173.0104
      2210.3594
 -10960308.12149  -8529159.35447  22286911.7604   22286907.2404
      2224.0314
  -3184951.14349  -2472064.00648  21095983.8384   21095979.3614
      -780.7504
 04  9 17 16  8 30.0020000  0  6G 1G11G14G23G20G25
  -4776570.97149  -3717670.84048  21080243.0414   21080238.9124
       159.1724
    450730.25749    351925.21048  22097195.2444   22097190.5334
     -1549.5474
  14103430.44149  10969226.78747  24070405.3614   24070401.7174
     -2999.5164
  -5213566.95649  -4047128.24547  23498873.9164   23498867.7874
      2207.6414
 -10993641.78349  -8555133.62647  22280568.5884   22280563.8384
      2220.5784
  -3173173.77049  -2462886.83048  21098225.1274   21098220.4824
      -789.4844
 04  9 17 16  8 45.0020000  0  6G 1G11G14G23G20G25
  -4778924.91349  -3719505.09848  21079795.3774   21079791.6704
       154.7194
    474034.75149    370084.52848  22101629.9164   22101624.9824
     -1557.7664
  14148429.15249  11004290.66047  24078968.2524   24078964.6314
     -3000.2194
  -5246660.47149  -4072915.39647  23492576.7754   23492570.4244
      2204.8754
 -11026925.06549  -8581068.65947  22274234.9474   22274230.2564
      2217.1564
  -3161268.85949  -2453610.28548  21100490.2834   21100486.1274
      -797.9374
 04  9 17 16  9  0.0020000  0  6G 1G11G14G23G20G25
  -4781213.69249  -3721288.55248  21079359.5804   21079355.8694
       150.5164
    497460.63349    388338.45048  22106088.0574   22106083.3934
     -1565.6254
  14193433.63649  11039359.08647  24087532.2134   24087529.3114
     -3000.3444
  -5279715.12249  -4098672.25647  23486286.8144   23486280.3814
      2202.4694
 -11060159.40049  -8606965.53347  22267910.6664   22267905.5964
      2214.1254
  -3149238.05349  -2444235.63248  21102779.7684   21102775.6394
      -806.1414
 04  9 17 16  9 15.0020000  0  6G 1G11G14G23G20G25
  -4783435.67049  -3723019.97848  21078936.9084   21078932.2214
       145.9384
    521009.41149    406688.13448  22110568.8464   22110564.3814
     -1574.0004
  14238445.61249  11074433.30247  24096097.8224   24096094.5254
     -3000.9844
  -5312729.26649  -4124397.53547  23480004.3544   23479997.6704
      2199.6564
 -11093342.78649  -8632822.71547  22261596.1584   22261591.7094
      2210.5784
  -3137079.84049  -2434761.70848  21105093.3074   21105088.7014
      -814.8444
 04  9 17 16  9 30.0020000  0  6G 1G11G14G23G20G25
  -4785592.54949  -3724700.65848  21078526.5884   21078522.4594
       141.5944
    544679.35449    425132.22348  22115073.3224   22115068.6114
     -1582.0944
  14283463.33649  11109512.01347  24104664.1194   24104661.1974
     -3001.4224
  -5345704.46949  -4150092.48247  23473729.2524   23473722.6234
      2197.0004
 -11126476.62549  -8658641.29347  22255290.7524   22255286.3424
      2207.2194
  -3124796.00149  -2425189.89448  21107430.9394   21107427.1234
      -823.1254
 04  9 17 16  9 45.0020000  0  6G 1G11G14G23G20G25
  -4787683.48849  -3726329.96748  21078128.6274   21078124.8734
       137.1724
    568471.03949    443671.18048  22119600.5024   22119596.2054
     -1590.2344
  14328487.58949  11144595.80447  24113232.4394   24113228.8424
     -3001.8914
  -5378639.79249  -4175756.38447  23467461.8464   23467454.6624
      2194.2504
 -11159559.79949  -8684420.38047  22248995.8464   22248990.9594
      2203.8134
  -3112385.69549  -2415519.52148  21109792.4004   21109787.8144
      -831.6094
 04  9 17 16 10  0.0020000  0  6G 1G11G14G23G20G25
  -4789709.42049  -3727908.61948  21077742.9324   21077738.9044
       132.6884
    592383.41649    462304.18847  22124150.7994   22124146.2404
     -1598.3754
  14373517.41249  11179683.95147  24121801.3074   24121797.7754
     -3002.3594
  -5411536.05049  -4201389.80547  23461201.4004   23461195.2524
      2191.5944
 -11192592.95349  -8710160.50047  22242709.3384   22242704.9674
      2200.3914
  -3099849.98049  -2405751.43648  21112177.9634   21112174.1044
      -840.0624
 04  9 17 16 10 15.0020000  0  6G 1G11G14G23G20G25
  -4791670.33849  -3729436.62048  21077369.9634   21077365.5614
       128.5474
    616416.42049    481031.18747  22128724.4244   22128719.5024
     -1606.2344
  14418552.88549  11214776.46147  24130371.3854   24130367.6894
     -3002.5944
  -5444393.29049  -4226992.85147  23454949.1744   23454942.4634
      2189.1254
 -11225575.80349  -8735861.42847  22236432.8774   22236428.9794
      2197.1884
  -3087188.92649  -2395885.69948  21114587.5964   21114583.1864
      -848.2504
 04  9 17 16 10 30.0020000  0  6G 1G11G14G23G20G25
  -4793565.16049  -3730913.10748  21077009.1584   21077005.2684
       124.3284
    640570.97149    499852.89147  22133320.8384   22133316.0104
     -1614.1874
  14463595.09049  11249874.24647  24138943.0644   24138938.9594
     -3002.8124
  -5477210.15049  -4252564.40047  23448704.0254   23448697.8774
      2186.6724
 -11258506.91249  -8761522.02747  22230166.3224   22230161.7444
      2193.8754
  -3074401.43349  -2385921.42248  21117020.9084   21117016.3224
      -856.5164
 04  9 17 16 10 45.0020000  0  6G 1G11G14G23G20G25
  -4795395.09749  -3732339.03348  21076660.9944   21076656.5294
       119.6254
    664845.81349    518768.33447  22137940.4634   22137935.7324
     -1622.5944
  14508642.84549  11284976.38347  24147515.0184   24147511.0964
     -3003.7034
  -5509987.75149  -4278105.38847  23442467.2134   23442460.3114
      2183.6254
 -11291387.17349  -8787143.00647  22223909.7994   22223904.9084
      2190.0634
  -3061488.76949  -2375859.61348  21119478.0644   21119473.5614
      -865.2664
 04  9 17 16 11  0.0020000  0  6G 1G11G14G23G20G25
  -4797157.69949  -3733712.48648  21076325.7524   21076321.4364
       115.4384
    689243.22249    537779.29047  22142583.0334   22142578.0964
     -1630.4374
  14553698.53749  11320084.66747  24156089.1434   24156085.0294
     -3003.8284
  -5542723.49149  -4303613.73247  23436237.3934   23436231.2214
      2181.1564
 -11324213.87949  -8812722.26347  22217662.7684   22217658.1354
      2186.7974
  -3048448.58649  -2365698.42948  21121959.7054   21121954.9204
      -873.4374
 04  9 17 16 11 15.0020000  0  6G 1G11G14G23G20G25
  -4798856.67349  -3735036.35548  21076002.1664   21075998.4674
       111.1724
    713759.28549    556882.69247  22147248.2604   22147243.1234
     -1638.3124
  14598758.55449  11355196.32947  24164663.8304   24164659.6234
     -3004.1254
  -5575421.12149  -4329092.38747  23430015.3384   23430008.8384
      2178.5944
 -11356990.23949  -8838262.26547  22211425.7524   22211421.2214
      2183.4224
  -3035284.63949  -2355440.82448  21124464.6354   21124460.2874
      -881.6414
 04  9 17 16 11 30.0020000  0  6G 1G11G14G23G20G25
  -4800494.07549  -3736312.26148  21075690.4084   21075686.7404
       107.0634
    738391.91249    576076.94147  22151935.4394   22151930.9434
     -1646.0784
  14643820.73749  11390309.69747  24173238.2604   24173234.5454
     -3004.3444
  -5608082.49149  -4354542.79147  23423800.2524   23423794.0574
      2176.2974
 -11389718.11349  -8863764.51447  22205198.0414   22205192.7214
      2180.1564
  -3021999.12849  -2345088.47848  21126992.5184   21126988.2294
      -889.6874
 04  9 17 16 11 45.0020000  0  6G 1G11G14G23G20G25
  -4802065.70849  -3737536.91948  21075391.5644   21075387.7174
       102.5944
    763145.17949    595365.17847  22156646.1274   22156641.6354
     -1654.1414
  14688889.27049  11425427.99747  24181814.9714   24181811.1434
     -3004.7034
  -5640703.28249  -4379961.58247  23417592.1894   23417586.4904
      2173.4844
 -11422392.99049  -8889225.45047  22198980.0644   22198975.3774
      2176.6094
  -3008587.88049  -2334638.15948  21129544.6894   21129540.2134
      -898.1564
 04  9 17 16 12  0.0020000  0  6G 1G11G14G23G20G25
  -4803571.47849  -3738710.24148  21075105.1434   21075101.2794
        98.2664
    788018.90249    614747.28248  22161379.2914   22161374.8304
     -1662.1564
  14733964.34949  11460551.39946  24190392.6504   24190388.5964
     -3005.1094
  -5673283.35649  -4405348.61847  23411393.1194   23411386.7684
      2170.6564
 -11455014.45249  -8914644.77147  22192772.2444   22192767.6864
      2173.0634
  -2995050.92849  -2324089.88948  21132120.7914   21132116.3894
      -906.5784
 04  9 17 16 12 15.0020000  0  6G 1G11G14G23G20G25
  -4805011.83849  -3739832.61748  21074831.3304   21074827.0024
        93.6254
    813012.54049    634222.81948  22166135.4554   22166130.9324
     -1670.4844
  14779045.56649  11495679.57147  24198971.1044   24198967.1234
     -3005.8594
  -5705823.13149  -4430704.28347  23405200.9944   23405194.6974
      2167.6254
 -11487582.58049  -8940022.53647  22186574.5644   22186570.1824
      2169.1884
  -2981388.81649  -2313444.10748  21134720.5334   21134715.8504
      -915.2344
 04  9 17 16 12 30.0020000  0  6G 1G11G14G23G20G25
  -4806385.54849  -3740903.04048  21074569.9244   21074565.8544
        89.4844
    838127.13449    653792.62048  22170914.1894   22170910.0144
     -1678.1724
  14824134.01549  11530813.40246  24207550.8224   24207547.5804
     -3006.0624
  -5738321.23749  -4456027.46247  23399017.1584   23399010.5724
      2165.2504
 -11520095.90249  -8965357.58547  22180387.5414   22180382.7644
      2165.8914
  -2967600.35449  -2302699.85748  21137344.3694   21137339.9084
      -923.3444
 04  9 17 16 12 45.0020000  0  6G 1G11G14G23G20G25
  -4807695.11649  -3741923.48148  21074320.4554   21074316.3034
        85.1724
    863359.97849    673454.56448  22175716.1274   22175711.4634
     -1686.2344
  14869227.26449  11565950.91546  24216132.2754   24216128.1974
     -3006.3914
  -5770780.05249  -4481320.03347  23392839.6114   23392833.6934
      2162.5004
 -11552556.47949  -8990651.53347  22174210.7994   22174205.6824
      2162.3134
  -2953688.15249  -2291859.18748  21139991.8854   21139987.6074
      -931.6724
 04  9 17 16 13  0.0020000  0  6G 1G11G14G23G20G25
  -4808940.01049  -3742893.54448  21074083.3934   21074079.0844
        80.6884
    888711.52149    693208.99347  22180540.6354   22180536.0104
     -1694.1724
  14914325.81249  11601092.63646  24224714.2604   24224710.5724
     -3006.8754
  -5803199.01649  -4506581.54447  23386670.3074   23386663.7524
      2159.7194
 -11584963.61549  -9015903.85847  22168044.0184   22168039.3654
      2158.5944
  -2939651.64949  -2280921.66548  21142662.9944   21142658.3074
      -940.0474
 04  9 17 16 13 15.0020000  0  6G 1G11G14G23G20G25
  -4810118.17049  -3743811.58748  21073859.2524   21073855.3774
        76.4224
    914183.76449    713057.47447  22185387.9244   22185383.4164
     -1702.0944
  14959431.67349  11636240.00246  24233297.1744   24233294.1864
     -3007.1724
  -5835575.79949  -4531810.19447  23380509.3464   23380503.3654
      2157.1254
 -11617314.91949  -9041112.65147  22161887.5024   22161882.8304
      2155.0004
  -2925488.97549  -2269885.80648  21145357.9394   21145353.6114
      -948.2814
 04  9 17 16 13 30.0020000  0  6G 1G11G14G23G20G25
  -4811235.98949  -3744682.62948  21073646.9394   21073642.8934
        72.2504
    939770.16649    732994.91647  22190256.4164   22190252.4944
     -1709.8284
  15004538.54749  11671388.17246  24241880.6894   24241877.8574
     -3007.3914
  -5867916.75449  -4557010.91547  23374355.2994   23374349.2214
      2154.5634
 -11649616.39549  -9066282.64847  22155740.8144   22155736.3184
      2151.5474
  -2911206.53349  -2258756.63048  21148075.5254   21148071.2714
      -956.4534
 04  9 17 16 13 45.0020000  0  6G 1G11G14G23G20G25
  -4812286.93649  -3745501.53448  21073446.4794   21073442.4674
        67.8284
    965477.15949    753026.32647  22195148.6974   22195143.8614
     -1717.9374
  15049652.95849  11706542.19846  24250466.5104   24250462.9864
     -3007.8444
  -5900215.30149  -4582178.60047  23368208.9944   23368202.5494
      2151.6884
 -11681861.16349  -9091408.43547  22149604.8614   22149600.2014
      2147.6884
  -2896797.77349  -2247529.03648  21150817.6824   21150813.3344
      -964.7974
 04  9 17 16 14  0.0020000  0  6G 1G11G14G23G20G25
  -4813273.61649  -3746270.38948  21073258.8384   21073254.7214
        63.6094
    991301.94849    773149.52547  22200063.0414   22200058.6624
     -1725.5314
  15094772.16349  11741700.00946  24259052.5024   24259048.9984
     -3008.0784
  -5932473.86949  -4607315.13447  23362070.2684   23362064.2014
      2149.2814
 -11714051.50049  -9116491.81947  22143479.5414   22143474.6544
      2144.2194
  -2882265.49049  -2236205.18648  21153583.0024   21153578.7834
      -972.8914
 04  9 17 16 14 15.0020000  0  6G 1G11G14G23G20G25
  -4814195.50549  -3746988.74348  21073083.8464   21073079.8074
        59.2034
   1017244.80349    793364.71247  22204999.8074   22204994.8734
     -1733.4534
  15139896.88649  11776862.08246  24267639.2994   24267635.9284
     -3008.5474
  -5964691.73949  -4632419.97047  23355939.1974   23355933.0924
      2146.4384
 -11746186.55249  -9141532.10447  22137363.9554   22137359.4904
      2140.4694
  -2867609.18849  -2224784.69248  21156372.3074   21156367.4824
      -981.3284
 04  9 17 16 14 30.0020000  0  6G 1G11G14G23G20G25
  -4815056.80649  -3747659.89048  21072919.5334   21072915.3264
        55.5474
   1043301.29249    813668.45447  22209958.2604   22209953.6504
     -1740.7194
  15185022.85549  11812025.12946  24276226.6434   24276222.5844
     -3008.2194
  -5996873.24649  -4657496.44347  23349815.3614   23349809.2874
      2144.3754
 -11778270.31249  -9166532.45047  22131258.8614   22131254.1154
      2137.4064
  -2852833.30349  -2213271.02448  21159184.0644   21159179.6154
      -988.8124
 04  9 17 16 14 45.0020000  0  6G 1G11G14G23G20G25
  -4815855.20549  -3748282.02648  21072767.4004   21072764.0574
        51.0314
   1069473.74749    834062.54847  22214938.6044   22214933.4594
     -1748.8284
  15230152.47849  11847191.03346  24284814.4394   24284810.9634
     -3008.8124
  -6029015.87949  -4682542.63947  23343698.8074   23343692.5884
      2141.3914
 -11810300.03849  -9191490.68047  22125163.8614   22125158.9514
      2133.4844
  -2837935.53649  -2201662.38248  21162018.9554   21162014.0684
      -997.3594
 04  9 17 16 15  0.0020000  0  6G 1G11G14G23G20G25
  -4816589.02249  -3748853.83348  21072628.1194   21072624.0494
        46.6884
   1095763.56749    854548.11147  22219941.4864   22219936.3964
     -1756.6094
  15275287.32149  11882360.99347  24293403.4474   24293399.8694
     -3009.2194
  -6061117.87349  -4707557.15547  23337590.2994   23337583.9124
      2138.7194
 -11842273.86549  -9216405.34247  22119079.4004   22119075.1274
      2129.7344
  -2822914.21149  -2189957.46548  21164877.0494   21164872.8894
     -1005.5474
 04  9 17 16 15 15.0020000  0  6G 1G11G14G23G20G25
  -4817259.77149  -3749376.49648  21072500.1664   21072496.2604
        42.7814
   1122169.17649    875123.89848  22224966.3934   22224961.7994
     -1764.0624
  15320425.93149  11917533.89847  24301992.8144   24301989.5024
     -3009.2194
  -6093180.71249  -4732541.16747  23331488.6114   23331482.8854
      2136.4694
 -11874192.75849  -9241277.21047  22113005.1894   22113001.0534
      2126.3134
  -2807770.98249  -2178157.53548  21167758.5884   21167754.3344
     -1013.4374
 04  9 17 16 15 30.0020000  0  6G 1G11G14G23G20G25
  -4817867.46549  -3749850.03348  21072384.7994   21072380.5334
        38.1884
   1148690.35249    895789.72948  22230013.2134   22230008.3424
     -1772.1254
  15365568.25749  11952709.68647  24310582.7054   24310579.8964
     -3009.7344
  -6125204.18349  -4757494.54247  23325394.8144   23325388.4984
      2133.3754
 -11906056.47649  -9266106.08347  22106942.0184   22106937.5534
      2122.2504
  -2792505.92649  -2166262.70748  21170663.8304   21170659.5454
     -1021.8594
 04  9 17 16 15 45.0020000  0  6G 1G11G14G23G20G25
  -4818407.13349  -3750270.55648  21072282.5104   21072278.1784
        33.6724
   1175332.01749    916549.44948  22235082.7134   22235077.8304
     -1780.1874
  15410719.31949  11987892.29647  24319176.0574   24319171.4904
     -3010.3284
  -6157183.35249  -4782413.33647  23319308.9864   23319303.5414
      2130.4384
 -11937859.78549  -9290887.88647  22100890.0804   22100885.3614
      2118.2344
  -2777114.12849  -2154269.09848  21173592.5644   21173588.2324
     -1030.3444
 04  9 17 16 16  0.0020000  0  6G 1G11G14G23G20G25
  -4818881.99649  -3750640.57548  21072191.7054   21072187.9204
        29.6094
   1202090.73049    937400.38847  22240174.8144   22240169.9714
     -1787.6254
  15455875.89949  12023079.20247  24327767.9164   24327765.0724
     -3010.5164
  -6189121.22249  -4807299.98947  23313231.7444   23313225.7644
      2127.8594
 -11969605.58949  -9315624.87547  22094849.1744   22094844.4324
      2114.6564
  -2761598.88849  -2142179.30648  21176545.4634   21176540.9284
     -1038.3284
 04  9 17 16 16 15.0020000  0  6G 1G11G14G23G20G25
  -4819292.94949  -3750960.81048  21072113.9394   21072109.7254
        25.1564
   1228965.41849    958341.68247  22245288.6114   22245284.4244
     -1795.6414
  15501037.07749  12058269.71447  24336362.1114   24336358.8344
     -3010.9374
  -6221018.57849  -4832155.06447  23307162.4004   23307156.2324
      2125.0004
 -12001294.55949  -9340317.56847  22088818.7134   22088813.8694
      2110.5944
  -2745961.37949  -2129994.24648  21179521.0254   21179516.5144
     -1046.6724
 04  9 17 16 16 30.0020000  0  6G 1G11G14G23G20G25
  -4819640.35349  -3751231.52348  21072047.6274   21072043.6864
        20.9844
   1255955.64649    979373.01047  22250424.8854   22250420.4864
     -1803.2664
  15546202.58949  12093463.58047  24344956.9944   24344953.5374
     -3011.2344
  -6252875.73949  -4856978.81147  23301100.2914   23301093.7054
      2122.4384
 -12032926.51749  -9364965.85947  22082799.4554   22082795.0494
      2106.8134
  -2730201.95749  -2117714.18348  21182519.8774   21182515.5804
     -1054.7504
 04  9 17 16 16 45.0020000  0  6G 1G11G14G23G20G25
  -4819923.95749  -3751452.51648  21071993.5334   21071989.5844
        16.9064
   1283061.41949   1000494.37247  22255582.6354   22255578.0574
     -1810.7664
  15591372.61249  12128660.95746  24353551.9474   24353549.2054
     -3011.4224
  -6284692.24449  -4881770.86947  23295045.6744   23295039.5764
      2119.8284
 -12064501.10949  -9389569.43348  22076791.2834   22076786.4984
      2103.2194
  -2714320.42149  -2105338.95848  21185541.8614   21185537.6624
     -1062.7504
 04  9 17 16 17  0.0020000  0  6G 1G11G14G23G20G25
  -4820147.08349  -3751626.37748  21071950.7294   21071946.9244
        12.8134
   1310279.29849   1021703.09147  22260762.6114   22260757.7174
     -1818.2814
  15636543.78649  12163859.23746  24362148.2054   24362145.0294
     -3011.6254
  -6316471.39949  -4906533.83747  23288998.3464   23288991.9714
      2117.2974
 -12096021.16749  -9414130.51648  22070793.0644   22070788.2644
      2099.4694
  -2698320.18749  -2092871.26048  21188586.6824   21188582.1044
     -1070.6724
 04  9 17 16 17 15.0020000  0  6G 1G11G14G23G20G25
  -4820306.73249  -3751750.78848  21071920.7684   21071916.6744
         8.6254
   1337612.11449   1043001.36747  22265963.5884   22265959.0454
     -1825.9694
  15681719.23249  12199060.83446  24370744.8854   24370741.5964
     -3011.7344
  -6348210.19449  -4931265.33947  23282958.2364   23282952.2834
      2114.6414
 -12127483.44149  -9438646.58047  22064806.1274   22064801.4434
      2095.6254
  -2682198.34849  -2080308.78948  21191654.5884   21191649.7754
     -1078.6874
 04  9 17 16 17 30.0020000  0  6G 1G11G14G23G20G25
  -4820404.43649  -3751826.91848  21071902.0254   21071897.9324
         4.4694
   1365058.13749   1064387.86747  22271186.6504   22271181.5534
     -1833.4064
  15726897.51049  12234264.66147  24379341.6664   24379338.3304
     -3012.0164
  -6379909.88549  -4955966.37547  23276925.8934   23276919.6464
      2112.1094
 -12158889.03649  -9463118.46347  22058829.5884   22058824.9944
      2091.8754
  -2665956.40549  -2067652.73048  21194745.0964   21194740.7954
     -1086.6724
 04  9 17 16 17 45.0020000  0  6G 1G11G14G23G20G25
  -4820440.94749  -3751855.37348  21071895.0024   21071891.3934
         0.3444
   1392616.38749   1085861.80747  22276430.6274   22276425.9124
     -1841.0164
  15772077.61149  12269469.89947  24387939.5254   24387936.2444
     -3012.1094
  -6411571.21649  -4980637.53347  23270900.7214   23270894.7604
      2109.4384
 -12190238.39249  -9487546.54247  22052863.8934   22052858.7994
      2088.0784
  -2649595.38549  -2054903.89648  21197858.7364   21197854.5574
     -1094.7664
 04  9 17 16 18  0.0020000  0  6G 1G11G14G23G20G25
  -4820412.61249  -3751833.30748  21071900.4324   21071896.1584
        -3.9844
   1420290.51449   1107426.04547  22281696.9864   22281692.2994
     -1848.7814
  15817263.40449  12304679.52946  24396538.5804   24396534.9514
     -3012.5164
  -6443190.43049  -5005275.88647  23264884.0184   23264877.8574
      2106.6094
 -12221527.54249  -9511927.70347  22046909.8694   22046905.0024
      2083.9534
  -2633111.71249  -2042059.48448  21200995.2834   21200991.1154
     -1102.9694
 04  9 17 16 18 15.0020000  0  6G 1G11G14G23G20G25
  -4820322.40249  -3751763.01048  21071917.5724   21071913.6354
        -8.0314
   1448077.25149   1129078.02547  22286984.6504   22286979.9634
     -1856.1564
  15862452.00949  12339891.40746  24405138.0884   24405134.5334
     -3012.6254
  -6474770.36449  -5029883.60347  23258874.6434   23258868.3144
      2104.0164
 -12252759.23649  -9536264.08447  22040966.5184   22040962.1114
      2080.2664
  -2616508.31749  -2029121.77848  21204155.0644   21204150.4824
     -1110.8594
 04  9 17 16 18 30.0020000  0  6G 1G11G14G23G20G25
  -4820169.16049  -3751643.61248  21071946.8224   21071942.9084
       -12.1094
   1475977.69349   1150818.62347  22292293.7914   22292289.2714
     -1863.6564
  15907644.47449  12375106.23147  24413737.0024   24413734.1624
     -3012.9224
  -6506309.73149  -5054459.72547  23252872.8544   23252866.6704
      2101.4694
 -12283931.78349  -9560554.37647  22035034.4634   22035030.0374
      2076.2814
  -2599784.18149  -2016089.98348  21207337.4714   21207332.8934
     -1118.8124
 04  9 17 16 18 45.0020000  0  6G 1G11G14G23G20G25
  -4819952.40349  -3751474.71348  21071987.7524   21071983.8074
       -16.4694
   1503992.07949   1172647.98647  22297624.6584   22297620.7134
     -1871.2974
  15952841.24449  12410324.47647  24422338.0104   24422335.1354
     -3013.1254
  -6537807.96849  -5079003.79747  23246879.0644   23246872.7754
      2098.6254
 -12315044.56549  -9584798.10947  22029113.9794   22029109.1704
      2072.3444
  -2582938.94249  -2002963.84248  21210542.9554   21210538.3424
     -1126.8754
 04  9 17 16 19  0.0020000  0  6G 1G11G14G23G20G25
  -4819673.37949  -3751257.29648  21072041.4944   21072037.3504
       -20.9844
   1532119.00149   1194565.06247  22302977.1044   22302972.7294
     -1879.2194
  15998041.14949  12445545.13246  24430939.3304   24430936.4864
     -3013.8284
  -6569266.19849  -5103516.67847  23240893.0644   23240886.3224
      2095.5474
 -12346098.34549  -9608995.85748  22023204.7834   22023200.1934
      2067.9384
  -2565973.81049  -1989744.25348  21213771.3854   21213767.0294
     -1135.3284
 04  9 17 16 19 15.0020000  0  6G 1G11G14G23G20G25
  -4819329.63349  -3750989.44048  21072106.6354   21072102.4474
       -25.1094
   1560360.73249   1216571.57347  22308351.3144   22308346.8304
     -1886.5944
  16043246.65349  12480770.18447  24439541.8384   24439538.5924
     -3013.9694
  -6600681.95049  -5127996.48447  23234914.5724   23234908.1504
      2092.9384
 -12377090.51649  -9633145.60948  22017307.0494   22017302.5764
      2064.0634
  -2548886.67149  -1976429.60948  21217023.0494   21217018.6394
     -1143.2974
 04  9 17 16 19 30.0020000  0  6G 1G11G14G23G20G25
  -4818921.99349  -3750671.80648  21072184.1114   21072179.6824
       -29.4224
   1588716.29149   1238666.80847  22313747.5574   22313742.5414
     -1894.2034
  16088456.89249  12515998.85646  24448144.4864   24448141.9004
     -3014.2504
  -6632056.02249  -5152443.79947  23228944.1354   23228937.8114
      2090.1254
 -12408021.50349  -9657247.68648  22011421.1114   22011416.3654
      2059.8594
  -2531678.46949  -1963020.63148  21220297.4164   21220292.9594
     -1151.2974
 04  9 17 16 19 45.0020000  0  6G 1G11G14G23G20G25
  -4818453.76949  -3750306.95748  21072273.6504   21072269.5574
       -33.0784
   1617182.19349   1260848.00447  22319164.2444   22319159.5574
     -1901.2194
  16133668.63849  12551228.75747  24456748.0804   24456745.1504
     -3014.1094
  -6663391.47949  -5176861.03147  23222981.2604   23222975.2714
      2087.8914
 -12438894.21949  -9681304.33148  22005546.1664   22005541.6974
      2056.2504
  -2514352.56049  -1949519.92348  21223594.8144   21223590.5614
     -1158.8594
 04  9 17 16 20  0.0020000  0  6G 1G11G14G23G20G25
  -4817923.66749  -3749893.89548  21072374.0644   21072370.2604
       -37.5004
   1645759.63049   1283116.11447  22324602.4004   22324598.1154
     -1908.9844
  16178883.18449  12586460.80746  24465352.1974   24465349.3464
     -3014.4844
  -6694686.94749  -5201247.09947  23217026.1274   23217019.8344
      2084.8754
 -12469707.08049  -9705314.35948  21999683.0494   21999677.9824
      2052.0634
  -2496907.65349  -1935926.50348  21226914.4324   21226910.1354
     -1167.1254
 04  9 17 16 20 15.0020000  0  6G 1G11G14G23G20G25
  -4817330.61049  -3749431.77348  21072487.2684   21072483.0764
       -41.5624
   1674449.46249   1305471.81647  22330061.8934   22330057.1434
     -1916.3284
  16224101.68249  12621695.95047  24473956.9474   24473954.5534
     -3014.5784
  -6725941.39349  -5225601.18747  23211078.6434   23211071.8224
      2082.3754
 -12500458.85349  -9729276.77748  21993830.9244   21993826.3114
      2048.1564
  -2479342.84449  -1922239.64648  21230256.9244   21230252.4824
     -1174.8284
 04  9 17 16 20 30.0020000  0  6G 1G11G14G23G20G25
  -4816676.51049  -3748922.09248  21072611.2684   21072607.4164
       -45.7344
   1703249.48149   1327913.37247  22335542.4474   22335537.3574
     -1923.6874
  16269322.12849  12656932.62146  24482562.1664   24482558.9164
     -3014.7034
  -6757156.50449  -5249924.64047  23205138.3854   23205132.4364
      2079.6254
 -12531150.99249  -9753192.73248  21987990.7214   21987985.9394
      2044.0634
  -2461660.21949  -1908460.98048  21233621.8384   21233617.2294
     -1182.8284
 04  9 17 16 20 45.0020000  0  6G 1G11G14G23G20G25
  -4815960.31049  -3748364.02448  21072747.4944   21072743.6744
       -49.9534
   1732160.69949   1350441.58147  22341043.7444   22341038.9944
     -1931.2974
  16314545.54849  12692171.57946  24491168.2754   24491165.3614
     -3015.1414
  -6788331.16049  -5274216.57847  23199206.4004   23199199.6194
      2076.8134
 -12561782.09349  -9777061.11248  21982161.6114   21982157.0644
      2039.8444
  -2443858.74149  -1894589.70448  21237009.1894   21237005.2214
     -1190.8914
 04  9 17 16 21  0.0020000  0  6G 1G11G14G23G20G25
  -4815180.04149  -3747756.02948  21072896.3464   21072892.5884
       -53.9374
   1761184.85449   1373057.78147  22346566.8544   22346562.8264
     -1938.5474
  16359774.04049  12727414.55046  24499774.5574   24499771.8574
     -3015.1414
  -6819463.20149  -5298475.30447  23193281.8074   23193275.2294
      2074.2344
 -12592349.82249  -9800880.13948  21976344.4864   21976339.8544
      2035.9534
  -2425936.49649  -1880624.33548  21240419.6434   21240415.4124
     -1198.6254
 04  9 17 16 21 15.0020000  0  6G 1G11G14G23G20G25
  -4814337.19449  -3747099.26648  21073056.3614   21073052.4474
       -58.2034
   1790320.27049   1395760.68447  22352111.4004   22352106.8224
     -1946.0164
  16405006.21749  12762660.35346  24508381.8074   24508379.5614
     -3015.3594
  -6850553.96049  -5322701.86447  23187365.5804   23187358.5964
      2071.3444
 -12622855.38049  -9824650.70548  21970539.6744   21970535.1504
      2031.6724
  -2407895.06849  -1866566.07948  21243852.9864   21243848.5144
     -1206.6724
 04  9 17 16 21 30.0020000  0  6G 1G11G14G23G20G25
  -4813432.00649  -3746393.92248  21073229.1354   21073225.0534
       -62.5474
   1819566.56749   1418549.99447  22357676.7754   22357672.9324
     -1953.5004
  16450241.74449  12797908.73146  24516989.9554   24516987.8114
     -3015.9374
  -6881603.72849  -5346896.47847  23181456.6664   23181450.3464
      2068.5634
 -12653298.65049  -9848372.73048  21964746.5574   21964741.9284
      2027.3914
  -2389734.78249  -1852415.21748  21247308.7054   21247304.6504
     -1214.6724
 04  9 17 16 21 45.0020000  0  6G 1G11G14G23G20G25
  -4812463.83749  -3745639.50948  21073413.1194   21073409.4364
       -66.6564
   1848924.27049   1441426.11147  22363263.5414   22363259.0924
     -1960.9224
  16495481.20149  12833160.28946  24525599.0804   24525595.8264
     -3016.1094
  -6912611.72049  -5371058.53247  23175556.5804   23175549.8654
      2065.7814
 -12683678.61149  -9872045.42648  21958965.4084   21958961.1544
      2023.1884
  -2371455.11849  -1838171.33148  21250786.9944   21250783.0024
     -1222.6094
 04  9 17 16 22  0.0020000  0  6G 1G11G14G23G20G25
  -4811434.31449  -3744837.29348  21073608.7914   21073605.2794
       -70.4694
   1878391.51349   1464387.57447  22368870.8144   22368866.4204
     -1967.9844
  16540723.18649  12868413.69746  24534208.8544   24534205.1864
     -3015.9534
  -6943579.50049  -5395189.25547  23169663.4864   23169657.2214
      2063.3594
 -12713996.61549  -9895669.84848  21953196.1894   21953191.4594
      2019.3594
  -2353057.94649  -1823835.87648  21254288.0254   21254283.5374
     -1230.1564
 04  9 17 16 22 15.0020000  0  6G 1G11G14G23G20G25
  -4810342.31249  -3743986.39648  21073816.8934   21073812.8304
       -74.9694
   1907969.15149   1487435.05847  22374499.3464   22374494.8654
     -1975.5944
  16585968.69849  12903669.88346  24542818.4244   24542815.5374
     -3016.5474
  -6974505.77749  -5419287.65047  23163778.2364   23163771.4754
      2060.2814
 -12744251.21949  -9919244.86448  21947438.6194   21947434.3544
      2014.8444
  -2334542.38549  -1809408.17748  21257811.2134   21257806.7834
     -1238.4374
 04  9 17 16 22 30.0020000  0  6G 1G11G14G23G20G25
  -4809189.03849  -3743087.73848  21074036.3544   21074032.4754
       -79.0944
   1937655.82749   1510567.51847  22380148.8304   22380144.1504
     -1982.8754
  16631216.47149  12938927.83346  24551428.6664   24551426.0374
     -3016.8594
  -7005391.78349  -5443354.64247  23157900.4944   23157893.9324
      2057.5314
 -12774443.35449  -9942771.20748  21941693.1894   21941688.9944
      2010.5004
  -2315909.62249  -1794889.14648  21261356.9554   21261352.7644
     -1246.2664
 04  9 17 16 22 45.0020000  0  6G 1G11G14G23G20G25
  -4807971.52049  -3742139.02648  21074267.6664   21074263.7484
       -83.3754
   1967454.22549   1533787.02147  22385818.8694   22385814.5254
     -1990.3284
  16676469.51149  12974189.91746  24560040.3074   24560037.3734
     -3017.0164
  -7036234.37749  -5467387.84047  23152031.4474   23152024.5804
      2054.7194
 -12804569.65449  -9966246.23448  21935960.6664   21935956.1194
      2006.2664
  -2297156.70749  -1780276.49148  21264925.5494   21264921.4044
     -1254.2194
 04  9 17 16 23  0.0020000  0  6G 1G11G14G23G20G25
  -4806691.63449  -3741141.72048  21074511.3614   21074507.3854
       -87.3444
   1997362.40349   1557092.07347  22391509.8774   22391505.7294
     -1997.5474
  16721726.09849  13009454.72546  24568652.2994   24568649.3774
     -3017.1254
  -7067035.42349  -5491388.61947  23146170.4714   23146163.9044
      2052.0784
 -12834631.64149  -9989671.17248  21930240.5254   21930235.2834
      2002.0164
  -2278285.62249  -1765571.76748  21268516.4084   21268512.2524
     -1261.9694
 04  9 17 16 23 15.0020000  0  6G 1G11G14G23G20G25
  -4805349.99349  -3740096.29048  21074767.0184   21074762.9044
       -91.5164
   2027379.51449   1580482.01947  22397222.5254   22397217.9204
     -2004.7814
  16766985.53549  13044721.74446  24577264.9084   24577262.2054
     -3017.3914
  -7097795.42249  -5515357.44347  23140316.9554   23140310.8114
      2049.3134
 -12864629.68449 -10013046.26748  21924531.5334   21924527.1044
      1997.7034
  -2259297.11049  -1750775.52748  21272130.0964   21272125.5494
     -1269.7974
 04  9 17 16 23 30.0020000  0  6G 1G11G14G23G20G25
  -4803948.80949  -3739004.45748  21075033.5104   21075030.0724
       -95.5004
   2057503.27849   1603955.06747  22402954.8464   22402950.4284
     -2011.9374
  16812245.69549  13079989.38946  24585877.7364   24585875.0414
     -3017.3594
  -7128516.37449  -5539295.84447  23134471.0104   23134464.2094
      2046.7344
 -12894565.62249 -10036372.96348  21918835.0184   21918830.5804
      1993.5164
  -2240193.46049  -1735889.57048  21275765.4474   21275760.8964
     -1277.5004
 04  9 17 16 23 45.0020000  0  6G 1G11G14G23G20G25
  -4802487.74149  -3737865.96848  21075311.6354   21075307.6584
       -99.3754
   2087733.77649   1627511.28147  22408707.2214   22408702.8384
     -2018.9374
  16857506.91549  13115257.80546  24594490.4634   24594487.8964
     -3017.3754
  -7159197.87149  -5563203.48647  23128632.2294   23128625.5494
      2044.0634
 -12924438.76049 -10059650.73848  21913150.1434   21913145.5964
      1989.3914
  -2220974.59849  -1720913.83148  21279422.6584   21279418.3344
     -1285.0624
 04  9 17 16 24  0.0020000  0  6G 1G11G14G23G20G25
  -4800965.99249  -3736680.19348  21075600.8224   21075597.1194
      -103.2034
   2118071.59549   1651151.12947  22414480.7054   22414476.1154
     -2025.8754
  16902769.98049  13150527.69346  24603104.1584   24603101.5964
     -3017.5314
  -7189839.11849  -5587079.76747  23122801.3224   23122794.4084
      2041.6564
 -12954247.96549 -10082878.69748  21907478.0494   21907473.2254
      1985.3754
  -2201639.86849  -1705847.82448  21283101.8144   21283097.3424
     -1292.6414
 04  9 17 16 24 15.0020000  0  6G 1G11G14G23G20G25
  -4799382.41749  -3735446.24848  21075902.2754   21075898.6114
      -107.5784
   2148517.78149   1674875.40247  22420274.6354   22420270.0294
     -2033.2504
  16948036.09449  13185799.96246  24611718.0724   24611714.8464
     -3017.8124
  -7220438.75649  -5610923.64247  23116978.7524   23116971.7174
      2038.6254
 -12983991.81049 -10106055.72348  21901817.5884   21901813.0574
      1980.8754
  -2182188.10349  -1690690.61348  21286803.4324   21286799.0184
     -1300.6254
 04  9 17 16 24 30.0020000  0  6G 1G11G14G23G20G25
  -4797740.08249  -3734166.50748  21076214.8384   21076211.1354
      -111.4844
   2179069.02849   1698681.55547  22426088.2294   22426083.1664
     -2040.3444
  16993302.24649  13221072.14346  24620331.4864   24620328.8934
     -3017.7504
  -7250999.78449  -5634737.40747  23111162.9244   23111156.4984
      2036.0634
 -13013672.92149 -10129183.85548  21896169.3854   21896164.7324
      1976.5784
  -2162622.61749  -1675444.77948  21290526.8934   21290522.0374
     -1308.1724
 04  9 17 16 24 45.0020000  0  6G 1G11G14G23G20G25
  -4796034.51149  -3732837.49448  21076539.3144   21076535.3774
      -115.7504
   2209729.47349   1722572.78747  22431922.6354   22431918.4634
     -2047.6094
  17038572.79249  13256347.88646  24628946.2364   24628944.0024
     -3018.1094
  -7281517.71849  -5658517.62047  23105355.7684   23105348.9044
      2033.1094
 -13043286.65449 -10152259.49248  21890534.3854   21890529.7404
      1972.0474
  -2142938.94549  -1660106.86348  21294272.3854   21294267.9864
     -1316.1874
 04  9 17 16 25  0.0020000  0  6G 1G11G14G23G20G25
  -4794266.82449  -3731460.08848  21076875.8544   21076871.8224
      -120.0784
   2240497.87449   1746548.15047  22437777.8614   22437772.7134
     -2054.9224
  17083846.73349  13291626.25146  24637562.2754   24637559.3144
     -3018.4694
  -7311993.53449  -5682264.98147  23099556.2294   23099549.3694
      2030.2034
 -13072833.72949 -10175283.19248  21884911.9474   21884907.1864
      1967.3754
  -2123138.43849  -1644677.90348  21298040.3774   21298035.7014
     -1324.0474
 04  9 17 16 25 15.0020000  0  6G 1G11G14G23G20G25
  -4792437.47049  -3730034.62448  21077224.2134   21077220.0924
      -123.9374
   2271373.70249   1770607.21447  22443653.1664   22443648.7324
     -2061.8444
  17129123.63049  13326906.86546  24646177.1194   24646174.7214
     -3018.4534
  -7342427.59949  -5705979.83547  23093765.0334   23093758.3184
      2027.7034
 -13102314.30649 -10198255.06848  21879301.7294   21879296.9984
      1963.3444
  -2103221.58149  -1629158.29248  21301830.4794   21301826.1074
     -1331.5164
 04  9 17 16 25 30.0020000  0  6G 1G11G14G23G20G25
  -4790550.82249  -3728564.51048  21077582.6504   21077578.6784
      -127.8124
   2302352.25449   1794746.31247  22449548.3544   22449543.3264
     -2068.7194
  17174399.11749  13362186.46546  24654792.5104   24654790.5534
     -3018.4064
  -7372824.18249  -5729665.48947  23087980.7054   23087973.8184
      2025.1254
 -13131732.35849 -10221178.22748  21873703.8144   21873698.6784
      1959.0164
  -2083192.82949  -1613551.48348  21305641.5334   21305637.3964
     -1339.0164
 04  9 17 16 25 45.0020000  0  6G 1G11G14G23G20G25
  -4788603.79449  -3727047.34748  21077953.5184   21077949.5924
      -131.7664
   2333436.57149   1818967.85347  22455463.3144   22455458.5064
     -2075.8124
  17219676.42149  13397467.36646  24663409.1274   24663406.7134
     -3018.4534
  -7403179.95249  -5753319.31847  23082204.1824   23082197.3964
      2022.3754
 -13161084.41249 -10244049.95048  21868117.9474   21868112.9514
      1954.6414
  -2063049.16949  -1597855.12048  21309474.7994   21309470.5574
     -1346.6724
 04  9 17 16 26  0.0020000  0  6G 1G11G14G23G20G25
  -4786594.26249  -3725481.49248  21078335.9084   21078332.5104
      -136.3914
   2364628.54049   1843273.26847  22461399.1044   22461394.3504
     -2083.3914
  17264957.56149  13432751.31646  24672026.4474   24672023.6464
     -3019.2344
  -7433492.73049  -5776939.65347  23076435.3304   23076429.2054
      2018.9694
 -13190367.98149 -10266868.31948  21862545.6354   21862541.4364
      1949.5634
  -2042788.58849  -1582067.65648  21313330.4084   21313326.3114
     -1354.8754
 04  9 17 16 26 15.0020000  0  6G 1G11G14G23G20G25
  -4784523.48549  -3723867.89648  21078729.9864   21078726.3774
      -140.0164
   2395926.59749   1867661.34647  22467354.7914   22467350.4824
     -2090.0474
  17310241.32349  13468037.32746  24680643.8384   24680641.0884
     -3019.0624
  -7463763.76449  -5800527.46347  23070674.7604   23070668.5964
      2016.7034
 -13219584.07749 -10289634.10548  21856985.6824   21856981.2484
      1945.5164
  -2022412.57749  -1566190.24748  21317207.8144   21317203.3854
     -1362.1564
 04  9 17 16 26 30.0020000  0  6G 1G11G14G23G20G25
  -4782390.88249  -3722206.13648  21079135.8544   21079132.0064
      -143.7664
   2427331.06549   1892132.34947  22473330.8544   22473326.1664
     -2096.7504
  17355528.25449  13503325.77146  24689261.1194   24689258.3734
     -3018.7664
  -7493992.44949  -5824082.28247  23064922.8304   23064916.1624
      2014.2664
 -13248731.82549 -10312346.63848  21851439.4004   21851434.6154
      1941.3444
  -2001920.79949  -1550222.63848  21321107.1824   21321102.7134
     -1369.5314
 04  9 17 16 26 45.0020000  0  6G 1G11G14G23G20G25
  -4780198.48649  -3720497.77648  21079553.3074   21079549.3264
      -148.1414
   2458839.85449   1916684.62747  22479327.2054   22479322.5024
     -2104.0624
  17400816.46649  13538615.22246  24697879.7444   24697876.7214
     -3019.2034
  -7524180.74949  -5847605.61647  23059178.2604   23059172.0764
      2011.1724
 -13277812.84949 -10335007.17148  21845904.9864   21845900.6704
      1936.5474
  -1981315.32549  -1534166.43648  21325028.3544   21325024.0024
     -1377.4844
 04  9 17 16 27  0.0020000  0  6G 1G11G14G23G20G25
  -4777947.30349  -3718743.61448  21079981.2444   21079977.4284
      -152.0474
   2490451.75049   1941317.25647  22485341.9944   22485337.8774
     -2110.8914
  17446104.89349  13573904.84246  24706497.7834   24706495.1544
     -3019.2974
  -7554329.44249  -5871098.09647  23053441.3614   23053434.8694
      2008.5944
 -13306827.89649 -10357616.30748  21840384.1504   21840379.3694
      1932.1094
  -1960597.30049  -1518022.52448  21328970.8144   21328966.5614
     -1384.9694
 04  9 17 16 27 15.0020000  0  6G 1G11G14G23G20G25
  -4775635.33749  -3716942.08348  21080421.3384   21080417.8424
      -155.9694
   2522168.63149   1966031.69247  22491378.2054   22491373.4864
     -2117.8444
  17491395.58549  13609196.26646  24715116.7604   24715113.1664
     -3019.3284
  -7584436.37149  -5894558.02447  23047712.1744   23047706.1274
      2005.9224
 -13335774.68149 -10380172.24248  21834875.6974   21834870.8544
      1927.6564
  -1939764.92249  -1501789.50748  21332935.2054   21332930.8264
     -1392.4694
 04  9 17 16 27 30.0020000  0  6G 1G11G14G23G20G25
  -4773261.79449  -3715092.57248  21080873.1504   21080869.6114
      -160.1724
   2553990.95249   1990828.29647  22497433.4634   22497429.0184
     -2124.8914
  17536689.34349  13644490.01146  24723735.6434   24723732.9754
     -3019.5474
  -7614500.73649  -5917984.80847  23041990.7444   23041984.3504
      2002.9694
 -13364651.94549 -10402674.00448  21829380.5254   21829375.5454
      1922.9224
  -1918817.41549  -1485466.78148  21336921.4634   21336917.1074
     -1400.2814
 04  9 17 16 27 45.0020000  0  6G 1G11G14G23G20G25
  -4770829.07349  -3713196.95848  21081335.8854   21081332.0924
      -163.9844
   2585916.08449   2015704.99047  22503508.5884   22503504.3504
     -2131.6564
  17581983.88949  13679784.40646  24732354.2444   24732351.9044
     -3019.5314
  -7644524.82549  -5941380.19547  23036278.0104   23036271.1784
      2000.3594
 -13393461.77549 -10425123.22748  21823898.1354   21823893.5454
      1918.5164
  -1897757.26949  -1469056.28548  21340928.7364   21340924.6584
     -1407.6254
 04  9 17 16 28  0.0020000  0  6G 1G11G14G23G20G25
  -4768338.98649  -3711256.63448  21081809.8544   21081806.2834
      -168.0004
   2617942.03549   2040660.25547  22509603.1974   22509598.3894
     -2138.5004
  17627277.33449  13715077.93746  24740973.9394   24740971.0104
     -3019.5314
  -7674510.46649  -5964745.62347  23030571.2524   23030565.1624
      1997.7194
 -13422205.75849 -10447521.12748  21818428.3224   21818423.5884
      1913.9534
  -1876586.49549  -1452559.58548  21344957.4394   21344953.3114
     -1415.2344
 04  9 17 16 28 15.0020000  0  6G 1G11G14G23G20G25
  -4765788.38749  -3709269.16348  21082295.1354   21082291.5024
      -172.1414
   2650071.82049   2065696.43747  22515717.4794   22515712.9474
     -2145.5784
  17672573.02449  13750373.23246  24749593.2524   24749591.1624
     -3019.8444
  -7704454.34949  -5988078.51647  23024873.4714   23024867.0334
      1994.7814
 -13450880.31249 -10469864.95448  21812972.0254   21812967.1114
      1909.2344
  -1855302.01049  -1435974.28748  21349008.0334   21349003.8814
     -1422.7814
 04  9 17 16 28 30.0020000  0  5G 1G11G23G20G25
  -4763176.67149  -3707234.07048  21082792.2754   21082788.0924
      -176.1874
   2682305.68649   2090813.72647  22521851.0414   22521846.5844
     -2152.4844
  -7734355.64549  -6011378.23047  23019183.2134   23019176.9164
      1991.9844
 -13479484.45349 -10492153.89348  21807528.6194   21807524.1704
      1904.5164
  -1833903.33049  -1419299.99348  21353079.6584   21353075.8654
     -1430.4374
 04  9 17 16 28 45.0020000  0  5G 1G11G23G20G25
  -4760504.11149  -3705151.55648  21083301.1044   21083297.2564
      -180.2814
   2714643.25849   2116011.80947  22528004.6354   22527999.9514
     -2159.4374
  -7764214.66549  -6034644.97947  23013501.4634   23013495.2914
      1989.0164
 -13508018.22449 -10514387.99048  21802098.9394   21802094.1074
      1899.7814
  -1812390.86549  -1402537.05148  21357173.7294   21357169.3424
     -1438.1094
 04  9 17 16 29  0.0020000  0  5G 1G11G23G20G25
  -4757769.46149  -3703020.66548  21083821.3144   21083816.8854
      -184.2504
   2747085.50449   2141291.47347  22534177.8934   22534173.3694
     -2166.1724
  -7794030.00149  -6057877.70147  23007827.6664   23007821.6784
      1986.3284
 -13536480.02749 -10536566.02548  21796682.6504   21796677.7444
      1895.1724
  -1790763.61849  -1385684.65148  21361288.9864   21361284.9044
     -1445.5314
 04  9 17 16 29 15.0020000  0  5G 1G11G23G20G25
  -4754973.62849  -3700842.10148  21084353.3694   21084349.2914
      -188.4534
   2779631.43849   2166651.90847  22540371.5024   22540367.3384
     -2173.2194
  -7823802.54749  -6081077.09147  23002162.1044   23002155.4514
      1983.3914
 -13564870.43449 -10558688.42448  21791280.2364   21791275.7644
      1890.2664
  -1769022.68749  -1368743.68048  21365426.3934   21365422.2324
     -1453.2814
 04  9 17 16 29 30.0020000  0  5G 1G11G23G20G25
  -4752118.21749  -3698617.11248  21084896.6354   21084892.7754
      -192.4064
   2812279.23749   2192091.73447  22546584.3074   22546579.9824
     -2179.9224
  -7853533.80149  -6104244.29847  22996503.9944   22996497.7834
      1980.6094
 -13593190.70949 -10580756.16648  21785891.3614   21785886.3144
      1885.6094
  -1747169.65549  -1351715.34648  21369584.7214   21369580.6824
     -1460.6564
 04  9 17 16 29 45.0020000  0  5G 1G11G23G20G25
  -4749201.68849  -3696344.50948  21085451.6664   21085447.3774
      -196.5314
   2845030.09449   2217611.87147  22552816.4394   22552812.3464
     -2186.9064
  -7883222.21149  -6127378.10547  22990855.2994   22990848.6824
      1977.7034
 -13621439.01249 -10602767.83348  21780515.6354   21780510.8694
      1880.7344
  -1725203.22549  -1334598.66148  21373765.0184   21373760.5964
     -1468.2664
 04  9 17 16 30  0.0020000  0  5G 1G11G23G20G25
  -4746225.33949  -3694025.26348  21086018.0884   21086014.2294
      -200.2034
   2877882.46849   2243211.10447  22559068.1434   22559063.8224
     -2193.3754
  -7912868.90149  -6150479.40447  22985213.4474   22985206.5844
      1975.1254
 -13649616.29649 -10624724.14948  21775153.3774   21775149.4044
      1876.2664
  -1703124.82849  -1317394.72048  21377966.2914   21377962.2834
     -1475.4844
 04  9 17 16 30 15.0020000  0  5G 1G11G23G20G25
  -4743191.00249  -3691660.85948  21086595.4864   21086592.2094
      -204.1724
   2910834.31149   2268887.84847  22565338.7364   22565334.2524
     -2200.0164
  -7942475.54749  -6173549.51647  22979579.4394   22979572.5804
      1972.5314
 -13677724.04849 -10646626.30148  21769804.6744   21769800.3304
      1871.5784
  -1680936.57449  -1300105.18748  21382188.7914   21382184.0494
     -1482.7814
 04  9 17 16 30 30.0020000  0  5G 1G11G23G20G25
  -4740094.92349  -3689248.33548  21087184.3614   21087180.4714
      -208.3124
   2943889.30749   2294644.96947  22571629.1824   22571624.5064
     -2206.9694
  -7972038.42049  -6196585.51347  22973953.2524   22973947.0104
      1969.5474
 -13705758.30349 -10668471.17048  21764470.0644   21764465.7444
      1866.6884
  -1658634.75849  -1282727.15048  21386432.7604   21386428.0844
     -1490.3754
 04  9 17 16 30 45.0020000  0  5G 1G11G23G20G25
  -4736940.26349  -3686790.16448  21087785.2994   21087781.7994
      -212.1564
   2977044.04549   2320479.81147  22577937.4394   22577933.5804
     -2213.4694
  -8001560.56149  -6219589.78647  22968336.0024   22968329.4124
      1966.9224
 -13733721.81249 -10690260.93448  21759148.7994   21759144.3344
      1861.9844
  -1636222.53349  -1265263.09248  21390697.4164   21390693.5724
     -1497.7194
 04  9 17 16 31  0.0020000  0  5G 1G11G23G20G25
  -4733728.24849  -3684287.30348  21088395.9164   21088392.0764
      -216.1094
   3010297.04649   2346391.21747  22584265.8144   22584261.6544
     -2220.2034
  -8031043.09249  -6242563.17647  22962725.8934   22962718.9284
      1964.0944
 -13761615.37149 -10711996.17748  21753840.7524   21753836.0144
      1857.1414
  -1613701.43949  -1247714.20048  21394982.9474   21394979.0374
     -1505.1254
 04  9 17 16 31 15.0020000  0  5G 1G11G23G20G25
  -4730454.45549  -3681736.29748  21089019.0024   21089015.4824
      -220.5004
   3043652.48049   2372382.44947  22590612.8934   22590608.7874
     -2227.3284
  -8060481.39549  -6265502.09547  22957123.5964   22957117.1744
      1960.8594
 -13789434.23549 -10733673.20148  21748547.0964   21748542.2014
      1851.9224
  -1591067.04249  -1230077.00448  21399290.2604   21399286.4084
     -1512.8914
 04  9 17 16 31 30.0020000  0  5G 1G11G23G20G25
  -4727121.16949  -3679138.94248  21089653.6354   21089649.5534
      -224.3444
   3077107.81549   2398451.51647  22596979.1504   22596974.3964
     -2233.7974
  -8089877.68549  -6288408.29747  22951529.6824   22951523.1004
      1958.2194
 -13817180.37749 -10755293.57748  21743267.0494   21743262.1114
      1847.1414
  -1568321.77049  -1212353.43548  21403618.4084   21403614.2094
     -1520.1874
 04  9 17 16 31 45.0020000  0  5G 1G11G23G20G25
  -4723727.90349  -3676494.83648  21090298.9944   21090295.2214
      -228.0624
   3110663.59349   2424598.86247  22603364.7994   22603361.0104
     -2240.2814
  -8119231.48249  -6311281.39647  22945944.0334   22945937.4984
      1955.6254
 -13844853.01049 -10776856.66348  21738001.2214   21737996.4394
      1842.5314
  -1545465.35549  -1194543.24448  21407968.1194   21407963.6584
     -1527.3594
 04  9 17 16 32  0.0020000  0  5G 1G11G23G20G25
  -4720273.65349  -3673803.21848  21090956.2914   21090952.0764
      -232.4374
   3144320.38849   2450824.91547  22609769.6114   22609765.0764
     -2247.2814
  -8148541.61649  -6334120.44947  22940366.1744   22940359.7484
      1952.4694
 -13872450.73249 -10798361.38448  21732749.5334   21732744.3544
      1837.2034
  -1522496.90649  -1176645.75948  21412338.7994   21412334.5454
     -1535.0784
 04  9 17 16 32 15.0020000  0  5G 1G11G23G20G25
  -4716760.66949  -3671065.84748  21091625.0724   21091621.0494
      -236.2504
   3178075.67949   2477127.70147  22616193.3464   22616189.0454
     -2253.7504
  -8177810.30149  -6356927.21447  22934796.7754   22934790.6624
      1949.7814
 -13899975.46849 -10819809.23148  21727511.6274   21727507.0494
      1832.4224
  -1499418.87449  -1158662.88848  21416730.5254   21416726.2324
     -1542.2814
 04  9 17 16 32 30.0020000  0  5G 1G11G23G20G25
  -4713189.68449  -3668283.25448  21092304.6274   21092300.6624
      -239.7504
   3211928.54949   2503506.54747  22622635.3854   22622630.7604
     -2259.8444
  -8207038.14149  -6379702.13647  22929234.7294   22929228.3034
      1947.3594
 -13927427.68749 -10841200.57848  21722287.6504   21722282.7874
      1827.9534
  -1476232.10849  -1140595.28648  21421142.7604   21421138.3574
     -1549.1724
 04  9 17 16 32 45.0020000  0  5G 1G11G23G20G25
  -4709562.04149  -3665456.52648  21092994.8224   21092990.6504
      -243.8754
   3245877.37049   2529960.16147  22629095.4554   22629091.0104
     -2266.5944
  -8236226.39849  -6402446.22447  22923680.1894   22923673.8504
      1944.4384
 -13954808.34449 -10862536.14848  21717077.5804   21717073.0964
      1822.7974
  -1452938.10549  -1122444.12648  21425575.4394   21425571.3964
     -1556.6724
 04  9 17 16 33  0.0020000  0  6G 1G11G16G23G20G25
  -4705873.87849  -3662582.64648  21093696.7754   21093692.5574
      -248.0624
   3279925.91649   2556491.46547  22635574.7834   22635570.2014
     -2273.4064
    -98520.86359    -71145.13656  24635303.9324   24635302.7214
      2752.0634
  -8265371.15349  -6425156.43447  22918134.6584   22918127.7174
      1941.3594
 -13982113.23449 -10883812.69948  21711881.4084   21711876.9554
      1817.6564
  -1429533.21049  -1104206.55948  21430029.1974   21430024.9284
     -1564.2034
 04  9 17 16 33 15.0020000  0  6G 1G11G16G23G20G25
  -4702125.92649  -3659662.16548  21094410.1274   21094405.8504
      -251.8754
   3314073.18349   2583099.70447  22642072.7444   22642068.2874
     -2279.8124
   -139796.13549   -103307.61346  24627448.7604   24627447.7294
      2751.3594
  -8294473.00549  -6447833.19147  22912596.5184   22912589.4984
      1938.6564
 -14009342.75349 -10905030.50848  21706699.9164   21706695.2444
      1812.7194
  -1406018.17849  -1085883.16848  21434503.6194   21434499.2684
     -1571.3594
 04  9 17 16 33 30.0020000  0  6G 1G11G16G23G20G25
  -4698320.51449  -3656696.91048  21095134.2754   21095130.2954
      -255.2974
   3348316.55349   2609782.83747  22648589.0574   22648584.3224
     -2285.8284
   -181058.11149   -135459.78646  24619597.0024   24619595.5574
      2750.7664
  -8323534.23349  -6470478.28947  22907066.0334   22907059.8654
      1936.3914
 -14036499.03849 -10926191.24248  21701532.2684   21701527.3304
      1808.2814
  -1382395.48049  -1067475.87248  21438999.2294   21438994.9824
     -1578.1094
 04  9 17 16 33 45.0020000  0  6G 1G11G16G23G20G25
  -4694460.06149  -3653688.76648  21095868.9394   21095864.6784
      -259.7344
   3382653.40349   2636538.79947  22655123.0184   22655118.3504
     -2292.8124
   -222308.68449   -167603.00746  24611747.7054   24611745.7404
      2749.0784
  -8352557.15449  -6493093.54147  22901543.1824   22901536.3424
      1932.9694
 -14063584.13049 -10947296.51148  21696377.8774   21696373.5294
      1802.7344
  -1358667.88749  -1048986.84248  21443514.3304   21443509.8114
     -1585.9064
 04  9 17 16 34  0.0020000  0  6G 1G11G16G23G20G25
  -4690538.16649  -3650632.75148  21096614.9474   21096610.8734
      -263.3444
   3417089.93249   2663372.44547  22661676.2294   22661671.5414
     -2298.9844
   -263541.11349   -199732.12546  24603901.2834   24603899.4714
      2748.3914
  -8381535.30749  -6515673.91747  22896028.7134   22896022.6154
      1930.5164
 -14090591.21449 -10968340.99048  21691239.0254   21691234.5454
      1798.0314
  -1334829.03149  -1030411.12548  21448050.8854   21448046.3344
     -1592.8594
 04  9 17 16 34 15.0020000  0  6G 1G11G16G23G20G25
  -4686559.42149  -3647532.43548  21097372.2604   21097368.0184
      -266.9694
   3451621.28449   2690279.96847  22668247.5104   22668242.6624
     -2305.1094
   -304759.37049   -231850.20746  24596058.0884   24596055.9044
      2747.5784
  -8410473.17749  -6538222.89147  22890522.1274   22890515.7604
      1928.0314
 -14117524.67949 -10989328.10748  21686113.7214   21686108.9594
      1793.2974
  -1310883.56249  -1011752.32848  21452607.6044   21452602.9554
     -1599.7814
 04  9 17 16 34 30.0020000  0  6G 1G11G16G23G20G25
  -4682523.31049  -3644387.42348  21098140.3074   21098136.2684
      -270.8444
   3486247.77049   2717261.61947  22674836.2684   22674832.0724
     -2311.5474
   -345962.57949   -263956.56846  24588217.3304   24588214.8384
      2746.4694
  -8439370.08849  -6560739.95747  22885023.3144   22885016.3934
      1925.2504
 -14144383.56649 -11010257.11248  21681002.2914   21680998.1234
      1788.2344
  -1286831.10449   -993010.16548  21457184.3694   21457180.0764
     -1607.0004
 04  9 17 16 34 45.0020000  0  6G 1G11G16G23G20G25
  -4678428.70949  -3641196.82548  21098919.2364   21098915.1074
      -275.0314
   3520970.40749   2744318.20247  22681444.0254   22681439.6864
     -2318.1724
   -387149.18949   -296050.02046  24580379.6354   24580377.9944
      2745.0634
  -8468224.79049  -6583224.13047  22879532.2604   22879525.9794
      1922.1094
 -14171166.35149 -11031126.81348  21675906.1274   21675901.3424
      1782.8134
  -1262670.82849   -974183.97748  21461782.2604   21461777.9754
     -1614.3754
 04  9 17 16 35  0.0020000  0  6G 1G11G16G23G20G25
  -4674276.08649  -3637961.01848  21099709.6894   21099705.4004
      -278.9064
   3555788.33249   2771449.04647  22688069.6584   22688065.5024
     -2324.4374
   -428319.19949   -328130.47546  24572545.5804   24572543.1744
      2744.0474
  -8497037.75449  -6605675.78747  22874049.5574   22874043.0614
      1919.3914
 -14197873.29249 -11051937.42348  21670823.6354   21670819.0334
      1777.8754
  -1238403.36249   -955274.26448  21466400.0644   21466396.1004
     -1621.5004
 04  9 17 16 35 15.0020000  0  6G 1G11G16G23G20G25
  -4670065.53949  -3634680.08048  21100510.7994   21100506.6934
      -282.7194
   3590701.26749   2798653.89947  22694713.2294   22694709.1234
     -2330.7664
   -469472.25449   -360197.74746  24564713.5334   24564711.8464
      2742.8594
  -8525809.01949  -6628094.93747  22868574.2294   22868567.6194
      1916.5944
 -14224504.13549 -11072688.72648  21665755.9324   21665751.5534
      1772.8284
  -1214028.97649   -936281.25048  21471037.9944   21471033.5414
     -1628.5474
 04  9 17 16 35 30.0020000  0  6G 1G11G16G23G20G25
  -4665797.38249  -3631354.24948  21101323.1504   21101319.1664
      -286.1874
   3625708.72049   2825932.42547  22701374.7134   22701370.7874
     -2336.7504
   -510608.24749   -392251.75846  24556886.3304   24556884.4794
      2742.0474
  -8554538.80449  -6650481.78547  22863106.9324   22863101.0804
      1914.1724
 -14251058.82549 -11093380.70748  21660702.9164   21660698.1544
      1768.0314
  -1189548.07449   -917205.23648  21475696.4244   21475692.4364
     -1635.3444
 04  9 17 16 35 45.0020000  0  6G 1G11G16G23G20G25
  -4661473.83749  -3627985.26448  21102145.7364   21102141.5844
      -290.2034
   3660808.13149   2853282.58947  22708054.1434   22708050.1194
     -2343.0784
   -551728.81149   -424293.71146  24549061.5724   24549059.2174
      2740.6724
  -8583229.13549  -6672837.88147  22857647.9244   22857641.6114
      1911.2664
 -14277539.26149 -11114014.80048  21655663.9324   21655659.3964
      1762.8754
  -1164963.01049   -898048.04948  21480375.2684   21480371.1864
     -1642.5944
 04  9 17 16 36  0.0020000  0  6G 1G11G16G23G20G25
  -4657087.42549  -3624567.27648  21102980.4244   21102976.3934
      -294.4064
   3696006.79949   2880710.09447  22714752.5804   22714748.0614
     -2349.7344
   -592826.21449   -456317.62246  24541240.1114   24541238.6004
      2739.3444
  -8611872.47649  -6695157.35947  22852197.1114   22852191.0254
      1908.0474
 -14303937.67549 -11134584.99148  21650640.3544   21650636.0064
      1757.2974
  -1140266.52749   -878804.04248  21485075.0254   21485070.7134
     -1650.0314
 04  9 17 16 36 15.0020000  0  6G 1G11G16G23G20G25
  -4652641.41949  -3621102.85048  21103826.6434   21103822.0764
      -298.4064
   3731301.18149   2908212.19147  22721468.8544   22721464.5374
     -2356.3124
   -633903.17349   -488325.57346  24533423.0494   24533421.8034
      2737.6414
  -8640472.09349  -6717442.76647  22846754.6274   22846748.3964
      1904.9694
 -14330256.96449 -11155093.52448  21645632.1434   21645627.1394
      1751.9534
  -1115462.06549   -859475.89348  21489795.0254   21489791.0024
     -1657.3754
 04  9 17 16 36 30.0020000  0  6G 1G11G16G23G20G25
  -4648138.04849  -3617593.73248  21104683.5644   21104679.6194
      -301.8754
   3766688.86449   2935786.99047  22728203.2054   22728198.1584
     -2361.9694
   -674961.44049   -520319.01346  24525610.1434   24525608.6544
      2736.9224
  -8669029.97249  -6739695.64747  22841320.0024   22841313.7994
      1902.7504
 -14356498.92649 -11175541.81348  21640638.3464   21640633.6504
      1747.0944
  -1090551.96349   -840065.43748  21494535.0024   21494530.9084
     -1663.9534
 04  9 17 16 36 45.0020000  0  6G 1G11G16G23G20G25
  -4643578.10149  -3614040.53648  21105551.2834   21105546.9714
      -306.0944
   3802168.75149   2963433.62947  22734954.1354   22734949.9204
     -2368.6254
   -716001.37049   -552298.14446  24517801.2294   24517799.0534
      2735.2194
  -8697547.04049  -6761916.73747  22835893.5184   22835887.3034
      1899.5314
 -14382664.13549 -11195930.29648  21635659.0804   21635654.4984
      1741.5634
  -1065537.17249   -820573.40748  21499295.3614   21499291.5614
     -1671.3124
 04  9 17 16 37  0.0020000  0  6G 1G11G16G23G20G25
  -4638957.12749  -3610439.78248  21106430.6894   21106426.9794
      -309.9374
   3837745.21149   2991155.53047  22741724.7294   22741720.1584
     -2374.8754
   -757018.04249   -584259.11046  24509996.1744   24509993.2794
      2733.7814
  -8726018.51749  -6784102.29447  22830475.4474   22830469.3654
      1896.7034
 -14408747.82949 -11216255.24748  21630695.5334   21630690.7564
      1736.3134
  -1040413.38849   -800996.43848  21504076.3614   21504072.3034
     -1678.4224
 04  9 17 16 37 15.0020000  0  6G 1G11G16G23G20G25
  -4634278.00749  -3606793.71648  21107321.0334   21107317.5214
      -313.8594
   3873414.88849   3018950.05647  22748512.2134   22748507.6894
     -2381.1724
   -798013.99549   -616203.98646  24502194.4474   24502192.1894
      2732.2974
  -8754447.34849  -6806254.61847  22825066.1194   22825059.8894
      1893.7664
 -14434752.59449 -11236518.70448  21625747.3774   21625742.8734
      1730.9534
  -1015183.67349   -781336.91648  21508877.3224   21508873.1704
     -1685.5474
 04  9 17 16 37 30.0020000  0  6G 1G11G16G23G20G25
  -4629539.30649  -3603101.23348  21108222.6744   21108219.0334
      -318.1254
   3909179.01049   3046818.18347  22755317.4944   22755313.3734
     -2387.6414
   -838987.31549   -648131.24647  24494397.2834   24494394.8734
      2730.6724
  -8782832.04949  -6828372.55947  22819664.4474   22819658.0924
      1890.6724
 -14460676.59549 -11256719.22348  21620813.7214   21620809.1934
      1725.3594
   -989846.68149   -761593.82248  21513698.9164   21513694.4984
     -1692.8754
 04  9 17 16 37 45.0020000  0  6G 1G11G16G23G20G25
  -4624743.79249  -3599364.47748  21109135.2524   21109131.6194
      -321.7664
   3945034.64249   3074757.60947  22762141.0334   22762136.7294
     -2393.5784
   -879940.09649   -680042.42547  24486603.8544   24486602.6974
      2729.4384
  -8811175.19449  -6850458.12947  22814270.9324   22814264.5964
      1888.0314
 -14486522.15049 -11276858.62748  21615895.8074   21615891.1504
      1720.2194
   -964405.42849   -741769.48748  21518540.0494   21518535.8384
     -1699.6874
 04  9 17 16 38  0.0020000  0  6G 1G11G16G23G20G25
  -4619891.42349  -3595583.40748  21110058.6744   21110054.4474
      -325.5784
   3980981.63849   3102768.23847  22768981.4634   22768977.1004
     -2399.6874
   -920872.14249   -711937.49246  24478815.2524   24478813.0964
      2728.0004
  -8839476.71849  -6872511.26047  22808885.4864   22808879.0964
      1885.2344
 -14512289.00449 -11296936.69348  21610992.4324   21610987.9284
      1715.0004
   -938860.11849   -721864.04648  21523401.4004   21523397.0724
     -1706.6254
 04  9 17 16 38 15.0020000  0  6G 1G11G16G23G20G25
  -4614982.75249  -3591758.47148  21110992.4944   21110988.9124
      -329.1094
   4017019.19749   3130849.42147  22775839.3144   22775834.6074
     -2405.5164
   -961783.40649   -743816.34846  24471029.4164   24471027.4634
      2726.6884
  -8867737.06949  -6894532.30047  22803507.9714   22803501.4364
      1882.6414
 -14537977.43449 -11316953.65048  21606103.7134   21606099.2564
      1710.0004
   -913211.43749   -701878.07948  21528282.2604   21528278.0064
     -1713.3444
 04  9 17 16 38 30.0020000  0  6G 1G11G16G23G20G25
  -4610019.76849  -3587891.22048  21111937.0334   21111932.9084
      -332.7344
   4053145.08349   3158999.44147  22782713.7754   22782709.5064
     -2411.4224
  -1002675.46049   -775680.22746  24463248.0334   24463246.3894
      2725.4384
  -8895958.09849  -6916522.69247  22798137.4864   22798131.3424
      1880.0474
 -14563589.07549 -11336910.76948  21601230.5414   21601226.0374
      1704.7664
   -887461.51149   -681813.20448  21533182.1194   21533178.2644
     -1720.0474
 04  9 17 16 38 45.0020000  0  6G 1G11G16G23G20G25
  -4605001.41949  -3583980.81748  21112892.1114   21112887.9044
      -336.4534
   4089359.99949   3187218.83747  22789605.2914   22789600.8264
     -2417.3754
  -1043546.78049   -807527.93546  24455470.2604   24455468.5884
      2723.9844
  -8924138.72749  -6938481.62647  22792774.4394   22792768.5844
      1877.2974
 -14589122.57649 -11356807.01048  21596371.6044   21596367.0804
      1699.6094
   -861609.39949   -661668.70548  21538101.6504   21538097.4364
     -1726.9064
 04  9 17 16 39  0.0020000  0  6G 1G11G16G23G20G25
  -4599926.48149  -3580026.32648  21113857.6664   21113854.4794
      -340.2504
   4125664.91349   3215508.34347  22796513.6504   22796509.0414
     -2423.3124
  -1084395.88749   -839358.34846  24447697.4944   24447695.2404
      2722.5474
  -8952277.66549  -6960408.05347  22787420.1584   22787413.7714
      1874.5784
 -14614576.35949 -11376641.12848  21591527.6044   21591522.9004
      1694.2664
   -835654.15749   -641443.85048  21543040.6664   21543036.5614
     -1733.8284
 04  9 17 16 39 15.0020000  0  6G 1G11G16G23G20G25
  -4594793.69749  -3576026.75848  21114834.8224   21114830.9634
      -344.2344
   4162060.91849   3243868.85547  22803439.6194   22803435.1544
     -2429.5164
  -1125220.86949   -871169.97946  24439928.0104   24439926.3304
      2720.7504
  -8980373.59649  -6982300.98447  22782073.3384   22782067.1664
      1871.5314
 -14639948.86249 -11396411.91848  21586699.5024   21586694.9204
      1688.6564
   -809594.52749   -621137.65548  21547999.4474   21547995.5844
     -1740.9374
 04  9 17 16 39 30.0020000  0  6G 1G11G16G23G20G25
  -4589602.78049  -3571981.88948  21115822.4394   21115818.8964
      -348.1874
   4198548.08449   3272300.39147  22810383.0884   22810378.7054
     -2435.6414
  -1166020.94949   -902962.19446  24432164.4004   24432162.0374
      2719.0164
  -9008426.07649  -7004160.05647  22776735.4394   22776729.0064
      1868.5474
 -14665239.40049 -11416118.82848  21581886.9164   21581882.0884
      1683.1414
   -783430.46449   -600750.08448  21552978.5024   21552974.2834
     -1747.9224
 04  9 17 16 39 45.0020000  0  6G 1G11G16G23G20G25
  -4584355.62849  -3567893.21248  21116821.0884   21116817.5294
      -351.7814
   4235124.17049   3300801.20247  22817343.6744   22817338.9474
     -2441.4694
  -1206797.65449   -934736.17646  24424404.6504   24424402.3114
      2717.6254
  -9036436.82249  -7025986.60447  22771405.1354   22771399.1074
      1865.9064
 -14690449.50349 -11435763.06748  21577089.7294   21577084.8034
      1677.8594
   -757164.05249   -580282.75548  21557977.0184   21557972.6584
     -1754.6254
 04  9 17 16 40  0.0020000  0  6G 1G11G16G23G20G25
  -4579049.71449  -3563758.73148  21117830.7364   21117826.8224
      -355.6564
   4271791.57449   3329373.18747  22824321.0644   22824316.5764
     -2447.5004
  -1247548.02649   -966489.67646  24416650.5574   24416647.9164
      2715.8444
  -9064403.35049  -7047778.69247  22766083.3464   22766076.8034
      1862.9694
 -14715576.34949 -11455342.42948  21572308.1114   21572303.4634
      1672.3444
   -730793.02849   -559733.91448  21562994.9794   21562991.1154
     -1761.5314
 04  9 17 16 40 15.0020000  0  6G 1G11G16G23G20G25
  -4573687.90249  -3559580.70148  21118851.3384   21118847.2014
      -359.5474
   4308547.01949   3358013.77347  22831315.4634   22831311.2094
     -2453.5784
  -1288274.47049   -998224.54546  24408900.1974   24408897.9364
      2714.0314
  -9092328.49349  -7069538.54347  22760769.4244   22760762.8544
      1860.0784
 -14740622.48749 -11474858.90348  21567542.2214   21567537.6154
      1666.8444
   -704320.33149   -539105.84248  21568032.2214   21568028.0764
     -1768.4534
 04  9 17 16 40 30.0020000  0  6G 1G11G16G23G20G25
  -4568265.36249  -3555355.35448  21119882.6824   21119879.5454
      -363.6724
   4345395.18849   3386726.61247  22838327.3074   22838323.3504
     -2459.7194
  -1328971.69849  -1029936.61046  24401155.4324   24401153.5924
      2712.0944
  -9120207.17149  -7091262.17447  22755464.2364   22755457.6154
      1856.9224
 -14765582.74749 -11494308.45948  21562792.4164   21562787.3654
      1661.0634
   -677741.27949   -518394.90348  21573090.4244   21573086.4904
     -1775.6254
 04  9 17 16 40 45.0020000  0  6G 1G11G16G23G20G25
  -4562787.16449  -3551086.62548  21120925.3854   21120922.0184
      -366.9064
   4382331.04149   3415507.76847  22845356.3224   22845351.8114
     -2465.2034
  -1369644.24849  -1061629.47547  24393415.3384   24393414.2794
      2710.7814
  -9148044.44549  -7112953.54947  22750166.5574   22750160.6784
      1854.5784
 -14790461.87049 -11513694.79448  21558057.8694   21558053.1464
      1656.0784
   -651061.11549   -497605.17248  21578167.6114   21578163.5804
     -1781.8914
 04  9 17 16 41  0.0020000  0  6G 1G11G16G23G20G25
  -4557252.68749  -3546774.06148  21121978.7994   21121974.6864
      -370.5784
   4419354.60649   3444357.25647  22852401.2754   22852396.4634
     -2470.9224
  -1410291.13249  -1093302.32747  24385681.2914   24385679.1584
      2709.1724
  -9175839.63749  -7134612.13047  22744877.9084   22744871.1074
      1851.8444
 -14815258.99649 -11533017.23948  21553339.0644   21553333.9714
      1650.6094
   -624279.41849   -476736.33948  21583264.0494   21583259.3734
     -1788.6254
 04  9 17 16 41 15.0020000  0  6G 1G11G16G23G20G25
  -4551662.95049  -3542418.42448  21123042.4394   21123038.4364
      -374.6564
   4456464.58749   3473274.12147  22859462.9004   22859459.1864
     -2477.0474
  -1450912.90749  -1124955.63547  24377951.1354   24377949.3774
      2707.0784
  -9203593.68749  -7156238.65947  22739596.3224   22739589.7604
      1848.7194
 -14839974.74149 -11552276.25248  21548635.9244   21548630.9674
      1644.8134
   -597397.36649   -455789.28648  21588379.2754   21588375.1664
     -1795.6254
 04  9 17 16 41 30.0020000  0  6G 1G11G16G23G20G25
  -4546018.79149  -3538020.38148  21124116.2294   21124112.6044
      -378.2504
   4493660.04549   3502257.56847  22866541.3694   22866537.5254
     -2482.6564
  -1491509.88249  -1156589.57047  24370226.1354   24370223.5374
      2705.4064
  -9231307.19349  -7177833.58547  22734322.5414   22734316.0724
      1846.0784
 -14864609.53349 -11571472.19648  21543948.1974   21543943.2794
      1639.4694
   -570415.96049   -434764.82148  21593513.7994   21593509.8694
     -1802.2034
 04  9 17 16 41 45.0020000  0  6G 1G11G16G23G20G25
  -4540318.40849  -3533578.53048  21125200.9474   21125197.4084
      -381.9374
   4530942.57549   3531308.85547  22873635.7524   22873631.7324
     -2488.4224
  -1532079.80749  -1188202.46147  24362505.6354   24362503.2404
      2703.7034
  -9258978.28049  -7199395.46847  22729056.9714   22729050.3034
      1843.3284
 -14889161.18649 -11590603.35848  21539275.9864   21539271.0064
      1633.9844
   -543333.57249   -413661.67248  21598667.4084   21598663.0214
     -1808.9064
 04  9 17 16 42  0.0020000  0  6G 1G11G16G23G20G25
  -4534558.13849  -3529090.02048  21126297.0334   21126293.1784
      -385.6874
   4568315.49249   3560430.57947  22880747.2364   22880743.4044
     -2494.2344
  -1572618.62749  -1219791.13347  24354791.1824   24354788.3574
      2701.8444
  -9286603.49749  -7220921.61048  22723799.9864   22723793.3344
      1840.3594
 -14913625.91449 -11609666.79848  21534620.6114   21534615.6934
      1628.3594
   -516146.75749   -392477.15548  21603840.9554   21603836.4824
     -1815.6724
 04  9 17 16 42 15.0020000  0  6G 1G11G16G23G20G25
  -4528744.32849  -3524559.78548  21127403.5104   21127399.9084
      -389.5474
   4605772.21049   3589617.61047  22887875.4004   22887871.3304
     -2500.0784
  -1613132.23949  -1251360.12347  24347081.1664   24347079.1894
      2699.7974
  -9314188.84849  -7242416.67748  22718550.7754   22718544.2324
      1837.4844
 -14938009.64749 -11628667.09948  21529980.4794   21529975.5644
      1622.6254
   -488862.06049   -371216.35148  21609033.2604   21609028.7564
     -1822.3754
 04  9 17 16 42 30.0020000  0  6G 1G11G16G23G20G25
  -4522874.15149  -3519985.62148  21128520.4794   21128516.5334
      -393.3124
   4643315.28349   3618871.93847  22895019.9324   22895015.5454
     -2505.8594
  -1653617.45449  -1282907.01047  24339377.6434   24339374.8544
      2697.9384
  -9341731.50449  -7263878.47948  22713309.4714   22713302.8574
      1834.6254
 -14962309.26149 -11647601.88048  21525356.3854   21525351.6544
      1617.0784
   -461476.83649   -349877.22748  21614244.0884   21614239.7214
     -1829.1724
 04  9 17 16 42 45.0020000  0  6G 1G11G16G23G20G25
  -4516944.57249  -3515365.17348  21129648.9164   21129645.3304
      -396.9844
   4680947.24449   3648195.51647  22902180.7214   22902176.9284
     -2511.4534
  -1694070.82549  -1314429.05847  24331679.2214   24331677.0064
      2696.0944
  -9369228.28849  -7285304.52248  22708077.0494   22708070.2564
      1831.8754
 -14986521.44049 -11666468.50448  21520748.9554   21520744.5964
      1611.5164
   -433988.19649   -328457.51548  21619475.1274   21619470.9164
     -1835.7194
 04  9 17 16 43  0.0020000  0  6G 1G11G16G23G20G25
  -4510960.04449  -3510701.91948  21130787.7914   21130784.1434
      -400.9694
   4718663.59449   3677584.84947  22909358.1664   22909353.8574
     -2517.3594
  -1734496.21549  -1345929.34147  24323987.0804   24323984.2134
      2694.0164
  -9396683.59649  -7306698.27048  22702852.3934   22702845.5294
      1828.9384
 -15010650.31749 -11685270.23948  21516157.4474   21516152.7914
      1605.7504
   -406400.69149   -306960.77648  21624725.1504   21624720.4434
     -1842.5474
 04  9 17 16 43 15.0020000  0  6G 1G11G16G23G20G25
  -4504920.08249  -3505995.45448  21131937.0644   21131932.9044
      -404.7034
   4756464.65449   3707040.19647  22916551.3614   22916547.5024
     -2523.1564
  -1774892.61949  -1377407.01747  24316299.8464   24316297.2404
      2691.8754
  -9424096.88649  -7328059.26548  22697636.0884   22697629.1354
      1825.9384
 -15034694.97149 -11704006.32948  21511581.7914   21511577.8034
      1599.8594
   -378714.07849   -285386.79148  21629993.5254   21629989.3344
     -1849.2664
 04  9 17 16 43 30.0020000  0  6G 1G11G16G23G20G25
  -4498818.93349  -3501241.32648  21133097.9944   21133093.8504
      -408.2974
   4794355.84649   3736565.77147  22923761.7684   22923757.6894
     -2528.6414
  -1815254.00549  -1408857.39347  24308619.3544   24308616.9984
      2690.0944
  -9451462.39549  -7349383.03148  22692428.4244   22692421.7794
      1823.2344
 -15058649.44649 -11722672.15548  21507023.5334   21507019.5104
      1594.3134
   -350922.81349   -263731.27648  21635282.2754   21635277.8264
     -1855.8284
 04  9 17 16 43 45.0020000  0  6G 1G11G16G23G20G25
  -4492666.49249  -3496447.22248  21134269.0024   21134265.1744
      -412.3754
   4832327.03149   3766153.67547  22930987.5804   22930983.4324
     -2534.5314
  -1855589.68149  -1440287.76347  24300943.1434   24300940.9554
      2687.7194
  -9478789.74749  -7370677.06848  22687228.2994   22687221.1464
      1820.0314
 -15082523.15849 -11741275.05048  21502480.5964   21502475.4164
      1588.4694
   -323036.94249   -242002.02948  21640588.7834   21640584.0884
     -1862.6724
 04  9 17 16 44  0.0020000  0  6G 1G11G16G23G20G25
  -4486458.49449  -3491609.81748  21135450.5184   21135446.1004
      -415.4844
   4870382.18149   3795807.01747  22938229.5334   22938225.0924
     -2539.6094
  -1895895.00849  -1471694.49247  24293273.9164   24293271.3074
      2686.1884
  -9506074.77149  -7391938.10748  22682035.9394   22682028.7054
      1817.7664
 -15106311.62049 -11759811.52048  21497953.6974   21497949.1934
      1583.1564
   -295052.34849   -220195.85548  21645913.9474   21645909.2094
     -1868.7344
 04  9 17 16 44 15.0020000  0  6G 1G11G16G23G20G25
  -4480195.07149  -3486729.23648  21136642.0104   21136638.0574
      -419.3594
   4908520.84249   3825525.43047  22945486.9324   22945482.6824
     -2545.3594
  -1936169.69849  -1503077.29747  24285609.7994   24285607.1974
      2683.9534
  -9533317.42649  -7413166.14848  22676851.8694   22676844.8894
      1814.8284
 -15130014.68749 -11778281.44048  21493443.2054   21493438.1464
      1577.4384
   -266969.45849   -198313.09148  21651257.7914   21651253.6784
     -1875.4064
 04  9 17 16 44 30.0020000  0  6G 1G11G16G23G20G25
  -4473878.13249  -3481806.94948  21137844.3544   21137840.2954
      -423.2344
   4946740.93949   3855307.29447  22952759.5804   22952755.3814
     -2550.9844
  -1976415.11349  -1534437.29847  24277950.8774   24277949.4824
      2681.7504
  -9560519.48249  -7434362.54147  22671675.5334   22671668.9084
      1811.8444
 -15153633.84949 -11796685.97148  21488948.6044   21488944.2754
      1571.5474
   -238790.26449   -176355.27448  21656620.2364   21656616.0724
     -1882.0784
 04  9 17 16 44 45.0020000  0  6G 1G11G16G23G20G25
  -4467502.47149  -3476838.91748  21139057.4324   21139053.5414
      -426.9224
   4985047.46449   3885156.51147  22960049.1974   22960045.0574
     -2556.5474
  -2016625.69349  -1565770.16747  24270298.8224   24270297.3654
      2679.6564
  -9587675.70949  -7455523.23747  22666507.3774   22666500.7714
      1809.0004
 -15177163.53649 -11815020.79648  21484470.9474   21484466.2444
      1565.7034
   -210509.71049   -154318.49348  21662001.5644   21661997.4124
     -1888.6874
 04  9 17 16 45  0.0020000  0  6G 1G11G16G23G20G25
  -4461069.33349  -3471826.08048  21140281.5254   21140278.2294
      -430.6414
   5023438.75349   3915071.77147  22967354.9004   22967351.1114
     -2562.0164
  -2056802.07249  -1597076.43447  24262653.6584   24262651.6434
      2677.3914
  -9614787.28249  -7476649.12847  22661348.7134   22661341.8774
      1806.1414
 -15200604.79149 -11833286.71248  21480010.3224   21480005.5374
      1559.9384
   -182129.29349   -132203.88748  21667402.0414   21667398.3654
     -1895.2034
 04  9 17 16 45 15.0020000  0  6G 1G11G16G23G20G25
  -4454581.46549  -3466770.61148  21141516.3304   21141512.4324
      -434.4534
   5061911.81349   3945050.75547  22974676.1194   22974672.2214
     -2567.6564
  -2096946.65649  -1628357.83147  24255014.7444   24255012.4244
      2675.1884
  -9641856.76549  -7497742.23047  22656197.3464   22656190.4204
      1803.1094
 -15223959.94849 -11851485.53648  21475566.0884   21475561.1624
      1554.0474
   -153651.91849   -110013.74248  21672821.5334   21672817.5534
     -1901.7344
 04  9 17 16 45 30.0020000  0  6G 1G11G16G23G20G25
  -4448039.08449  -3461672.64648  21142761.5724   21142757.6584
      -438.0944
   5100466.28549   3975093.18347  22982012.3464   22982008.8544
     -2573.1254
  -2137059.15449  -1659614.27947  24247380.2444   24247378.5924
      2672.9534
  -9668884.34949  -7518802.67747  22651054.1354   22651047.2954
      1800.2664
 -15247228.89649 -11869617.18648  21471138.0804   21471133.6114
      1548.2194
   -125077.97249    -87748.32948  21678259.0024   21678254.6704
     -1908.2814
 04  9 17 16 45 45.0020000  0  6G 1G11G16G23G20G25
  -4441440.01249  -3456530.52048  21144017.1434   21144013.2604
      -441.9374
   5139104.08049   4005200.51247  22989365.6584   22989361.5924
     -2578.8444
  -2177137.04449  -1690843.75747  24239754.3934   24239751.9984
      2670.4534
  -9695867.85349  -7539828.78047  22645919.5804   22645912.7054
      1797.1884
 -15270409.21449 -11887679.78148  21466726.9944   21466722.1154
      1542.2194
    -96405.46349    -65406.13348  21683715.3464   21683710.9794
     -1914.9694
 04  9 17 16 46  0.0020000  0  6G 1G11G16G23G20G25
  -4434784.05049  -3451344.05948  21145283.4244   21145279.9284
      -445.6874
   5177825.10749   4035372.71847  22996733.9004   22996729.9514
     -2584.2344
  -2217179.62349  -1722045.72747  24232134.5884   24232132.3504
      2668.1724
  -9722807.01049  -7560820.32347  22640793.1584   22640786.4164
      1794.4384
 -15293500.32749 -11905672.84248  21462333.1044   21462328.6864
      1536.3914
    -67634.43949    -42987.15648  21689190.3224   21689186.0294
     -1921.3914
 04  9 17 16 46 15.0020000  0  6G 1G11G16G23G20G25
  -4428072.82949  -3446114.54048  21146560.8694   21146557.1824
      -448.9374
   5216627.47949   4065608.30647  23004117.4004   23004113.7754
     -2589.1254
  -2257188.07549  -1753221.06647  24224521.0574   24224519.0764
      2666.4064
  -9749703.27649  -7581778.44947  22635674.8854   22635668.3344
      1791.9384
 -15316503.59749 -11923597.46648  21457955.6584   21457950.4364
      1530.9534
    -38766.70249    -20492.81548  21694683.3074   21694679.2404
     -1927.3594
 04  9 17 16 46 30.0020000  0  6G 1G11G16G23G20G25
  -4421307.19449  -3440842.62648  21147848.1584   21147844.3544
      -452.6874
   5255510.06049   4095906.38947  23011516.7604   23011512.7174
     -2594.6724
  -2297162.86049  -1784370.19647  24216913.7994   24216911.9474
      2664.0004
  -9776557.47149  -7602703.78747  22630564.8694   22630557.9204
      1789.0474
 -15339419.48649 -11941454.01448  21453594.8074   21453590.1114
      1525.0474
     -9803.31449      2076.04248  21700195.1434   21700190.7644
     -1933.8284
 04  9 17 16 46 45.0020000  0  6G 1G11G16G23G20G25
  -4414490.30949  -3435530.76748  21149145.1894   21149141.4284
      -456.2814
   5294469.38649   4126264.27347  23018930.5254   23018926.6784
     -2599.9374
  -2337106.68449  -1815495.19947  24209312.8694   24209311.1784
      2661.8134
  -9803372.66249  -7623598.72847  22625461.7994   22625455.5964
      1786.2194
 -15362250.80949 -11959244.65648  21449250.0024   21449245.3814
      1519.0944
     19252.31049     24716.78948  21705724.2444   21705720.1624
     -1940.2664
 04  9 17 16 47  0.0020000  0  6G 1G11G16G23G20G25
  -4407618.57049  -3430176.17548  21150453.0804   21150449.4044
      -459.7974
   5333508.80649   4156684.58047  23026359.5644   23026355.5294
     -2605.1414
  -2377015.35249  -1846592.80347  24201718.8224   24201716.4474
      2659.5944
  -9830145.17849  -7644460.43448  22620367.1894   22620360.6074
      1783.5474
 -15384993.71349 -11976966.41348  21444922.1194   21444917.4944
      1513.3754
     48403.78749     47432.20048  21711271.3774   21711267.2054
     -1946.4694
 04  9 17 16 47 15.0020000  0  6G 1G11G16G23G20G25
  -4400692.63749  -3424779.36248  21151771.1044   21151767.1074
      -463.4374
   5372627.33449   4187166.51147  23033803.3694   23033799.3934
     -2610.3754
  -2416889.19849  -1877663.29947  24194131.2994   24194128.9634
      2657.3134
  -9856875.55749  -7665289.30448  22615280.3304   22615274.2564
      1780.7974
 -15407648.55649 -11994619.53748  21440611.3544   21440606.7684
      1507.5634
     77650.22449     70221.61748  21716836.9164   21716833.1234
     -1952.7974
 04  9 17 16 47 30.0020000  0  6G 1G11G16G23G20G25
  -4393712.66049  -3419340.42148  21153099.2994   21153094.9044
      -467.3444
   5411824.61349   4217709.82547  23041262.5884   23041258.5644
     -2616.0314
  -2456727.90749  -1908706.38547  24186550.0414   24186547.4594
      2654.4694
  -9883563.89649  -7686085.40548  22610201.7524   22610195.2324
      1777.5314
 -15430215.01149 -12012203.79548  21436317.0724   21436312.3814
      1501.2034
    106991.23549     93084.74048  21722420.3854   21722416.2684
     -1959.4844
 04  9 17 16 47 45.0020000  0  6G 1G11G16G23G20G25
  -4386677.44049  -3413858.43348  21154438.2134   21154433.9044
      -470.7034
   5451101.56449   4248315.20847  23048736.4864   23048732.5214
     -2621.0624
  -2496529.80649  -1939720.79847  24178975.4474   24178973.4594
      2652.3444
  -9910208.92649  -7706847.75448  22605130.9324   22605124.5414
      1775.0004
 -15452691.75349 -12029718.14248  21432039.7364   21432034.7014
      1495.6094
    136427.79949    116022.31348  21728021.9084   21728017.6234
     -1965.5004
 04  9 17 16 48  0.0020000  0  6G 1G11G16G23G20G25
  -4379585.30649  -3408332.10048  21155787.5254   21155783.7324
      -474.6564
   5490459.61049   4278983.78847  23056226.4864   23056222.4754
     -2626.5004
  -2536292.76049  -1970704.85447  24171409.0334   24171407.1044
      2649.5784
  -9936808.84349  -7727574.95448  22600069.7134   22600063.1744
      1771.9064
 -15475076.66949 -12047160.93248  21427780.1044   21427775.4164
      1489.2814
    165961.48049    139035.56448  21733642.0024   21733637.6464
     -1972.0944
 04  9 17 16 48 15.0020000  0  6G 1G11G16G23G20G25
  -4372442.46249  -3402766.24748  21157147.1044   21157143.6004
      -478.0314
   5529892.29749   4309710.52747  23063730.0884   23063725.8654
     -2631.5624
  -2576022.48249  -2001663.03147  24163848.6664   24163847.1274
      2647.3444
  -9963369.79949  -7748271.79748  22595015.2604   22595008.7994
      1769.2034
 -15497375.64349 -12064536.77348  21423536.9084   21423531.8774
      1483.5314
    195585.82249    162119.45648  21739279.5644   21739275.2054
     -1978.1564
 04  9 17 16 48 30.0020000  0  6G 1G11G16G23G20G25
  -4365242.04049  -3397155.54348  21158517.0644   21158513.0684
      -481.9534
   5569406.07949   4340500.45747  23071249.4004   23071245.2604
     -2636.9534
  -2615711.77749  -2032589.68847  24156296.0334   24156294.2794
      2644.4694
  -9989884.89449  -7768932.90448  22589969.7834   22589963.2174
      1766.1564
 -15519581.61449 -12081840.11548  21419310.9864   21419306.0214
      1477.2974
    225307.39849    185279.11148  21744935.1824   21744930.6584
     -1984.6874
 04  9 17 16 48 45.0020000  0  6G 1G11G16G23G20G25
  -4357984.54249  -3391500.35848  21159897.9474   21159893.6354
      -485.5784
   5609000.16649   4371352.96547  23078783.9944   23078780.2914
     -2642.1254
  -2655360.67449  -2063484.88647  24148751.2364   24148748.5964
      2642.0004
 -10016354.47949  -7789558.54548  22584932.7604   22584926.1624
      1763.2974
 -15541694.63249 -12099071.04848  21415103.2754   21415098.5334
      1471.2664
    255125.53249    208514.02148  21750609.2524   21750605.3144
     -1990.9694
 04  9 17 16 49  0.0020000  0  6G 1G11G16G23G20G25
  -4350676.65149  -3385805.90248  21161288.8384   21161284.7874
      -488.7814
   5648667.70249   4402262.70147  23086332.3694   23086328.2054
     -2646.8284
  -2694975.43549  -2094353.48247  24141212.3854   24141210.2754
      2639.8754
 -10042785.18649  -7810153.89848  22579903.0884   22579896.5184
      1760.8134
 -15563721.14249 -12116234.56148  21410911.5494   21410906.8894
      1465.5944
    285033.58049    231818.98548  21756300.6504   21756296.2404
     -1996.7504
 04  9 17 16 49 15.0020000  0  6G 1G11G16G23G20G25
  -4343313.23149  -3380068.18848  21162690.2054   21162685.7054
      -492.5944
   5688413.61949   4433233.50847  23093895.9714   23093891.9714
     -2652.2194
  -2734550.45049  -2125191.10947  24133681.2994   24133679.0144
      2637.1414
 -10069171.81249  -7830714.90948  22574882.2294   22574875.2484
      1757.7194
 -15585655.66349 -12133326.41348  21406737.3774   21406732.4944
      1459.3914
    315036.33049    255197.73348  21762010.2604   21762005.6744
     -2003.2344
 04  9 17 16 49 30.0020000  0  6G 1G11G16G23G20G25
  -4335893.95749  -3374286.92648  21164102.0414   21164097.7754
      -496.5314
   5728237.92249   4464265.41947  23101474.3464   23101469.9824
     -2657.5624
  -2774084.94949  -2155997.13347  24126158.8074   24126155.9674
      2634.1884
 -10095513.94749  -7851241.23248  22569869.2134   22569862.3814
      1754.5474
 -15607497.58249 -12150346.07948  21402581.3224   21402576.4044
      1453.0314
    345133.89449    278650.38048  21767737.5574   21767733.2214
     -2009.6724
 04  9 17 16 49 45.0020000  0  6G 1G11G16G23G20G25
  -4328420.11449  -3368463.16348  21165524.2364   21165520.2874
      -499.9534
   5768139.04049   4495357.16947  23109067.0104   23109062.8384
     -2662.5164
  -2813579.73249  -2186772.24047  24118642.7604   24118640.4284
      2631.8134
 -10121812.80649  -7871733.84048  22564864.8384   22564858.2364
      1751.8914
 -15629247.74349 -12167294.25948  21398442.2134   21398437.5454
      1447.1414
    375324.73449    302175.69848  21773482.7294   21773478.2014
     -2015.7034
 04  9 17 16 50  0.0020000  0  6G 1G11G16G23G20G25
  -4320890.16349  -3362595.67148  21166957.0024   21166953.3654
      -503.7504
   5808118.24749   4526509.75047  23116674.8614   23116670.7014
     -2667.7974
  -2853032.83849  -2217514.87947  24111135.4794   24111132.5684
      2628.8444
 -10148066.81149  -7892191.50048  22559868.9004   22559861.9944
      1748.8594
 -15650904.37649 -12184169.56548  21394321.0104   21394316.9474
      1440.7504
    405610.26049    325774.80148  21779246.0104   21779241.4004
     -2022.1094
 04  9 17 16 50 15.0020000  0  6G 1G11G16G23G20G25
  -4313306.97349  -3356686.70248  21168399.9554   21168395.7094
      -507.2664
   5848172.32549   4557720.70247  23124297.2134   23124293.0614
     -2672.6564
  -2892446.67049  -2248226.89247  24103635.0104   24103631.8114
      2626.3134
 -10174278.59849  -7912616.26248  22554880.8224   22554873.9164
      1746.1254
 -15672469.99649 -12200973.94248  21390217.5184   21390212.7954
      1434.6884
    435987.45649    349445.33848  21785026.2994   21785022.0614
     -2028.1874
 04  9 17 16 50 30.0020000  0  6G 1G11G16G23G20G25
  -4305668.90949  -3350734.96548  21169853.2834   21169849.6544
      -511.4374
   5888302.65949   4588991.06047  23131933.7604   23131929.4904
     -2678.2504
  -2931819.06849  -2278906.63647  24096142.7214   24096139.6194
      2623.1564
 -10200446.48849  -7933006.82548  22549901.0724   22549894.7324
      1742.7034
 -15693942.74349 -12217705.96548  21386130.8934   21386126.5534
      1428.0634
    466457.66249    373188.34248  21790824.5964   21790820.3934
     -2034.7034
 04  9 17 16 50 45.0020000  0  6G 1G11G16G23G20G25
  -4297973.33749  -3344738.41848  21171317.8544   21171314.0184
      -515.0314
   5928511.51349   4620322.60247  23139585.4394   23139581.1704
     -2683.1724
  -2971147.05949  -2309551.79947  24088658.8384   24088655.7214
      2620.3284
 -10226567.80249  -7953361.08548  22544930.7444   22544923.7054
      1739.9534
 -15715319.65849 -12234363.31548  21382063.4394   21382058.4754
      1421.9384
    497023.40849    397005.78248  21796641.1824   21796636.9754
     -2040.9694
 04  9 17 16 51  0.0020000  0  6G 1G11G16G23G20G25
  -4290222.60849  -3338698.89748  21172792.9864   21172788.6624
      -518.2814
   5968796.51249   4651713.47947  23147251.0024   23147247.3184
     -2687.9224
  -3010432.57749  -2340163.82247  24081183.5024   24081180.6544
      2617.8754
 -10252644.89549  -7973680.89548  22539968.0574   22539961.4514
      1737.2814
 -15736602.80949 -12250947.58548  21378013.6274   21378008.7294
      1416.0164
    527682.14249    420895.71148  21802475.2604   21802470.9674
     -2046.7034
 04  9 17 16 51 15.0020000  0  6G 1G11G16G23G20G25
  -4282418.75149  -3332617.97548  21174277.9394   21174274.0104
      -522.1094
   6009155.15649   4683161.74947  23154931.0184   23154927.4044
     -2693.1254
  -3049677.17249  -2370743.98147  24073714.6744   24073712.7324
      2614.7814
 -10278679.69949  -7993967.74047  22535013.9004   22535007.2714
      1734.0784
 -15757793.85449 -12267460.08448  21373981.2294   21373976.4004
      1409.5474
    558431.54749    444856.27648  21808326.8304   21808322.6664
     -2053.1254
 04  9 17 16 51 30.0020000  0  6G 1G11G16G23G20G25
  -4274555.54949  -3326490.81848  21175774.3854   21175770.3814
      -526.0784
   6049593.43649   4714672.05447  23162626.0884   23162622.4434
     -2698.4064
  -3088874.13749  -2401287.00247  24066255.3614   24066253.4394
      2611.7034
 -10304665.85749  -8014216.69247  22530068.8774   22530062.0964
      1730.9064
 -15778886.16349 -12283895.66048  21369966.9004   21369962.6394
      1402.9844
    589277.62349    468892.16548  21814196.7214   21814192.2954
     -2059.5164
 04  9 17 16 51 45.0020000  0  6G 1G11G16G23G20G25
  -4266636.41349  -3320320.06748  21177281.1584   21177277.1744
      -529.7034
   6090107.52849   4746241.45847  23170335.8544   23170331.8654
     -2703.3284
  -3128026.42249  -2431795.22347  24058805.0184   24058802.6354
      2608.7504
 -10330606.72549  -8034430.35747  22525132.9864   22525125.8694
      1728.0784
 -15799882.94349 -12300256.78848  21365971.4164   21365966.6624
      1396.6724
    620216.82049    493000.62848  21820084.0184   21820080.0684
     -2065.5944
 04  9 17 16 52  0.0020000  0  6G 1G11G16G23G20G25
  -4258663.20049  -3314107.18448  21178798.3464   21178794.2054
      -533.3124
   6130695.51849   4777868.42747  23178059.4794   23178055.7054
     -2708.3124
  -3167135.42649  -2462269.74547  24051362.5494   24051359.8814
      2605.8594
 -10356503.95449  -8054610.00948  22520204.3854   22520197.6434
      1725.0944
 -15820785.59049 -12316544.57548  21361994.0884   21361989.3694
      1390.4064
    651247.14449    517180.09348  21825989.0724   21825984.7644
     -2071.6874
 04  9 17 16 52 15.0020000  0  6G 1G11G16G23G20G25
  -4250634.93449  -3307851.40648  21180326.1664   21180321.8934
      -536.9374
   6171358.02749   4809553.46447  23185797.7914   23185793.5024
     -2713.2034
  -3206199.83549  -2492709.48347  24043929.3304   24043926.8224
      2602.8754
 -10382356.66149  -8074754.97348  22515284.9554   22515278.4084
      1722.1724
 -15841593.03749 -12332758.17348  21358034.6044   21358029.6664
      1384.0784
    682369.28849    541431.09748  21831910.9394   21831907.1114
     -2077.7194
 04  9 17 16 52 30.0020000  0  6G 1G11G16G23G20G25
  -4242554.40349  -3301554.88748  21181863.9084   21181860.1934
      -540.5624
   6212091.95949   4841294.16347  23193549.1584   23193545.0644
     -2718.0474
  -3245221.87449  -2523116.23647  24036503.6824   24036501.1664
      2599.9694
 -10408167.55049  -8094867.34747  22510373.0104   22510366.7714
      1719.2344
 -15862307.64749 -12348899.42648  21354092.7054   21354088.0454
      1377.7814
    713580.31149    565751.37048  21837850.2364   21837846.4754
     -2083.7974
 04  9 17 16 52 45.0020000  0  6G 1G11G16G23G20G25
  -4234418.49449  -3295215.21848  21183412.0964   21183408.1394
      -544.2664
   6252900.05649   4873092.64147  23201314.1114   23201310.5534
     -2723.0474
  -3284197.99349  -2553487.20647  24029086.1744   24029083.6464
      2596.8284
 -10433933.29749  -8114944.55447  22505470.0724   22505463.7094
      1716.2034
 -15882925.99749 -12364965.67948  21350169.0024   21350164.5144
      1371.3134
    744883.07449    590143.12048  21843807.4324   21843803.5024
     -2089.9534
 04  9 17 16 53  0.0020000  0  6G 1G11G16G23G20G25
  -4226229.50449  -3288834.20648  21184970.3074   21184966.5184
      -547.7504
   6293779.78549   4904946.95947  23209093.3934   23209089.7714
     -2727.7194
  -3323130.18949  -2583823.92347  24021678.0804   24021674.7364
      2593.9694
 -10459656.24049  -8134988.39147  22500574.8934   22500568.4904
      1713.4534
 -15903450.12449 -12380958.51448  21346263.3854   21346258.9714
      1365.0784
    776275.16449    614604.48148  21849780.7364   21849776.7054
     -2095.7974
 04  9 17 16 53 15.0020000  0  6G 1G11G16G23G20G25
  -4217986.83249  -3282411.34048  21186539.0024   21186535.0334
      -551.2974
   6334731.53749   4936857.37147  23216886.4864   23216882.8304
     -2732.5004
  -3362017.34549  -2614125.56747  24014277.9944   24014274.6664
      2590.9064
 -10485335.68349  -8154998.34348  22495688.5104   22495681.8934
      1710.4384
 -15923879.07049 -12396877.17348  21342375.7994   21342371.0884
      1358.7664
    807756.92349    639135.71748  21855771.6584   21855767.3074
     -2101.7974
 04  9 17 16 53 30.0020000  0  6G 1G11G16G23G20G25
  -4209688.12449  -3275944.82048  21188118.3074   21188114.5454
      -554.9694
   6375757.25149   4968825.42747  23224693.7134   23224689.7214
     -2737.3444
  -3400856.69749  -2644389.98447  24006887.0334   24006883.8614
      2587.8284
 -10510969.22249  -8174972.52148  22490810.2994   22490804.1824
      1707.5004
 -15944210.12549 -12412719.55048  21338507.1894   21338502.6004
      1352.2664
    839330.48349    663738.48448  21861780.1744   21861775.7994
     -2107.7974
 04  9 17 16 53 45.0020000  0  6G 1G11G16G23G20G25
  -4201336.03349  -3269436.70348  21189707.2914   21189703.6044
      -558.6414
   6416854.00949   5000848.84047  23232513.9714   23232509.8074
     -2742.1094
  -3439650.39849  -2674618.77547  23999504.3384   23999501.8614
      2584.6724
 -10536559.35949  -8194912.88348  22485940.8144   22485934.4084
      1704.5634
 -15964445.67049 -12428487.51748  21334656.2364   21334651.7914
      1345.8134
    870993.08749    688410.62448  21867805.4164   21867801.0844
     -2113.8124
 04  9 17 16 54  0.0020000  0  6G 1G11G16G23G20G25
  -4192928.66749  -3262885.52248  21191307.1354   21191303.4904
      -562.2344
   6458023.51549   5032928.95547  23240348.0574   23240344.4824
     -2746.8754
  -3478396.14849  -2704810.23647  23992131.4164   23992128.8384
      2581.6094
 -10562104.18349  -8214817.93548  22481079.8774   22481073.6824
      1701.6254
 -15984583.61249 -12444179.42048  21330823.9004   21330819.4364
      1339.3914
    902746.32949    713153.40048  21873847.7994   21873843.6704
     -2119.7194
 04  9 17 16 54 15.0020000  0  6G 1G11G16G23G20G25
  -4184467.07149  -3256292.07848  21192917.5884   21192913.7444
      -566.0164
   6499264.37449   5065064.65047  23248195.8774   23248192.2994
     -2751.8284
  -3517094.60349  -2734964.87747  23984767.7834   23984764.8264
      2578.2664
 -10587604.74049  -8234688.49248  22476227.4944   22476220.6074
      1698.4534
 -16004624.66449 -12459795.83348  21327010.5184   21327005.7214
      1332.7504
    934588.95549    737965.83348  21879907.1194   21879902.8544
     -2125.8914
 04  9 17 16 54 30.0020000  0  6G 1G11G16G23G20G25
  -4175951.18649  -3249656.32548  21194537.9324   21194534.2094
      -569.6094
   6540576.36849   5097255.77847  23256057.5104   23256053.9204
     -2756.6254
  -3555745.14949  -2765082.12447  23977413.0964   23977410.0184
      2574.9694
 -10613060.74649  -8254524.34248  22471383.5254   22471376.7684
      1695.5004
 -16024568.42549 -12475336.41548  21323215.2834   21323210.9084
      1326.2344
    966520.78549    762847.76948  21885983.4474   21885979.3504
     -2131.8284
 04  9 17 16 54 45.0020000  0  6G 1G11G16G23G20G25
  -4167381.25549  -3242978.47148  21196168.9164   21196164.6704
      -573.0474
   6581958.90349   5129501.88947  23263932.4944   23263928.4984
     -2761.0784
  -3594347.63449  -2795161.96447  23970066.7684   23970064.7564
      2572.0004
 -10638472.39749  -8274325.61248  22466547.6744   22466541.2914
      1692.6724
 -16044414.82949 -12490801.15648  21319438.7684   21319434.2054
      1319.8914
    998541.36749    787798.86148  21892077.1274   21892072.7094
     -2137.5474
 04  9 17 16 55  0.0020000  0  6G 1G11G16G23G20G25
  -4158758.79349  -3236259.66848  21197809.8384   21197805.8224
      -576.7194
   6623410.38549   5161801.70147  23271820.3464   23271816.4984
     -2765.8914
  -3632903.11249  -2825205.15547  23962729.3934   23962727.3774
      2568.6564
 -10663841.04449  -8294093.39248  22461720.0254   22461713.5494
      1689.6414
 -16064164.97449 -12506190.87848  21315680.2054   21315675.7994
      1313.2974
   1030649.08849    812817.86348  21898187.0644   21898182.3384
     -2143.5624
 04  9 17 16 55 15.0020000  0  6G 1G11G16G23G20G25
  -4150081.91649  -3229498.47848  21199460.9554   21199456.8184
      -580.1414
   6664932.16249   5194156.29047  23279721.9394   23279717.6864
     -2770.2974
  -3671409.29949  -2855209.97847  23955401.9394   23955399.7524
      2565.5634
 -10689164.96249  -8313826.30648  22456901.4244   22456894.7134
      1686.9384
 -16083816.80349 -12521503.99948  21311940.7214   21311935.9474
      1306.9844
   1062845.63649    837906.06948  21904313.6894   21904308.9824
     -2149.2974
 04  9 17 16 55 30.0020000  0  6G 1G11G16G23G20G25
  -4141352.68949  -3222696.48348  21201122.0024   21201117.8774
      -583.8914
   6706521.98349   5226563.90247  23287636.4474   23287632.1234
     -2775.0624
  -3709867.73349  -2885177.53947  23948083.6584   23948081.7014
      2562.1564
 -10714445.94349  -8333525.76548  22452090.4634   22452084.0534
      1683.7974
 -16103371.97449 -12536741.80748  21308219.3304   21308214.8734
      1300.2504
   1095128.70149    863061.69148  21910456.9474   21910452.3934
     -2155.2664
 04  9 17 16 55 45.0020000  0  6G 1G11G16G23G20G25
  -4132569.48249  -3215852.44448  21202793.3144   21202789.3074
      -587.3594
   6748181.09949   5259025.51947  23295563.8074   23295559.7524
     -2779.6414
  -3748276.45449  -2915106.38847  23940774.9794   23940772.5214
      2558.9384
 -10739682.40749  -8353190.53147  22447288.0334   22447281.2524
      1680.8754
 -16122828.64049 -12551902.85048  21304516.8144   21304512.1234
      1293.7504
   1127499.59449    888285.76948  21916616.8694   21916613.0804
     -2161.0624
 04  9 17 16 56  0.0020000  0  6G 1G11G16G23G20G25
  -4123732.51549  -3208966.49748  21204474.7604   21204470.8964
      -591.0314
   6789909.00149   5291540.74147  23303504.2834   23303500.3774
     -2784.2504
  -3786635.11049  -2944996.22547  23933475.9944   23933472.6004
      2555.3914
 -10764874.41149  -8372820.66647  22442494.0494   22442487.1664
      1677.8594
 -16142186.70649 -12566987.05548  21300833.4084   21300828.7174
      1287.0944
   1159957.80049    913577.87048  21922793.2754   21922789.2684
     -2166.9534
 04  9 17 16 56 15.0020000  0  6G 1G11G16G23G20G25
  -4114841.88349  -3202038.74248  21206166.5644   21206163.2954
      -594.8594
   6831705.35649   5324109.29947  23311457.7914   23311454.0064
     -2788.9224
  -3824943.44549  -2974846.84347  23926185.9794   23926183.2254
      2551.8914
 -10790022.02749  -8392416.20448  22437708.7524   22437701.8774
      1674.7034
 -16161445.97649 -12581994.28548  21297168.3544   21297163.8384
      1280.3284
   1192503.27549    938937.96748  21928986.7754   21928982.3224
     -2172.8914
 04  9 17 16 56 30.0020000  0  6G 1G11G16G23G20G25
  -4105897.15949  -3195068.83748  21207868.8074   21207865.0614
      -598.2504
   6873570.35149   5356731.33847  23319424.8614   23319420.6784
     -2793.4374
  -3863200.59049  -3004657.60247  23918906.1354   23918903.4244
      2548.7504
 -10815124.84649  -8411976.83947  22432931.8464   22432924.9474
      1671.9844
 -16180605.67449 -12596923.91748  21293522.8144   21293517.6824
      1273.8754
   1225136.04049    964366.09148  21935196.7444   21935192.7874
     -2178.5314
 04  9 17 16 56 45.0020000  0  6G 1G11G16G23G20G25
  -4096901.13349  -3188058.94248  21209580.7604   21209577.0184
      -601.2974
   6915500.81549   5389404.38647  23327403.6664   23327399.7684
     -2797.3914
  -3901408.87549  -3034430.27247  23911635.2994   23911632.6704
      2545.7814
 -10840185.38549  -8431504.52348  22428162.9714   22428156.2714
      1669.4224
 -16199668.27349 -12611777.89648  21289894.9714   21289890.3184
      1267.6884
   1257853.25149    989860.01648  21941422.3304   21941417.7834
     -2183.7664
 04  9 17 16 57  0.0020000  0  6G 1G11G16G23G20G25
  -4087852.10149  -3181007.75748  21211302.8774   21211299.1544
      -605.0314
   6957498.26649   5422129.65547  23335395.2994   23335391.2214
     -2802.0314
  -3939566.07149  -3064163.12947  23904373.8224   23904371.5844
      2542.1094
 -10865201.92049  -8450997.92248  22423402.3934   22423395.8694
      1666.3284
 -16218631.73849 -12626554.62448  21286286.3304   21286281.5804
      1260.9694
   1290656.47449   1015420.95848  21947664.6354   21947660.0454
     -2189.7194
 04  9 17 16 57 15.0020000  0  6G 1G11G16G23G20G25
  -4078749.62349  -3173914.92448  21213035.0884   21213031.2174
      -608.4224
   6999562.88749   5454907.24547  23343399.9554   23343396.1544
     -2806.4064
  -3977671.40249  -3093855.60147  23897122.4474   23897120.2684
      2538.7034
 -10890173.83649  -8470456.55548  22418650.1824   22418643.8854
      1663.4384
 -16237495.27949 -12641253.49648  21282696.7444   21282692.3424
      1254.3134
   1323545.81849   1041049.00948  21953923.5414   21953919.4864
     -2195.3594
 04  9 17 16 57 30.0020000  0  6G 1G11G16G23G20G25
  -4069594.95749  -3166781.43748  21214777.1434   21214773.6194
      -612.0474
   7041693.05549   5487735.90547  23351417.0414   23351413.6544
     -2810.7664
  -4015725.60549  -3123508.18847  23889881.0884   23889878.9514
      2535.2974
 -10915102.44749  -8489881.44148  22413906.4324   22413900.0024
      1660.4844
 -16256259.95149 -12655875.31948  21279125.9324   21279121.0684
      1247.7034
   1356519.82049   1066743.03148  21960198.0884   21960193.8854
     -2201.0004
 04  9 17 16 57 45.0020000  0  6G 1G11G16G23G20G25
  -4060388.26549  -3159607.39648  21216529.0644   21216525.5574
      -615.7194
   7083888.37549   5520615.34547  23359446.8934   23359442.8144
     -2815.4374
  -4053728.49149  -3153120.80547  23882649.2604   23882647.3304
      2531.6254
 -10939987.84849  -8509272.65548  22409171.1744   22409164.3464
      1657.4064
 -16274925.66449 -12670420.03648  21275574.1194   21275569.3464
      1240.9224
   1389578.07249   1092502.69848  21966488.9394   21966484.6354
     -2206.9374
 04  9 17 16 58  0.0020000  0  6G 1G11G16G23G20G25
  -4051130.28949  -3152393.39848  21218290.7684   21218287.2324
      -618.8754
   7126147.84149   5553544.77547  23367488.5724   23367484.7834
     -2819.4224
  -4091680.33549  -3182693.66547  23875427.9164   23875425.1274
      2528.4384
 -10964830.67449  -8528630.70248  22404443.4554   22404437.2874
      1654.7194
 -16293492.78949 -12684887.93248  21272040.7604   21272036.1314
      1234.5784
   1422719.73249   1118327.35648  21972795.4164   21972791.2364
     -2212.2344
 04  9 17 16 58 15.0020000  0  6G 1G11G16G23G20G25
  -4041820.95649  -3145139.38648  21220062.3304   21220058.8144
      -622.3284
   7168470.97049   5586523.77747  23375542.1584   23375538.4634
     -2823.7194
  -4129580.66149  -3212226.38047  23868215.4554   23868212.7214
      2524.9694
 -10989630.90849  -8547955.55148  22399723.8544   22399717.6154
      1651.8284
 -16311960.99649 -12699278.74048  21268526.3304   21268522.0414
      1227.9384
   1455944.58949   1144216.84948  21979118.0024   21979113.7294
     -2217.7814
 04  9 17 16 58 30.0020000  0  6G 1G11G16G23G20G25
  -4032456.38849  -3137842.31948  21221844.1114   21221840.5764
      -625.7814
   7210861.51849   5619555.35047  23383608.5334   23383605.1784
     -2827.9694
  -4167425.07749  -3241715.52047  23861013.4634   23861010.9514
      2521.4384
 -11014384.39849  -8567243.98348  22395013.4634   22395007.1464
      1648.9844
 -16330326.07349 -12713589.19948  21265031.5724   21265027.3304
      1221.2194
   1489256.27549   1170173.99448  21985456.9944   21985452.4674
     -2223.3124
 04  9 17 16 58 45.0020000  0  6G 1G11G16G23G20G25
  -4023042.99749  -3130507.22148  21223635.5414   21223631.7324
      -629.1414
   7253312.74249   5652634.18447  23391687.0574   23391683.5764
     -2832.0314
  -4205219.66949  -3271165.83947  23853820.6974   23853818.8304
      2518.0004
 -11039097.58749  -8586501.00747  22390311.0884   22390303.9284
      1646.2034
 -16348594.13549 -12727824.05948  21261555.4794   21261550.6784
      1214.6254
   1522648.29049   1196193.73448  21991811.5964   21991807.2094
     -2228.7504
 04  9 17 16 59  0.0020000  0  6G 1G11G16G23G20G25
  -4013576.45649  -3123130.70148  21225437.2914   21225433.4324
      -632.8594
   7295828.61349   5685763.39347  23399777.9634   23399774.5374
     -2836.5624
  -4242959.60149  -3300573.54847  23846640.4554   23846637.5144
      2514.1884
 -11063766.09049  -8605723.21248  22385616.7214   22385610.0144
      1643.0314
 -16366760.63049 -12741979.76348  21258098.2604   21258093.6044
      1207.7034
   1556124.71849   1222279.25148  21998181.6434   21998177.4284
     -2234.5944
 04  9 17 16 59 15.0020000  0  6G 1G11G16G23G20G25
  -4004058.65549  -3115714.24248  21227248.3464   21227244.5574
      -636.5164
   7338406.95649   5718941.30047  23407880.0494   23407876.4984
     -2840.9534
  -4280646.31049  -3329939.78747  23839467.6194   23839465.7294
      2510.3594
 -11088391.67049  -8624911.96348  22380930.6354   22380923.7684
      1640.0004
 -16384827.10649 -12756057.54348  21254660.3304   21254655.8694
      1200.8284
   1589683.21949   1248428.72548  22004567.5184   22004563.3384
     -2240.1874
 04  9 17 16 59 30.0020000  0  6G 1G11G16G23G20G25
  -3994484.96149  -3108254.23148  21229069.6824   21229066.1234
      -640.1094
   7381052.20349   5752171.33547  23415995.3464   23415991.5184
     -2845.2194
  -4318274.71349  -3359260.63247  23832307.7914   23832305.0764
      2506.6724
 -11112969.53549  -8644063.54648  22376253.3224   22376246.7604
      1637.0164
 -16402788.63449 -12770053.54348  21251242.6584   21251237.7444
      1194.0004
   1623328.27149   1274645.63648  22010969.8224   22010965.7054
     -2245.8444
 04  9 17 16 59 45.0020000  0  6G 1G11G16G23G20G25
  -3984859.32149  -3100753.74048  21230901.3854   21230897.2684
      -643.4844
   7423760.07649   5785450.17047  23424122.1044   23424118.8694
     -2849.2664
  -4355848.34349  -3388538.76147  23825157.7214   23825155.4044
      2503.0944
 -11137503.65949  -8663181.03848  22371584.7054   22371578.2294
      1634.1094
 -16420648.79149 -12783970.55748  21247844.0494   21247839.3184
      1187.2194
   1657055.82149   1300926.83748  22017387.9794   22017384.0884
     -2251.3124
 04  9 17 17  0  0.0020000  0  6G 1G11G16G23G20G25
  -3975179.98049  -3093211.40048  21232744.0104   21232739.7014
      -647.0944
   7466532.00749   5818778.90347  23432261.3304   23432258.0334
     -2853.5624
  -4393364.94549  -3417772.48047  23818018.3854   23818015.5254
      2499.2664
 -11161992.14549  -8682262.97648  22366925.1824   22366918.3114
      1631.0164
 -16438405.54549 -12797806.98748  21244464.8144   21244460.2444
      1180.2974
   1690867.43049   1327273.53948  22023822.4634   22023818.1194
     -2256.9064
 04  9 17 17  0 15.0020000  0  6G 1G11G16G23G20G25
  -3965445.17649  -3085625.84748  21234595.7914   21234591.9634
      -651.0164
   7509369.52749   5852158.74847  23440413.3694   23440409.8544
     -2858.1564
  -4430822.33349  -3446960.03947  23810890.7914   23810887.7254
      2494.9844
 -11186433.20049  -8701307.94648  22362273.9634   22362267.4204
      1627.6724
 -16456056.85549 -12811561.26848  21241105.8384   21241100.9754
      1173.0944
   1724764.68349   1353686.95848  22030272.9004   22030268.7404
     -2262.7974
 04  9 17 17  0 30.0020000  0  6G 1G11G16G23G20G25
  -3955657.84049  -3077999.36048  21236458.7444   21236454.7324
      -653.7814
   7552269.24449   5885587.06847  23448576.7754   23448573.3614
     -2861.5624
  -4468223.03249  -3476103.41947  23803773.5254   23803770.9754
      2491.9384
 -11210829.73049  -8720318.22248  22357631.8304   22357625.0414
      1625.4064
 -16473605.37249 -12825235.43748  21237766.4794   21237761.8114
      1166.9694
   1758744.45149   1380164.69348  22036738.7364   22036734.6864
     -2267.5784
 04  9 17 17  0 45.0020000  0  6G 1G11G16G23G20G25
  -3945818.57749  -3070332.41248  21238331.0724   21238327.2754
      -657.9534
   7595230.20649   5919063.10947  23456752.1894   23456748.4004
     -2866.3754
  -4505567.28449  -3505202.81447  23796667.5254   23796663.9004
      2487.3754
 -11235182.32149  -8739294.27348  22352997.3384   22352991.2994
      1621.8284
 -16491051.41449 -12838829.75548  21234446.7294   21234441.8144
      1159.4064
   1792805.83349   1406706.01048  22043220.3304   22043216.1154
     -2273.7344
 04  9 17 17  1  0.0020000  0  6G 1G11G16G23G20G25
  -3935926.64049  -3062624.42148  21240212.9474   21240209.1394
      -660.9224
   7638253.00349   5952587.32547  23464939.3694   23464936.2994
     -2870.0004
  -4542854.04149  -3534257.42747  23789572.1504   23789568.9434
      2484.1094
 -11259490.04849  -8758235.35148  22348371.7054   22348365.2324
      1619.3594
 -16508394.01449 -12852343.48548  21231146.5024   21231141.7874
      1153.0164
   1826949.31849   1433311.31348  22049717.8384   22049714.1584
     -2278.7194
 04  9 17 17  1 15.0020000  0  6G 1G11G16G23G20G25
  -3925982.05749  -3054875.39448  21242105.7684   21242102.0334
      -664.6874
   7681337.17349   5986159.37547  23473137.9634   23473134.4394
     -2874.2344
  -4580082.73549  -3563266.78247  23782487.4474   23782484.5614
      2480.0634
 -11283752.90049  -8777141.46748  22343754.9084   22343747.9714
      1616.0944
 -16525632.77149 -12865776.27948  21227865.9474   21227861.3464
      1145.8444
   1861174.69849   1459980.42448  22056230.9634   22056227.0254
     -2284.3284
 04  9 17 17  1 30.0020000  0  6G 1G11G16G23G20G25
  -3915982.79249  -3047083.76748  21244008.6824   21244004.7134
      -668.3284
   7724484.74849   6019780.83047  23481348.9394   23481345.0494
     -2878.4064
  -4617250.77549  -3592228.87347  23775414.7754   23775411.5844
      2475.9694
 -11307968.65149  -8796010.88148  22339146.8384   22339139.8424
      1612.9694
 -16542765.39749 -12879126.38348  21224605.8144   21224601.2214
      1138.8284
   1895483.84749   1486714.82648  22062759.3224   22062755.5764
     -2289.9534
 04  9 17 17  1 45.0020000  0  6G 1G11G16G23G20G25
  -3905930.59349  -3039250.89848  21245921.7444   21245917.6274
      -671.9374
   7767693.51049   6053449.94547  23489570.6974   23489567.3034
     -2882.6094
  -4654359.58049  -3621144.80747  23768353.4084   23768350.2254
      2471.9844
 -11332139.06149  -8814844.96048  22334547.1504   22334540.6584
      1609.8754
 -16559793.41949 -12892394.97048  21221365.5254   21221361.0294
      1131.7344
   1929874.66949   1513512.85348  22069303.9164   22069300.0804
     -2295.4374
 04  9 17 17  2  0.0020000  0  6G 1G11G16G23G20G25
  -3895824.28149  -3031375.84848  21247844.8854   21247840.7794
      -675.5474
   7810964.42749   6087167.52747  23497804.4634   23497801.5844
     -2886.7974
  -4691407.44849  -3650013.27347  23761303.2834   23761300.6114
      2467.8284
 -11356262.95449  -8833642.78948  22329956.5024   22329950.0724
      1606.7664
 -16576715.27749 -12905580.84448  21218145.3304   21218140.6004
      1124.6884
   1964348.20849   1540375.33048  22075864.0724   22075860.2954
     -2300.9224
 04  9 17 17  2 15.0020000  0  6G 1G11G16G23G20G25
  -3885664.70449  -3023459.30148  21249778.0184   21249774.5334
      -679.1874
   7854296.15649   6120932.46447  23506050.3544   23506047.4944
     -2890.8594
  -4728394.97249  -3678834.68647  23754264.4714   23754262.0414
      2463.7034
 -11380341.09949  -8852404.98148  22325374.0964   22325367.9674
      1603.6254
 -16593531.66149 -12918684.52548  21214945.4244   21214940.5414
      1117.5784
   1998903.37449   1567301.42148  22082439.7754   22082435.7324
     -2306.4694
 04  9 17 17  2 30.0020000  0  6G 1G11G16G23G20G25
  -3875452.20349  -3015501.52048  21251721.4084   21251717.5924
      -682.3914
   7897688.15049   6154744.37547  23514307.9164   23514304.4474
     -2894.6254
  -4765321.91749  -3707608.90747  23747237.5254   23747235.6114
      2459.9694
 -11404373.68149  -8871131.66948  22320800.9164   22320794.9364
      1600.8594
 -16610242.52649 -12931705.98248  21211765.5494   21211760.4824
      1110.7344
   2033539.60449   1594290.67748  22089030.5644   22089026.4244
     -2311.5944
 04  9 17 17  2 45.0020000  0  6G 1G11G16G23G20G25
  -3865189.41049  -3007504.55348  21253674.3614   21253670.2914
      -685.9844
   7941137.49249   6188600.96347  23522576.2214   23522572.7794
     -2898.6724
  -4802190.56449  -3736337.72447  23740221.9004   23740218.8034
      2455.8444
 -11428363.35249  -8889824.91948  22316236.2754   22316230.0454
      1597.7814
 -16626850.23649 -12944647.05948  21208604.9474   21208600.1934
      1103.6884
   2068254.04449   1621340.87648  22095636.6974   22095632.3344
     -2316.9374
 04  9 17 17  3  0.0020000  0  6G 1G11G16G23G20G25
  -3854872.77849  -2999465.62048  21255637.4474   21255633.9474
      -689.6414
   7984647.40249   6222504.75047  23530855.4394   23530852.3344
     -2902.7034
  -4838996.90049  -3765017.93647  23733217.5414   23733214.8144
      2451.6414
 -11452306.36349  -8908481.80548  22311680.1824   22311673.6114
      1594.5314
 -16643350.90249 -12957504.72048  21205465.1974   21205460.6154
      1096.3914
   2103050.21549   1648454.75948  22102258.4634   22102254.1464
     -2322.4844
 04  9 17 17  3 15.0020000  0  6G 1G11G16G23G20G25
  -3844500.80449  -2991383.57048  21257611.4864   21257607.5184
      -693.2194
   8028218.98349   6256456.60347  23539147.0574   23539143.6664
     -2906.7034
  -4875739.04249  -3793648.15647  23726225.9474   23726223.0024
      2447.4064
 -11476201.20649  -8927101.16448  22307132.8074   22307126.4904
      1591.4534
 -16659742.79449 -12970277.63348  21202345.6504   21202340.9244
      1089.2664
   2137929.28349   1675633.24648  22108895.6044   22108891.5614
     -2327.9534
 04  9 17 17  3 30.0020000  0  6G 1G11G16G23G20G25
  -3834077.41749  -2983261.46548  21259594.7524   21259590.8224
      -696.5314
   8071848.12149   6290453.30347  23547449.6114   23547446.3934
     -2910.4224
  -4912420.45049  -3822231.03247  23719245.6894   23719243.3344
      2443.5474
 -11500051.78349  -8945686.01648  22302594.4794   22302587.8424
      1588.6564
 -16676029.60049 -12982968.65948  21199246.5884   21199241.8344
      1082.3914
   2172887.02949   1702873.03248  22115547.8384   22115544.0724
     -2333.0164
 04  9 17 17  3 45.0020000  0  6G 1G11G16G23G20G25
  -3823601.33349  -2975098.28948  21261588.4554   21261584.8304
      -700.2344
   8115535.75049   6324495.57947  23555762.7444   23555759.6894
     -2914.4844
  -4949039.40449  -3850765.26347  23712276.8384   23712274.3224
      2439.0474
 -11523856.64949  -8964235.26248  22298064.5804   22298057.8614
      1585.3914
 -16692209.75549 -12995576.56748  21196167.5184   21196163.1074
      1075.0634
   2207924.48749   1730174.93248  22122215.4084   22122211.0684
     -2338.5474
 04  9 17 17  4  0.0020000  0  6G 1G11G16G23G20G25
  -3813073.19649  -2966894.55148  21263591.4794   21263587.8114
      -703.1874
   8159280.91549   6358582.68547  23564087.9634   23564083.7524
     -2917.8914
  -4985596.14349  -3879251.00947  23705320.6274   23705317.6704
      2435.3594
 -11547616.46849  -8982749.40848  22293543.2054   22293536.7874
      1582.8594
 -16708283.51949 -13008101.58848  21193108.6194   21193104.0254
      1068.3594
   2243040.82949   1757538.30148  22128897.4864   22128893.1864
     -2343.3914
 04  9 17 17  4 15.0020000  0  6G 1G11G16G23G20G25
  -3802494.45849  -2958651.39448  21265604.6114   21265601.2324
      -707.1254
   8203081.79949   6392713.19647  23572422.5574   23572419.4324
     -2922.1724
  -5022091.65349  -3907689.02847  23698376.3934   23698373.2094
      2430.6414
 -11571332.67949  -9001229.56948  22289030.4944   22289023.6004
      1579.3754
 -16724252.13849 -13020544.66948  21190070.1044   21190065.2444
      1060.8444
   2278234.38349   1784961.83348  22135594.8614   22135590.9364
     -2349.0164
 04  9 17 17  4 30.0020000  0  6G 1G11G16G23G20G25
  -3791861.09149  -2950365.66048  21267628.2684   21267624.6744
      -710.6564
   8246942.18449   6426890.09447  23580769.1354   23580765.7834
     -2925.8124
  -5058521.45549  -3936075.85147  23691443.3144   23691440.9164
      2426.5164
 -11595001.02449  -9019672.43548  22284526.2444   22284519.6504
      1576.4064
 -16740111.31649 -13032902.48948  21187052.1664   21187047.5494
      1053.7034
   2313509.03549   1812448.56548  22142307.3384   22142303.1864
     -2354.2194
 04  9 17 17  4 45.0020000  0  6G 1G11G16G23G20G25
  -3781177.11849  -2942040.49748  21269661.3934   21269657.3934
      -714.0784
   8290857.75049   6461109.97047  23589126.1354   23589122.6974
     -2929.7194
  -5094889.29649  -3964414.38947  23684522.8774   23684519.9044
      2422.3134
 -11618625.47649  -9038081.08748  22280030.3854   22280024.1114
      1573.3914
 -16755864.81349 -13045177.93648  21184054.6894   21184049.7524
      1046.6254
   2348860.37949   1839995.05448  22149034.6434   22149030.6504
     -2359.3914
 04  9 17 17  5  0.0020000  0  6G 1G11G16G23G20G25
  -3770443.26149  -2933676.46048  21271703.8304   21271700.2404
      -717.3124
   8334827.46649   6495372.04847  23597493.0414   23597489.6004
     -2933.1564
  -5131195.37049  -3992704.80347  23677613.7994   23677611.3464
      2418.2504
 -11642206.66849  -9056456.05548  22275543.2054   22275536.7444
      1570.5164
 -16771512.90349 -13057371.25348  21181076.7914   21181072.2054
      1039.6414
   2384287.49349   1867600.58748  22155776.2364   22155772.0494
     -2364.4224
